     2.10           OBSERVATION DATA    G (GPS)             RINEX VERSION / TYPE
teqc 2000Jul20 Karen Wendt 20040726 21:18:02UTC             PGM / RUN BY / DATE
Linux 2.0.36|Pentium II|gcc -static|Linux|486/DX+           COMMENT
teqc 2000Jul20 Karen Wendt 20040726 21:18:01UTC             COMMENT
BIT 2 OF LLI FLAGS DATA COLLECTED UNDER A/S CONDITION       COMMENT
poir Poison_Rock_1942_USC&GS                                MARKER NAME
CHS USGS                                                    OBSERVER / AGENCY
ZE1200331018 ASHTECH UZ-12 ZE00                             REC # / TYPE / VERS
CR619992801 ASH701945B_M NONE                               ANT # / TYPE
 -2678189.0000 -4119185.0000  4055942.0000                  APPROX POSITION XYZ
        1.2612        0.0000        0.0000                  ANTENNA: DELTA H/E/N
     1     1                                                WAVELENGTH FACT L1/2
     5    C1    L1    L2    P1    P2                        # / TYPES OF OBSERV
    30.0000                                                 INTERVAL
                                                            COMMENT
National Earthquake Hazard Reduction Program                COMMENT
Crustal Strain Project                                      COMMENT
345 Middlefield Road, MS/977                                COMMENT
U.S. Geological Survey, Menlo Park, California 94025        COMMENT
Contact: kwendt@usgs.gov (Ph: 650-329-4866)                 COMMENT
Antenna height is vertical to base of antenna               COMMENT
                                                            COMMENT
SNR is mapped to RINEX snr flag value [1-9]                 COMMENT
L1: 1 -> 1; 90 -> 5; 210 -> 9                               COMMENT
L2: 1 -> 1; 150 -> 5; 250 -> 9                              COMMENT
  2004     7    16     0     0    0.0000000     GPS         TIME OF FIRST OBS
                                                            END OF HEADER
 04  7 16  0  0  0.0000000  0  9G 3G16G13G27G 4G23G 8G20G 1
  24200546.022    -7510487.70143  -5837456.81742  24200548.223    24200550.672
  22401523.425   -17451753.84343 -13545043.72542  22401525.216    22401523.421
  20727820.848   -25858213.23044 -20094318.89542  20727823.391    20727820.719
  22309017.723   -17053576.27743 -13243077.23342  22309019.711    22309019.513
  24837948.584    -5881676.71043  -4529940.81742  24837950.952    24837953.553
  21093119.195   -24492093.29043 -19023006.85242  21093121.348    21093116.848
  24535744.218    -7162771.36743  -5569225.03142  24535745.316    24535748.709
  22671145.071   -16094965.41343 -12095943.84242  22671146.523    22671146.696
  21187332.611   -23282804.99943 -18134180.46542  21187334.568    21187333.455
 04  7 16  0  0 30.0000000  0  9G 3G16G13G27G 4G23G 8G20G 1
  24187568.497    -7578685.14543  -5890597.59142  24187570.716    24187573.145
  22414038.110   -17385988.78943 -13493798.25342  22414039.868    22414038.074
  20719847.613   -25900112.87444 -20126967.95142  20719850.160    20719847.471
  22298545.207   -17108609.08443 -13285959.87942  22298547.232    22298547.023
  24849424.380    -5821372.02743  -4482950.26542  24849426.678    24849429.262
  21102681.496   -24441843.21843 -18983850.97242  21102683.630    21102679.125
  24518613.743    -7252792.78343  -5639371.42242  24518614.727    24518618.146
  22690842.493   -15991455.04543 -12015286.49742  22690843.991    22690844.142
  21195649.625   -23239098.95944 -18100123.83142  21195651.556    21195650.447
 04  7 16  0  1  0.0000000  0  9G 3G16G13G27G 4G23G 8G20G 1
  24174634.420    -7646654.16843  -5943560.37542  24174636.475    24174638.990
  22426637.234   -17319780.00543 -13442207.01242  22426639.050    22426637.150
  20711927.376   -25941734.02344 -20159400.00142  20711929.948    20711927.210
  22288109.552   -17163448.68043 -13328691.98742  22288111.576    22288111.356
  24860949.411    -5760808.24243  -4435757.81842  24860951.650    24860954.313
  21112306.283   -24391264.88743 -18944439.31042  21112308.415    21112303.891
  24501505.241    -7342698.44343  -5709427.59542  24501506.329    24501509.543
  22710585.784   -15887703.45743 -11934441.19142  22710587.274    22710587.492
  21204023.505   -23195093.78743 -18065834.10642  21204025.444    21204024.400
 04  7 16  0  1 30.0000000  0  9G 3G16G13G27G 4G23G 8G20G 1
  24161744.365    -7714390.95043  -5996342.17942  24161746.616    24161748.940
  22439320.515   -17253128.99143 -13390271.18442  22439322.313    22439320.457
  20704060.492   -25983074.57644 -20191613.40742  20704063.089    20704060.382
  22277710.804   -17218094.75543 -13371273.29342  22277712.804    22277712.542
  24872523.462    -5699987.33843  -4388365.03042  24872525.694    24872528.107
  21121993.501   -24340357.97943 -18904771.61142  21121995.676    21121991.183
  24484418.743    -7432487.45543  -5779392.91742  24484419.898    24484423.064
  22730374.726   -15783712.73343 -11853409.55742  22730376.003    22730376.361
  21212454.475   -23150788.61943 -18031310.62442  21212456.379    21212455.398
 04  7 16  0  2  0.0000000  0  9G 3G16G13G27G 4G23G 8G20G 1
  24148899.186    -7781892.46743  -6048940.65042  24148901.449    24148903.701
  22452087.593   -17186038.19743 -13337992.67242  22452089.289    22452087.465
  20696247.218   -26024133.39944 -20223607.27842  20696249.836    20696247.173
  22267348.742   -17272547.33243 -13413703.82042  22267350.798    22267350.494
  24884145.596    -5638912.32243  -4340774.23542  24884147.853    24884150.446
  21131743.329   -24289122.37243 -18864847.78542  21131745.477    21131741.015
  24467354.478    -7522159.14143  -5849266.75242  24467355.535    24467359.109
  22750208.547   -15679485.44243 -11772193.58442  22750209.882    22750210.196
  21220942.526   -23106183.53443 -17996553.43642  21220944.441    21220943.486
 04  7 16  0  2 30.0000000  0  9G 3G16G13G27G 4G23G 8G20G 1
  24136099.393    -7849155.82743  -6101353.55542  24136101.603    24136103.876
  22464937.757   -17118510.10943 -13285373.41442  22464939.524    22464937.694
  20688487.874   -26064909.00744 -20255380.46242  20688490.476    20688487.816
  22257023.435   -17326806.77843 -13455983.86942  22257025.468    22257025.227
  24895815.663    -5577585.68243  -4292987.37042  24895817.828    24895820.689
  21141555.701   -24237558.25943 -18824667.97942  21141557.820    21141553.359
  24450312.913    -7611713.25343  -5919049.00442  24450313.855    24450317.170
  22770086.978   -15575024.45243 -11690795.49042  22770088.252    22770088.561
  21229487.770   -23061278.35544 -17961562.40142  21229489.673    21229488.669
 04  7 16  0  3  0.0000000  0  9G 3G16G13G27G 4G23G 8G20G 1
  24123345.251    -7916178.25143  -6153578.72642  24123347.519    24123349.760
  22477870.683   -17050547.01343 -13232415.18242  22477872.495    22477870.653
  20680782.747   -26105399.77944 -20286931.69742  20680785.342    20680782.701
  22246734.795   -17380873.21943 -13498113.51042  22246736.861    22246736.694
  24907533.044    -5516010.88443  -4245007.12942  24907535.173    24907538.137
  21151430.495   -24185665.91743 -18784232.41242  21151432.628    21151428.165
  24433293.701    -7701149.20643  -5988739.18342  24433294.723    24433297.867
  22790009.152   -15470332.65643 -11609217.57342  22790010.464    22790010.836
  21238090.131   -23016072.84543 -17926337.35242  21238092.044    21238090.993
 04  7 16  0  3 30.0000000  0  9G 3G16G13G27G 4G23G 8G20G 1
  24110637.336    -7982958.62243  -6205615.27542  24110639.461    24110641.752
  22490885.538   -16982153.56043 -13179121.61642  22490887.343    22490885.492
  20673131.615   -26145606.42744 -20318261.53842  20673134.246    20673131.618
  22236482.621   -17434749.01043 -13540094.59342  22236484.620    22236484.367
  24919296.863    -5454192.49443  -4196837.07442  24919299.008    24919301.888
  21161367.254   -24133447.82143 -18743543.01042  21161369.381    21161364.976
  24416296.838    -7790468.38943  -6058338.38242  24416297.835    24416300.932
  22809974.412   -15365414.79543 -11527463.48042  22809975.767    22809976.068
  21246749.235   -22970568.98043 -17890879.81642  21246751.160    21246750.110
 04  7 16  0  4  0.0000000  0  9G 3G16G13G27G 4G23G 8G20G 1
  24097976.576    -8049491.80243  -6257459.20742  24097978.631    24097980.680
  22503982.282   -16913329.57843 -13125492.57042  22503984.116    22503982.307
  20665535.294   -26185525.47244 -20349367.27142  20665537.886    20665535.228
  22226267.067   -17488431.89643 -13581925.36342  22226269.100    22226268.763
  24931106.719    -5392131.01643  -4148477.61242  24931108.946    24931111.872
  21171366.508   -24080901.60443 -18702597.92842  21171368.604    21171364.213
  24399322.386    -7879668.41843  -6127844.72142  24399323.409    24399326.554
  22829982.690   -15260271.24043 -11445533.52642  22829984.068    22829984.319
  21255465.582   -22924764.36243 -17855187.92442  21255467.524    21255466.461
 04  7 16  0  4 30.0000000  0  9G 3G16G13G27G 4G23G 8G20G 1
  24085363.550    -8115772.99043  -6309106.78442  24085365.671    24085367.689
  22517160.847   -16844075.79643 -13071528.61342  22517162.659    22517160.884
  20657994.302   -26225153.53044 -20380246.25942  20657996.920    20657994.234
  22216088.494   -17541920.32243 -13623604.61642  22216090.525    22216090.234
  24942962.845    -5329827.73243  -4099929.73242  24942965.252    24942967.755
  21181428.478   -24028025.70043 -18661395.95242  21181430.607    21181426.159
  24382371.294    -7968746.78843  -6197256.29842  24382372.193    24382375.397
  22850033.686   -15154902.92643 -11363428.45042  22850035.039    22850035.342
  21264239.488   -22878657.04443 -17819260.17342  21264241.436    21264240.399
 04  7 16  0  5  0.0000000  0  8G 3G16G13G27G23G 8G20G 1
  24072798.592    -8181801.66343  -6360557.58642  24072800.667    24072802.746
  22530420.353   -16774396.68043 -13017233.22942  22530422.137    22530420.356
  20650508.542   -26264491.35944 -20410899.09142  20650511.152    20650508.451
  22205946.511   -17595216.83843 -13665134.33042  22205948.482    22205948.222
  21191552.777   -23974822.40443 -18619938.86442  21191554.889    21191550.432
  24365442.858    -8057705.40443  -6266574.52942  24365443.839    24365446.980
  22870126.505   -15049314.99543 -11281152.23242  22870127.858    22870128.078
  21273070.620   -22832249.09043 -17783098.15942  21273072.568    21273071.514
 04  7 16  0  5 30.0000000  0  8G 3G16G13G27G23G 8G20G 1
  24060282.118    -8247576.01143  -6411810.22742  24060284.104    24060286.150
  22543760.195   -16704295.67843 -12962609.09742  22543761.947    22543760.178
  20643078.080   -26303538.81744 -20441325.66442  20643080.663    20643077.919
  22195840.785   -17648322.72743 -13706515.49642  22195842.766    22195842.475
  21201739.038   -23921293.31343 -18578227.90842  21201741.167    21201736.651
  24348537.040    -8146544.68943  -6335799.77942  24348538.203    24348541.152
  22890260.230   -14943511.45343 -11198708.00742  22890261.734    22890261.872
  21281958.827   -22785541.75643 -17746702.85542  21281960.725    21281959.632
 04  7 16  0  6  0.0000000  0  8G 3G16G13G27G23G 8G20G 1
  24047814.824    -8313091.65543  -6462861.28642  24047816.845    24047818.764
  22557179.902   -16633774.14543 -12907657.29342  22557181.675    22557180.117
  20635703.413   -26342293.13744 -20471523.81242  20635705.989    20635703.201
  22185771.527   -17701236.82343 -13747747.21342  22185773.519    22185773.234
  21211987.515   -23867437.03443 -18536262.00242  21211989.649    21211985.215
  24331654.595    -8235262.56343  -6404930.44442  24331655.639    24331658.394
  22910434.941   -14837493.49843 -11116096.71042  22910436.399    22910436.550
  21290904.201   -22738533.38643 -17710072.98642  21290906.115    21290905.072
 04  7 16  0  6 30.0000000  0  8G 3G16G13G27G23G 8G20G 1
  24035397.494    -8378344.29943  -6513707.39642  24035399.600    24035401.645
  22570679.674   -16562832.82943 -12852378.37142  22570681.439    22570679.844
  20628385.065   -26380751.27244 -20501491.17042  20628387.673    20628384.844
  22175739.058   -17753957.58143 -13788828.27842  22175741.077    22175740.718
  21222298.575   -23813252.21443 -18494040.08342  21222300.691    21222296.283
  24314795.511    -8323857.58143  -6473965.37342  24314796.479    24314799.155
  22930650.114   -14731262.38943 -11033319.31542  22930651.560    22930651.774
  21299907.197   -22691222.34543 -17673207.26042  21299909.136    21299908.089
 04  7 16  0  7  0.0000000  0  8G 3G16G13G27G23G 8G20G 1
  24023030.387    -8443334.14743  -6564348.73942  24023032.439    24023034.369
  22584258.287   -16491477.32143 -12796776.70942  22584260.022    22584258.324
  20621122.689   -26418915.03144 -20531229.14142  20621125.308    20621122.524
  22165742.733   -17806488.60443 -13829761.50642  22165744.770    22165744.311
  21232671.485   -23758742.29743 -18451564.84542  21232673.598    21232669.184
  24297959.284    -8412331.96843  -6542906.29342  24297960.202    24297962.939
  22950904.823   -14624824.06943 -10950380.46442  22950906.257    22950906.479
  21308967.225   -22643611.60143 -17636107.99942  21308969.166    21308968.227
 04  7 16  0  7 30.0000000  0  8G 3G16G13G27G23G 8G20G 1
  24010714.127    -8508056.36843  -6614781.56142  24010716.138    24010718.024
  22597915.483   -16419708.04143 -12740852.63542  22597917.283    22597915.585
  20613916.998   -26456781.03044 -20560735.09442  20613919.603    20613916.844
  22155782.786   -17858828.25143 -13870545.59542  22155784.827    22155784.406
  21243106.576   -23703905.61643 -18408834.98442  21243108.711    21243104.290
  24281146.184    -8500683.67843  -6611751.62842  24281147.205    24281150.118
  22971198.607   -14518179.60643 -10867280.98942  22971200.084    22971200.360
  21318084.684   -22595699.22543 -17598773.69842  21318086.617    21318085.672
 04  7 16  0  8  0.0000000  0  8G 3G16G13G27G23G 8G20G 1
  23998449.404    -8572507.20043  -6665002.88142  23998451.443    23998453.434
  22611651.039   -16347526.85343 -12684607.59042  22611652.896    22611651.276
  20606768.393   -26494347.07344 -20590007.31642  20606771.007    20606768.252
  22145859.446   -17910975.60043 -13911179.84742  22145861.478    22145861.021
  21253603.937   -23648741.66943 -18365850.11042  21253606.107    21253601.657
  24264357.058    -8588910.82743  -6680499.91342  24264357.957    24264360.976
  22991531.391   -14411330.98043 -10784022.41242  22991532.864    22991533.136
  21327259.726   -22547484.34143 -17561203.68042  21327261.636    21327260.666
 04  7 16  0  8 30.0000000  0  8G 3G16G13G27G23G 8G20G 1
  23986236.804    -8636684.64343  -6715011.17542  23986238.762    23986240.754
  22625464.397   -16274937.15743 -12628044.22742  22625466.258    22625464.610
  20599676.975   -26531612.69944 -20619045.44942  20599679.582    20599676.811
  22135972.431   -17962932.14143 -13951665.42842  22135974.488    22135973.939
  21264163.372   -23593251.57243 -18322611.08942  21264165.508    21264161.082
  24247591.362    -8677014.55043  -6749152.02942  24247592.165    24247595.287
  23011902.191   -14304281.82143 -10700607.57642  23011903.748    23011903.948
  21336492.055   -22498967.85843 -17523398.64942  21336493.978    21336493.061
 04  7 16  0  9  0.0000000  0  8G 3G16G13G27G23G 8G20G 1
  23974076.864    -8700585.54543  -6764803.96742  23974078.785    23974080.786
  22639355.221   -16201941.03443 -12571164.17042  22639357.003    22639355.394
  20592643.091   -26568575.96044 -20647847.97342  20592645.699    20592642.904
  22126121.732   -18014697.76743 -13992002.23442  22126123.783    22126123.235
  21274784.801   -23537435.45943 -18279118.03642  21274786.950    21274782.578
  24230849.451    -8764994.02643  -6817707.32842  24230850.093    24230853.166
  23032310.778   -14197034.54643 -10617038.37442  23032312.240    23032312.534
  21345781.958   -22450149.36143 -17485358.27942  21345783.847    21345782.940
 04  7 16  0  9 30.0000000  0  8G 3G16G13G27G23G 8G20G 1
  23961969.747    -8764208.46543  -6814380.18142  23961971.871    23961973.462
  22653322.643   -16128542.38543 -12513970.45442  22653324.352    22653322.725
  20585666.670   -26605237.35644 -20676415.28342  20585669.274    20585666.475
  22116307.097   -18066274.06843 -14032191.52542  22116309.129    22116308.490
  21285468.077   -23481294.92743 -18235372.18442  21285470.185    21285465.775
  24214130.745    -8852850.21543  -6886166.55242  24214131.486    24214134.516
  23052756.183   -14089593.47843 -10533318.16842  23052757.698    23052758.019
  21355128.973   -22401030.27043 -17447083.68542  21355130.868    21355130.039
 04  7 16  0 10  0.0000000  0  8G 3G16G13G27G23G 8G20G 1
  23949916.644    -8827547.98243  -6863735.53842  23949918.665    23949920.283
  22667366.493   -16054741.02543 -12456462.94642  22667368.248    22667366.689
  20578748.424   -26641592.82044 -20704744.20242  20578751.055    20578748.233
  22106528.865   -18117658.83443 -14072231.55942  22106530.869    22106530.291
  21296213.405   -23424827.81343 -18191371.86242  21296215.498    21296211.128
  24197436.221    -8940580.02643  -6954527.31242  24197436.993    24197439.872
  23073238.305   -13981959.08643 -10449447.31542  23073239.886    23073240.273
  21364533.747   -22351607.97443 -17408572.82842  21364535.659    21364534.830
 04  7 16  0 10 30.0000000  0  8G 3G16G13G27G23G 8G20G 1
  23937917.698    -8890601.25343  -6912867.87242  23937919.813    23937921.485
  22681486.626   -15980539.87643 -12398643.90442  22681488.314    22681486.766
  20571888.758   -26677640.81644 -20732833.54142  20571891.358    20571888.516
  22096787.058   -18168852.07843 -14112122.35142  22096789.048    22096788.458
  21307020.820   -23368034.33343 -18147117.22442  21307022.945    21307018.591
  24180765.736    -9028183.46543  -7022789.60442  24180766.565    24180769.241
  23093756.766   -13874133.80643 -10365427.73442  23093758.402    23093758.781
  21373996.312   -22301882.38943 -17369825.64242  21373998.203    21373997.324
 04  7 16  0 11  0.0000000  0  8G 3G16G13G27G23G 8G20G 1
  23925973.160    -8953369.53443  -6961778.12742  23925975.326    23925976.871
  22695681.578   -15905945.25543 -12340518.28142  22695683.223    22695681.732
  20565087.080   -26713384.04244 -20760685.40142  20565089.671    20565086.798
  22087080.917   -18219858.45443 -14151867.53742  22087082.839    22087082.277
  21317889.573   -23310918.68943 -18102611.55442  21317891.668    21317887.428
  24164118.835    -9115663.72543  -7090955.91242  24164119.550    24164122.192
  23114310.420   -13766124.64243 -10281264.83342  23114311.992    23114312.296
  21383515.752   -22251857.62343 -17330845.32542  21383517.669    21383516.746
 04  7 16  0 11 30.0000000  0  8G 3G16G13G27G23G 8G20G 1
  23914084.718    -9015843.43343  -7010458.99542  23914086.853    23914088.268
  22709952.183   -15830952.94843 -12282082.74442  22709953.871    22709952.182
  20558344.884   -26748814.56544 -20788293.59642  20558347.488    20558344.581
  22077411.431   -18270671.28443 -14191461.89942  22077413.403    22077412.948
  21328820.869   -23253474.77243 -18057850.08942  21328822.946    21328818.641
  24147496.473    -9203013.38643  -7159020.46142  24147497.396    24147499.952
  23134899.625   -13657927.93743 -10196955.83342  23134901.160    23134901.553
  21393093.311   -22201527.06743 -17291626.73342  21393095.238    21393094.410
 04  7 16  0 12  0.0000000  0  8G 3G16G13G27G23G 8G20G 1
  23902251.759    -9078025.60043  -7058912.54042  23902253.897    23902255.368
  22724296.829   -15755571.37543 -12223343.89142  22724298.572    22724296.858
  20551661.343   -26783936.68644 -20815661.47642  20551663.978    20551661.050
  22067777.775   -18321296.64743 -14230910.19842  22067779.718    22067779.225
  21339813.459   -23195708.66943 -18012837.56642  21339815.549    21339811.171
  24130897.953    -9290238.69243  -7226988.09142  24130898.743    24130901.199
  23155522.952   -13549552.36843 -10112507.44642  23155524.519    23155524.713
  21402728.027   -22150896.31543 -17252174.22542  21402729.967    21402729.101
 04  7 16  0 12 30.0000000  0  8G 3G16G13G27G23G 8G20G 1
  23890475.692    -9139908.72043  -7107133.05842  23890477.851    23890479.321
  22738715.923   -15679798.50143 -12164300.14342  22738717.670    22738716.098
  20545037.668   -26818744.35344 -20842784.32942  20545040.287    20545037.336
  22058180.540   -18371730.24543 -14270209.06342  22058182.503    22058181.996
  21350868.105   -23137615.99243 -17967570.57642  21350870.192    21350865.908
  24114324.059    -9377334.13943  -7294854.52842  24114324.874    24114327.300
  23176180.652   -13440995.63143 -10027917.89642  23176182.274    23176182.532
  21412420.768   -22099960.89843 -17212484.31742  21412422.726    21412421.828
 04  7 16  0 13  0.0000000  0  8G 3G16G13G27G23G 8G20G 1
  23878755.997    -9201495.82043  -7155122.90742  23878758.104    23878759.561
  22753207.998   -15603642.71443 -12104958.00542  22753209.744    22753208.014
  20538472.961   -26853241.86944 -20869665.50642  20538475.594    20538472.665
  22048618.668   -18421978.10243 -14309363.19642  22048620.665    22048620.106
  21361983.815   -23079202.86743 -17922053.88642  21361985.885    21361981.593
  24097774.247    -9464305.02843  -7362623.95142  24097774.945    24097777.088
  23196871.148   -13332266.86643  -9943194.29542  23196872.754    23196872.924
  21422170.316   -22048726.53443 -17172561.46342  21422172.288    21422171.382
 04  7 16  0 13 30.0000000  0  8G 3G16G13G27G23G 8G20G 1
  23867094.222    -9262777.91343  -7202875.09342  23867096.312    23867097.771
  22767773.600   -15527100.04643 -12045314.39442  22767775.413    22767773.541
  20531968.730   -26887421.92044 -20896299.30742  20531971.318    20531968.386
  22039093.202   -18472034.29143 -14348367.97042  22039095.243    22039094.656
  21373161.571   -23020463.35743 -17876282.86942  21373163.656    21373159.374
  24081249.083    -9551144.55643  -7430290.98842  24081249.889    24081252.034
  23217595.039   -13223362.51543  -9858333.86242  23217596.665    23217596.840
  21431977.937   -21997187.02443 -17132400.82742  21431979.915    21431979.039
 04  7 16  0 14  0.0000000  0  8G 3G16G13G27G23G 8G20G 1
  23855491.027    -9323753.23543  -7250388.23842  23855493.049    23855494.579
  22782412.008   -15450174.35243 -11985372.34842  22782413.839    22782412.054
  20525524.989   -26921283.86244 -20922685.22642  20525527.605    20525524.688
  22029603.972   -18521900.19443 -14387224.48442  22029606.022    22029605.445
  21384401.116   -22961399.16243 -17830258.84942  21384403.239    21384398.957
  24064748.735    -9637853.84343  -7497856.52942  24064749.597    24064751.794
  23238351.585   -13114286.31243  -9773339.53342  23238353.238    23238353.471
  21441843.549   -21945343.49043 -17092003.29542  21441845.461    21441844.561
 04  7 16  0 14 30.0000000  0  8G 3G16G13G27G23G 8G20G 1
  23843945.950    -9384422.71143  -7297663.06142  23843947.967    23843949.326
  22797122.221   -15372872.13743 -11925136.89542  22797124.012    22797122.301
  20519141.339   -26954830.25744 -20948825.27442  20519143.935    20519141.008
  22020150.246   -18571579.92343 -14425935.93242  22020152.282    22020151.690
  21395701.737   -22902014.23043 -17783984.90842  21395703.874    21395699.541
  24048272.552    -9724436.38943  -7565323.32142  24048273.382    24048275.785
  23259139.547   -13005045.24543  -9688216.74142  23259141.245    23259141.476
  21451766.167   -21893199.94843 -17051371.99442  21451768.125    21451767.130
 04  7 16  0 15  0.0000000  0  8G 3G16G13G27G23G 8G20G 1
  23832460.461    -9444778.64443  -7344693.57242  23832462.513    23832463.896
  22811904.457   -15295190.94243 -11864606.13242  22811906.204    22811904.449
  20512818.958   -26988054.70644 -20974714.44142  20512821.537    20512818.587
  22010732.801   -18621068.70343 -14464498.58442  22010734.843    22010734.242
  21407064.230   -22842304.23043 -17737457.67142  21407066.359    21407062.005
  24031821.504    -9810886.94543  -7632687.27142  24031822.358    24031824.558
  23279959.407   -12895637.04143  -9602963.71042  23279961.075    23279961.272
  21461746.696   -21840751.59543 -17010503.17842  21461748.722    21461747.774
 04  7 16  0 15 30.0000000  0  8G 3G16G13G27G23G 8G20G 1
  23821034.542    -9504821.90743  -7391480.42942  23821036.666    23821038.033
  22826757.665   -15217136.97943 -11803784.89542  22826759.396    22826757.709
  20506557.337   -27020959.58644 -21000354.59742  20506559.951    20506556.978
  22001350.960   -18670370.60243 -14502915.60942  22001352.970    22001352.354
  21418487.788   -22782273.14143 -17690680.23242  21418489.911    21418485.575
  24015394.993    -9897208.55143  -7699950.74542  24015395.821    24015397.965
  23300809.764   -12786068.27443  -9517585.56442  23300811.442    23300811.577
  21471784.598   -21788002.03043 -16969399.65642  21471786.570    21471785.753
 04  7 16  0 16  0.0000000  0  8G 3G16G13G27G23G 8G20G 1
  23809669.202    -9564547.23243  -7438019.54942  23809671.401    23809672.660
  22841681.849   -15138709.99143 -11742672.99342  22841683.707    22841681.992
  20500357.310   -27053540.86244 -21025742.58942  20500359.946    20500356.936
  21992005.107   -18719483.04443 -14541185.00342  21992007.135    21992006.523
  21429972.848   -22721918.51443 -17643650.68542  21429974.947    21429970.699
  23998993.690    -9983397.61643  -7767110.92642  23998994.523    23998996.573
  23321690.668   -12676338.90843  -9432082.28542  23321692.285    23321692.538
  21481880.370   -21734948.36443 -16928059.16542  21481882.321    21481881.566
 04  7 16  0 16 30.0000000  0  8G 3G16G13G27G23G 8G20G 1
  23798364.623    -9623953.10743  -7484309.76742  23798366.804    23798367.988
  22856676.142   -15059914.44843 -11681273.90842  22856677.995    22856676.309
  20494218.878   -27085798.56144 -21050878.44042  20494221.492    20494218.485
  21982695.013   -18768407.95243 -14579308.27042  21982697.033    21982696.383
  21441519.140   -22661242.25843 -17596370.52442  21441521.244    21441517.012
  23982617.235   -10069455.95143  -7834169.24742  23982618.101    23982620.083
  23342601.251   -12566453.47743  -9346457.40542  23342602.929    23342603.236
  21492033.719   -21681592.46243 -16886483.17542  21492035.620    21492034.874
 04  7 16  0 17  0.0000000  0  8G 3G16G13G27G23G 8G20G 1
  23787121.661    -9683035.02343  -7530347.52042  23787123.809    23787125.108
  22871740.459   -14980750.70243 -11619587.90842  22871742.301    22871740.691
  20488142.625   -27117729.33444 -21075759.54342  20488145.251    20488142.258
  21973420.895   -18817143.54643 -14617284.02442  21973422.899    21973422.292
  21453127.035   -22600242.82843 -17548838.53842  21453129.095    21453124.805
  23966265.984   -10155381.28143  -7901123.91642  23966266.846    23966268.890
  23363541.297   -12456412.73743  -9260711.49642  23363543.038    23363543.397
  21502244.906   -21627932.30043 -16844670.09642  21502246.843    21502246.051
 04  7 16  0 17 30.0000000  0  8G 3G16G13G27G23G 8G20G 1
  23775940.416    -9741791.83343  -7576131.94642  23775942.637    23775943.952
  22886874.065   -14901223.03343 -11557618.34042  22886875.938    22886874.370
  20482128.534   -27149333.43244 -21100386.09442  20482131.174    20482128.201
  21964182.450   -18865691.74543 -14655113.75242  21964184.456    21964183.886
  21464795.923   -22538922.43243 -17501056.44442  21464798.032    21464793.761
  23949940.118   -10241174.42843  -7967975.59342  23949941.003    23949942.829
  23384510.163   -12346221.17743  -9174848.05642  23384511.919    23384512.285
  21512513.789   -21573969.56543 -16802621.24842  21512515.647    21512514.827
 04  7 16  0 18  0.0000000  0  8G 3G16G13G27G23G 8G20G 1
  23764821.338    -9800221.88943  -7621661.77442  23764823.580    23764825.011
  22902076.377   -14821335.13443 -11495368.07642  22902078.088    22902076.638
  20476176.673   -27180610.72044 -21124757.99142  20476179.282    20476176.304
  21954979.382   -18914054.03743 -14692798.61342  21954981.380    21954980.798
  21476525.614   -22477282.55443 -17453025.40842  21476527.756    21476523.443
  23933638.952   -10326836.66843  -8034725.25542  23933639.855    23933641.616
  23405506.915   -12235882.70543  -9088870.16942  23405508.639    23405509.148
  21522839.924   -21519705.45043 -16760337.55842  21522841.810    21522840.948
 04  7 16  0 18 30.0000000  0  8G 3G16G13G27G23G 8G20G 1
  23753765.539    -9858321.08643  -7666933.81742  23753767.609    23753769.216
  22917346.856   -14741088.28443 -11432838.10542  22917348.641    22917347.128
  20470287.539   -27211558.40944 -21148873.05242  20470290.135    20470287.103
  21945811.897   -18962229.30743 -14730337.74242  21945813.917    21945813.251
  21488316.344   -22415322.20643 -17404744.65142  21488318.474    21488314.142
  23917363.202   -10412365.96343  -8101371.33042  23917364.042    23917365.817
  23426531.529   -12125399.03443  -9002779.11642  23426533.126    23426533.623
  21533223.655   -21465138.88943 -16717818.19442  21533225.485    21533224.657
 04  7 16  0 19  0.0000000  0  8G 3G16G13G27G23G 8G20G 1
  23742773.268    -9916085.69443  -7711945.11442  23742775.413    23742776.856
  22932685.313   -14660484.28043 -11370029.82942  22932687.096    22932685.582
  20464461.577   -27242173.97544 -21172729.32242  20464464.191    20464461.135
  21936680.093   -19010216.90443 -14767730.63742  21936682.103    21936681.482
  21500168.113   -22353040.83643 -17356213.74442  21500170.243    21500165.917
  23901112.958   -10497760.94043  -8167912.73242  23901113.880    23901115.487
  23447583.190   -12014771.79243  -8916576.18342  23447584.940    23447585.375
  21543665.050   -21410268.97643 -16675062.46042  21543666.894    21543666.103
 04  7 16  0 19 30.0000000  0  8G 3G16G13G27G23G 8G20G 1
  23731845.115    -9973512.58043  -7756693.24942  23731847.323    23731848.808
  22948091.360   -14579525.45143 -11306945.07842  22948093.053    22948091.610
  20458699.078   -27272455.86344 -21196325.57642  20458701.715    20458698.669
  21927584.063   -19058016.70943 -14804977.20142  21927586.051    21927585.427
  21512080.891   -22290438.65743 -17307432.85642  21512083.037    21512078.740
  23884888.290   -10583021.17343  -8234349.14842  23884889.293    23884890.913
  23468661.874   -11904003.45043  -8830263.30542  23468663.616    23468664.025
  21554164.316   -21355095.33743 -16632070.04442  21554166.184    21554165.341
 04  7 16  0 20  0.0000000  0  8G 3G16G13G27G23G 8G20G 1
  23720981.653   -10030600.12343  -7801176.96542  23720983.779    23720985.314
  22963564.292   -14498215.11843 -11243586.40942  22963566.028    22963564.473
  20453000.238   -27302403.58344 -21219661.44342  20453002.834    20452999.819
  21918523.557   -19105630.08543 -14842078.50442  21918525.558    21918524.893
  21524054.540   -22227517.11143 -17258403.11342  21524056.623    21524052.366
  23868689.281   -10668147.04843  -8300680.87442  23868690.254    23868691.833
  23489766.575   -11793097.94843  -8743843.58942  23489768.310    23489768.775
  21564721.054   -21299619.01843 -16588841.77242  21564722.958    21564722.097
 04  7 16  0 20 30.0000000  0  8G 3G16G13G27G23G 8G20G 1
  23710183.290   -10087345.87943  -7845394.35142  23710185.313    23710186.941
  22979103.440   -14416556.00543 -11179955.96542  22979105.296    22979103.683
  20447365.181   -27332015.92044 -21242735.97142  20447367.786    20447364.801
  21909498.387   -19153057.32343 -14879034.75942  21909500.408    21909499.801
  21536088.820   -22164276.75343 -17209124.94342  21536090.870    21536086.615
  23852515.862   -10753138.24043  -8366907.64542  23852516.799    23852518.508
  23510896.921   -11682058.13743  -8657319.18542  23510898.644    23510899.078
  21575335.398   -21243840.35643 -16545377.90642  21575337.317    21575336.440
 04  7 16  0 21  0.0000000  0  8G 3G16G13G27G23G 8G20G 1
  23699450.447   -10143746.82543  -7889343.06342  23699452.511    23699454.209
  22994708.573   -14334550.82243 -11116055.87342  22994710.362    22994708.843
  20441794.235   -27361291.42344 -21265548.03342  20441796.852    20441793.816
  21900508.636   -19200298.61743 -14915846.12342  21900510.645    21900510.067
  21548183.667   -22100717.95743 -17159598.63342  21548185.799    21548181.472
  23836368.175   -10837994.35243  -8433029.17142  23836368.975    23836370.806
  23532052.206   -11570886.83243  -8570692.34742  23532053.989    23532054.532
  21586007.276   -21187759.43243 -16501678.51842  21586009.168    21586008.345
 04  7 16  0 21 30.0000000  0  8G 3G16G13G27G23G 8G20G 1
  23688783.754   -10199800.56543  -7933021.22442  23688785.825    23688787.263
  23010379.060   -14252202.25743 -11051888.20242  23010380.838    23010379.318
  20436287.570   -27390228.84544 -21288096.66242  20436290.226    20436287.166
  21891554.221   -19247354.38243 -14952512.91442  21891556.211    21891555.572
  21560339.124   -22036841.20543 -17109824.57442  21560341.196    21560336.835
  23820246.116   -10922715.55843  -8499045.56042  23820246.947    23820248.814
  23553231.976   -11459586.89943  -8483965.26942  23553233.673    23553234.368
  21596736.602   -21131376.60343 -16457743.87642  21596738.533    21596737.669
 04  7 16  0 22  0.0000000  0  8G 3G16G13G27G23G 8G20G 1
  23678184.019   -10255502.17943  -7976425.00242  23678186.063    23678187.302
  23026114.701   -14169510.55243 -10987453.15342  23026116.499    23026115.058
  20430845.970   -27418824.70644 -21310379.13742  20430848.612    20430845.549
  21882635.398   -19294222.78043 -14989033.70942  21882637.401    21882636.823
  21572555.217   -21972644.72343 -17059801.36742  21572557.368    21572553.045
  23804150.386   -11007298.99243  -8564954.59942  23804151.212    23804153.138
  23574436.058   -11348158.92643  -8397138.41642  23574437.727    23574438.368
  21607523.784   -21074689.66643 -16413572.26342  21607525.760    21607524.903
 04  7 16  0 22 30.0000000  0  8G 3G16G13G27G23G 8G20G 1
  23667651.777   -10310850.45143  -8019553.44542  23667653.698    23667654.751
  23041914.891   -14086480.08543 -10922754.11342  23041916.704    23041915.307
  20425469.359   -27447078.87144 -21332395.35542  20425471.988    20425468.946
  21873751.929   -19340905.52143 -15025409.82742  21873753.943    21873753.368
  21584831.878   -21908130.43943 -17009530.53042  21584834.024    21584829.746
  23788080.483   -11091745.63643  -8630757.03542  23788081.415    23788083.369
  23595663.642   -11236607.36543  -8310215.26242  23595665.233    23595665.935
  21618368.558   -21017700.18543 -16369164.90242  21618370.503    21618369.667
 04  7 16  0 23  0.0000000  0  8G 3G16G13G27G23G 8G20G 1
  23657186.890   -10365843.13543  -8062404.81242  23657188.742    23657189.950
  23057778.998   -14003113.67943 -10857793.33142  23057780.813    23057779.475
  20420157.997   -27474990.10344 -21354144.35642  20420160.616    20420157.554
  21864903.744   -19387403.03643 -15061641.61842  21864905.743    21864905.139
  21597168.940   -21843299.30543 -16959012.79042  21597171.026    21597166.717
  23772036.790   -11176055.69443  -8696453.06742  23772037.641    23772039.533
  23616914.211   -11124935.35543  -8223198.26542  23616915.726    23616916.501
  21629270.812   -20960408.64443 -16324522.16842  21629272.731    21629271.923
 04  7 16  0 23 30.0000000  0  8G 3G16G13G27G23G 8G20G 1
  23646790.176   -10420477.83243  -8104977.24042  23646792.085    23646793.329
  23073706.601   -13919414.43643 -10792573.18042  23073708.329    23073706.866
  20414912.095   -27502557.72844 -21375625.61642  20414914.687    20414911.567
  21856090.579   -19433716.10943 -15097729.68742  21856092.601    21856092.054
  21609566.091   -21778152.20243 -16908248.84242  21609568.160    21609563.828
  23756019.119   -11260228.93843  -8762042.49642  23756019.936    23756021.673
  23638187.053   -11013146.01443  -8136089.83242  23638188.547    23638189.375
  21640230.412   -20902815.62643 -16279644.51442  21640232.335    21640231.508
 04  7 16  0 24  0.0000000  0  8G 3G16G13G27G23G 8G20G 1
  23636462.524   -10474749.47743  -8147266.76442  23636464.512    23636465.653
  23089697.278   -13835382.32843 -10727093.63742  23089699.154    23089697.617
  20409732.249   -27529777.86344 -21396836.10542  20409734.863    20409731.752
  21847313.000   -19479842.57443 -15133672.34342  21847315.019    21847314.447
  21622023.697   -21712687.07943 -16857237.08842  21622025.793    21622021.425
  23740027.889   -11344263.04143  -8827523.49542  23740028.733    23740030.358
  23659482.289   -10901239.53143  -8048890.12942  23659483.621    23659484.637
  21651247.857   -20844918.60843 -16234529.99142  21651249.780    21651248.991
 04  7 16  0 24 30.0000000  0  8G 3G16G13G27G23G 8G20G 1
  23626203.816   -10528659.32743  -8189274.37842  23626205.805    23626206.880
  23105750.117   -13751023.98543 -10661359.90842  23105751.950    23105750.455
  20404618.085   -27556653.00744 -21417777.76442  20404620.672    20404617.570
  21838570.120   -19525786.65443 -15169472.88242  21838572.149    21838571.478
  21634540.950   -21646908.51343 -16805981.09742  21634543.052    21634538.736
  23724062.522   -11428161.11643  -8892898.48842  23724063.373    23724064.944
  23680798.685   -10789222.67343  -7961604.41542  23680799.850    23680800.913
  21662322.332   -20786721.89143 -16189181.92442  21662324.244    21662323.484
 04  7 16  0 25  0.0000000  0  8G 3G16G13G27G23G 8G20G 1
  23616014.995   -10582201.48643  -8230995.47642  23616017.012    23616018.085
  23121865.211   -13666338.84743 -10595371.54442  23121866.911    23121865.474
  20399570.440   -27583178.55744 -21438447.01442  20399573.032    20399569.935
  21829862.462   -19571545.35343 -15205128.96942  21829864.511    21829863.862
  21647118.347   -21580813.77943 -16754478.73642  21647120.474    21647116.146
  23708123.780   -11511919.64443  -8958164.76542  23708124.674    23708126.139
  23702135.876   -10677095.22143  -7874232.54442  23702137.048    23702138.221
  21673454.448   -20728222.43243 -16143597.96742  21673456.349    21673455.652
 04  7 16  0 25 30.0000000  0  8G 3G16G13G27G23G 8G20G 1
  23605896.535   -10635373.45943  -8272428.09942  23605898.625    23605899.778
  23138042.080   -13581329.47343 -10529130.49742  23138043.751    23138042.359
  20394589.586   -27609353.00244 -21458842.68142  20394592.207    20394589.127
  21821190.073   -19617118.88643 -15240640.76042  21821192.112    21821191.475
  21659755.815   -21514403.32243 -16702730.36442  21659757.974    21659753.690
  23692211.552   -11595538.68143  -9023322.33742  23692212.394    23692213.914
  23723493.652   -10564859.74543  -7786776.47242  23723494.937    23723496.127
  21684644.124   -20669420.40843 -16097778.23342  21684646.068    21684645.338
 04  7 16  0 26  0.0000000  0  8G 3G16G13G27G23G 8G20G 1
  23595848.892   -10688174.39843  -8313571.64142  23595851.038    23595852.095
  23154279.699   -13496000.47843 -10462640.40942  23154281.464    23154280.028
  20389675.352   -27635177.34744 -21478965.53642  20389677.958    20389674.960
  21812552.488   -19662509.56943 -15276010.07442  21812554.517    21812553.839
  21672452.981   -21447679.52243 -16650737.83042  21672455.080    21672450.866
  23676325.597   -11679019.48043  -9088372.20342  23676326.432    23676327.930
  23744871.210   -10452521.12043  -7699240.04942  23744872.470    23744873.628
  21695891.012   -20610318.04443 -16051724.47942  21695892.932    21695892.236
 04  7 16  0 26 30.0000000  0  8G 3G16G13G27G23G 8G20G 1
  23585872.937   -10740597.78943  -8354420.95542  23585874.986    23585876.126
  23170578.263   -13410350.39243 -10395900.13142  23170580.178    23170578.735
  20384828.908   -27660645.61744 -21498810.93842  20384831.490    20384828.515
  21803950.481   -19707713.32343 -15311233.74442  21803952.492    21803951.795
  21685210.450   -21380638.85343 -16598498.39142  21685212.540    21685208.315
  23660466.807   -11762357.43643  -9153310.76742  23660467.632    23660469.139
  23766268.596   -10340077.96443  -7611622.15742  23766269.931    23766270.985
  21707195.765   -20550911.22443 -16005433.48242  21707197.695    21707196.952
 04  7 16  0 27  0.0000000  0  8G 3G16G13G27G23G 8G20G 1
  23575968.809   -10792644.34743  -8394976.64642  23575970.850    23575972.004
  23186936.816   -13324385.28043 -10328914.34942  23186938.796    23186937.323
  20380049.811   -27685759.92344 -21518380.52242  20380052.413    20380049.399
  21795383.290   -19752734.11943 -15346314.83542  21795385.318    21795384.586
  21698027.450   -21313285.23543 -16546015.09142  21698029.494    21698025.335
  23644634.551   -11845556.03843  -9218140.72242  23644635.373    23644636.801
  23787684.686   -10227536.53343  -7523927.70942  23787685.925    23787687.037
  21718557.753   -20491203.58043 -15958908.08442  21718559.652    21718558.987
 04  7 16  0 27 30.0000000  0  8G 3G16G13G27G23G 8G20G 1
  23566136.539   -10844312.81643  -8435237.72142  23566138.699    23566139.651
  23203354.694   -13238109.18243 -10261686.26042  23203356.573    23203355.113
  20375338.072   -27710520.40644 -21537674.39542  20375340.658    20375337.617
  21786850.621   -19797573.40843 -15381254.49342  21786852.631    21786851.899
  21710903.603   -21245620.70343 -16493289.51342  21710905.661    21710901.467
  23628828.639   -11928616.14643  -9282862.76642  23628829.453    23628830.963
  23809118.581   -10114900.85043  -7436159.80142  23809119.900    23809121.082
  21729976.691   -20431196.77243 -15912149.56842  21729978.569    21729977.907
 04  7 16  0 28  0.0000000  0  8G 3G16G13G27G23G 8G20G 1
  23556377.256   -10895598.03343  -8475200.13842  23556379.351    23556380.375
  23219831.841   -13151521.75143 -10194215.57942  23219833.710    23219832.238
  20370694.469   -27734922.57444 -21556689.06242  20370697.070    20370694.054
  21778352.996   -19842228.67843 -15416050.75942  21778354.972    21778354.210
  21723839.385   -21177642.84943 -16440319.79642  21723841.420    21723837.231
  23613049.699   -12011534.58943  -9347474.43242  23613050.515    23613051.990
  23830570.434   -10002171.07143  -7348318.58242  23830571.806    23830573.097
  21741452.986   -20370888.27143 -15865155.96642  21741454.883    21741454.257
 04  7 16  0 28 30.0000000  0  8G 3G16G13G27G23G 8G20G 1
  23546691.161   -10946498.24143  -8514862.57342  23546693.345    23546694.278
  23236367.424   -13064626.88543 -10126505.33942  23236369.279    23236367.916
  20366119.066   -27758966.36644 -21575424.48142  20366121.684    20366118.630
  21769890.114   -19886701.21843 -15450704.64142  21769892.113    21769891.369
  21736834.518   -21109353.23443 -16387107.14642  21736836.529    21736832.369
  23597297.606   -12094311.85343  -9411976.07142  23597298.435    23597299.849
  23852039.528    -9889350.97143  -7260406.97742  23852040.965    23852042.150
  21752986.555   -20310279.16043 -15817928.12542  21752988.441    21752987.835
 04  7 16  0 29  0.0000000  0  8G 3G16G13G27G23G 8G20G 1
  23537079.452   -10997008.03243  -8554220.80142  23537081.626    23537082.540
  23252961.487   -12977424.28943 -10058555.30842  23252963.341    23252962.033
  20361612.622   -27782647.78244 -21593877.53042  20361615.248    20361612.190
  21761462.350   -19930988.70743 -15485214.32742  21761464.373    21761463.690
  21749889.284   -21040749.92743 -16333650.05942  21749891.336    21749887.169
  23581572.946   -12176945.06243  -9476365.48142  23581573.829    23581575.157
  23873525.802    -9776440.45443  -7172424.90942  23873527.259    23873528.504
  21764577.888   -20249366.84343 -15770464.01342  21764579.773    21764579.112
 04  7 16  0 29 30.0000000  0  8G 3G16G13G27G23G 8G20G 1
  23527541.734   -11047128.61343  -8593275.73642  23527543.909    23527544.866
  23269612.961   -12889920.15843  -9990370.30242  23269614.877    23269613.613
  20357174.830   -27805968.62044 -21612049.60842  20357177.454    20357174.418
  21753069.248   -19975094.68043 -15519582.57242  21753071.234    21753070.504
  21763003.119   -20971836.59643 -16279951.39542  21763005.174    21763000.989
  23565874.983   -12259437.90543  -9540645.49942  23565875.889    23565877.145
  23895028.060    -9663445.70243  -7084377.23442  23895029.461    23895030.791
  21776226.157   -20188155.19943 -15722766.66742  21776228.023    21776227.337
 04  7 16  0 30  0.0000000  0  8G 3G16G13G27G23G 8G20G 1
  23518079.063   -11096854.82343  -8632023.37742  23518081.256    23518082.192
  23286321.916   -12802114.52043  -9921950.38042  23286323.776    23286322.509
  20352806.314   -27828925.40344 -21629938.01242  20352808.926    20352805.912
  21744711.098   -20019016.98343 -15553807.70242  21744713.094    21744712.308
  21776176.162   -20902611.86143 -16226010.07742  21776178.229    21776174.057
  23550204.418   -12341786.95343  -9604813.48242  23550205.308    23550206.523
  23916546.199    -9550367.21643  -6996264.31242  23916547.566    23916549.101
  21787931.790   -20126642.00843 -15674834.34442  21787933.686    21787932.949
 04  7 16  0 30 30.0000000  0  8G 3G16G13G27G23G 8G20G 1
  23508691.346   -11146187.61243  -8670464.43742  23508693.434    23508694.367
  23303087.098   -12714013.53243  -9853300.28942  23303088.865    23303087.510
  20348506.696   -27851519.80444 -21647544.03342  20348509.336    20348506.344
  21736387.198   -20062759.42243 -15587892.67742  21736389.188    21736388.407
  21789407.799   -20833079.22843 -16171828.84042  21789409.872    21789405.726
  23534560.599   -12423995.18243  -9668871.72942  23534561.520    23534562.736
  23938079.415    -9437210.98043  -6908090.81142  23938080.703    23938082.254
  21799693.993   -20064830.84143 -15626669.83342  21799695.952    21799695.249
 04  7 16  0 31  0.0000000  0  8G 3G16G13G27G23G 8G20G 1
  23499379.276   -11195122.63543  -8708595.55842  23499381.402    23499382.302
  23319908.228   -12625617.67243  -9784420.45842  23319910.026    23319908.644
  20344276.652   -27873748.79544 -21664865.32142  20344279.289    20344276.303
  21728097.838   -20106320.06743 -15621835.99542  21728099.844    21728099.075
  21802698.317   -20763237.43843 -16117406.70042  21802700.371    21802696.214
  23518944.125   -12506060.36243  -9732818.51542  23518944.976    23518946.138
  23959627.085    -9323977.86043  -6819857.36842  23959628.386    23959629.913
  21811513.355   -20002720.02243 -15578271.82942  21811515.297    21811514.594
 04  7 16  0 31 30.0000000  0  8G 3G16G13G27G23G 8G20G 1
  23490143.757   -11243655.34243  -8746413.19042  23490145.851    23490146.718
  23336785.489   -12536927.84743  -9715311.54342  23336787.230    23336785.696
  20340116.781   -27895609.12444 -21681899.34042  20340119.413    20340116.438
  21719843.399   -20149697.40843 -15655636.48842  21719845.424    21719844.578
  21816047.850   -20693085.16543 -16062742.62442  21816049.954    21816045.782
  23503355.110   -12587980.27443  -9796652.09342  23503355.948    23503357.097
  23981189.210    -9210668.69043  -6731564.68942  23981190.472    23981192.098
  21823389.986   -19940307.92843 -15529639.06442  21823391.925    21823391.263
 04  7 16  0 32  0.0000000  0  8G 3G16G13G27G23G 8G20G 1
  23480984.970   -11291784.57143  -8783916.42342  23480987.018    23480988.035
  23353717.833   -12447947.77743  -9645976.48442  23353719.637    23353718.070
  20336027.110   -27917100.41544 -21698645.79442  20336029.748    20336026.790
  21711623.618   -20192892.74543 -15689295.15242  21711625.649    21711624.740
  21829456.146   -20622624.43943 -16007838.19542  21829458.283    21829454.036
  23487793.577   -12669756.06343  -9860373.37642  23487794.399    23487795.571
  24002765.089    -9097287.54443  -6643215.92142  24002766.401    24002768.064
  21835323.659   -19877595.99643 -15480772.64842  21835325.586    21835325.005
 04  7 16  0 32 30.0000000  0  8G 3G16G13G27G23G 8G20G 1
  23471903.422   -11339508.48343  -8821103.80442  23471905.399    23471906.439
  23370704.803   -12358680.95743  -9576417.97642  23370706.576    23370705.060
  20332007.793   -27938221.96144 -21715104.13742  20332010.406    20332007.467
  21703438.184   -20235907.26743 -15722812.92642  21703440.214    21703439.328
  21842922.844   -20551856.42743 -15952694.32342  21842924.970    21842920.731
  23472259.477   -12751388.01043  -9923982.58242  23472260.215    23472261.417
  24024353.864    -8983837.98643  -6554813.88542  24024355.210    24024356.848
  21847314.271   -19814585.24543 -15431673.39342  21847316.156    21847315.605
 04  7 16  0 33  0.0000000  0  8G 3G16G13G27G23G 8G20G 1
  23462899.423   -11386824.80143  -8857973.60742  23462901.400    23462902.332
  23387745.693   -12269130.36043  -9506638.33542  23387747.464    23387746.050
  20328059.030   -27958972.84844 -21731273.65942  20328061.632    20328058.670
  21695287.109   -20278741.34643 -15756190.09942  21695289.112    21695288.219
  21856447.808   -20480782.14443 -15897311.80042  21856449.980    21856445.768
  23456752.627   -12832876.22143  -9987479.77742  23456753.391    23456754.661
  24045955.293    -8870322.92843  -6466360.77442  24045956.603    24045958.143
  21859361.567   -19751276.28143 -15382341.76942  21859363.471    21859362.928
 04  7 16  0 33 30.0000000  0  9G 3G16G13G27G23G 8G20G 1G19
  23453973.787   -11433729.04243  -8894522.31542  23453975.773    23453976.713
  23404840.718   -12179296.30443  -9436637.82042  23404842.424    23404841.019
  20324181.462   -27979349.73144 -21747151.74942  20324184.043    20324181.041
  21687170.637   -20321393.25443 -15789425.31142  21687172.649    21687171.730
  21870031.392   -20409400.02143 -15841689.40442  21870033.552    21870029.360
  23441273.820   -12914218.20643 -10050863.04342  23441274.506    23441275.720
  24067568.966    -8756742.81043  -6377856.97742  24067570.319    24067571.969
  21871466.004   -19687667.25943 -15332776.33142  21871467.902    21871467.341
  24721424.228    -4562313.19353  -3503645.09952  24721426.030    24721427.081
 04  7 16  0 34  0.0000000  0  9G 3G16G13G27G23G 8G20G 1G19
  23445126.779   -11480220.63443  -8930749.45642  23445128.757    23445129.547
  23421988.708   -12089183.04943  -9366419.76242  23421990.512    23421989.095
  20320375.000   -27999352.89244 -21762738.62342  20320377.557    20320374.558
  21679088.521   -20363864.93243 -15822520.09142  21679090.534    21679089.552
  21883673.083   -20337712.51443 -15785829.03442  21883675.258    21883671.102
  23425822.335   -12995415.44843 -10114133.50942  23425823.169    23425824.286
  24089194.214    -8643102.32443  -6289306.15042  24089195.441    24089197.285
  21883627.104   -19623760.15843 -15282978.62442  21883628.984    21883628.435
  24705659.813    -4645155.19943  -3568197.11142  24705661.582    24705662.713
 04  7 16  0 34 30.0000000  0  9G 3G16G13G27G23G 8G20G 1G19
  23436358.934   -11526296.38343  -8966652.57642  23436360.861    23436361.568
  23439189.327   -11998792.53943  -9295985.64642  23439191.261    23439189.910
  20316640.065   -28018980.31744 -21778032.71242  20316642.596    20316639.563
  21671040.882   -20406155.76143 -15855473.94842  21671042.815    21671041.813
  21897372.926   -20265719.28043 -15729730.45042  21897375.110    21897371.028
  23410398.682   -13076466.62543 -10177290.16342  23410399.537    23410400.622
  24110830.602    -8529403.23843  -6200709.66342  24110831.835    24110833.826
  21895845.073   -19559554.37943 -15232948.18242  21895846.958    21895846.440
  24689902.639    -4727958.89843  -3632719.29542  24689904.456    24689905.545
 04  7 16  0 35  0.0000000  0  9G 3G16G13G27G23G 8G20G 1G19
  23427670.393   -11571954.33243  -9002230.12642  23427672.363    23427673.090
  23456442.266   -11908128.13943  -9225338.10042  23456444.154    23456442.680
  20312976.709   -28038231.14244 -21793033.35142  20312979.295    20312976.223
  21663027.393   -20448266.57943 -15888287.53842  21663029.372    21663028.361
  21911130.769   -20193421.67643 -15673394.69342  21911132.887    21911128.876
  23395002.840   -13157371.69743 -10240332.97342  23395003.726    23395004.748
  24132477.487    -8415649.04343  -6112070.23642  24132478.717    24132480.749
  21908119.623   -19495051.04443 -15182685.87742  21908121.504    21908121.043
  24674153.240    -4810722.27043  -3697210.05242  24674155.081    24674156.106
 04  7 16  0 35 30.0000000  0  9G 3G16G13G27G23G 8G20G 1G19
  23419061.929   -11617191.81543  -9037480.05242  23419063.933    23419064.726
  23473746.969   -11817192.08443  -9154478.86542  23473748.803    23473747.246
  20309385.417   -28057103.60144 -21807739.15242  20309387.958    20309384.908
  21655048.201   -20490197.50743 -15920960.95342  21655050.163    21655049.132
  21924946.489   -20120820.05143 -15616822.03442  21924948.566    21924944.523
  23379635.023   -13238130.45743 -10303261.78242  23379635.759    23379636.672
  24154134.322    -8301842.06143  -6023389.68442  24154135.725    24154137.722
  21920450.897   -19430250.07243 -15132191.64542  21920452.723    21920452.287
  24658411.938    -4893442.01743  -3761666.82442  24658413.985    24658414.943
 04  7 16  0 36  0.0000000  0  9G 3G16G13G27G23G 8G20G 1G19
  23410534.243   -11662004.73243  -9072399.15542  23410536.180    23410537.049
  23491102.964   -11725985.29743  -9083408.70742  23491104.876    23491103.412
  20305866.636   -28075594.99644 -21822148.02342  20305869.187    20305866.119
  21647103.518   -20531946.95443 -15953492.95842  21647105.463    21647104.445
  21938820.143   -20047913.55643 -15560011.81442  21938822.227    21938818.166
  23364295.309   -13318741.28543 -10366075.29542  23364296.047    23364296.905
  24175801.046    -8187983.51643  -5934668.95042  24175802.493    24175804.437
  21932839.040   -19365150.22943 -15081464.52942  21932840.877    21932840.406
  24642679.743    -4976113.63543  -3826086.05842  24642681.859    24642682.832
 04  7 16  0 36 30.0000000  0  9G 3G16G13G27G23G 8G20G 1G19
  23402086.969   -11706394.84243  -9106988.78942  23402088.966    23402089.881
  23508509.391   -11634514.16943  -9012132.55042  23508511.306    23508509.774
  20302419.902   -28093707.73444 -21836261.83742  20302422.452    20302419.384
  21639192.627   -20573519.08443 -15985886.79842  21639194.566    21639193.491
  21952751.034   -19974706.47343 -15502967.36842  21952753.083    21952749.062
  23348983.027   -13399207.52343 -10428776.15442  23348983.779    23348984.632
  24197476.266    -8074079.89543  -5845913.07842  24197477.788    24197479.736
  21945283.234   -19299755.64943 -15030507.74542  21945285.078    21945284.591
  24626956.812    -5058738.05543  -3890468.54842  24626958.686    24626959.649
 04  7 16  0 37  0.0000000  0  9G 3G16G13G27G23G 8G20G 1G19
  23393721.623   -11750355.13943  -9141243.51342  23393723.598    23393724.441
  23525966.419   -11542776.86243  -8940648.97142  23525968.373    23525966.842
  20299046.261   -28111436.06444 -21850076.10942  20299048.838    20299045.769
  21631316.184   -20614909.66643 -16018139.16642  21631318.182    21631317.069
  21966739.801   -19901194.99243 -15445685.72642  21966741.891    21966737.783
  23333699.315   -13479523.48143 -10491359.90342  23333700.152    23333700.899
  24219160.503    -7960129.22743  -5757120.54942  24219161.919    24219163.883
  21957784.259   -19234062.06943 -14979317.98042  21957786.191    21957785.720
  24611244.058    -5141307.60243  -3954808.23942  24611245.971    24611247.118
 04  7 16  0 37 30.0000000  0  9G 3G16G13G27G23G 8G20G 1G19
  23385438.016   -11793885.69543  -9175163.37142  23385440.069    23385440.700
  23543473.182   -11450778.44343  -8868961.93642  23543475.011    23543473.685
  20295745.654   -28128780.98144 -21863591.62242  20295748.205    20295745.139
  21623473.850   -20656121.20643 -16050252.02542  21623475.851    21623474.761
  21980785.984   -19827382.36443 -15388169.43342  21980788.053    21980783.914
  23318443.688   -13559691.98643 -10553828.76442  23318444.518    23318445.178
  24240852.623    -7846136.91043  -5668295.59742  24240854.084    24240856.042
  21970341.755   -19168072.29743 -14927897.41942  21970343.653    21970343.244
  24595541.949    -5223821.88343  -4019104.86642  24595543.957    24595544.964
 04  7 16  0 38  0.0000000  0  9G 3G16G13G27G23G 8G20G 1G19
  23377236.577   -11836984.25843  -9208746.61042  23377238.646    23377239.306
  23561029.223   -11358521.50343  -8797073.46742  23561030.863    23561029.713
  20292518.281   -28145741.16544 -21876807.34142  20292520.835    20292517.713
  21615665.525   -20697153.99143 -16082225.58642  21615667.513    21615666.483
  21994889.242   -19753269.14943 -15330418.91642  21994891.374    21994887.222
  23303216.026   -13639712.74943 -10616182.50542  23303216.917    23303217.722
  24262552.357    -7732105.52543  -5579440.19142  24262553.725    24262555.882
  21982955.511   -19101786.73443 -14876246.37442  21982957.405    21982957.080
  24579850.779    -5306278.07343  -4083356.25142  24579852.846    24579853.766
 04  7 16  0 38 30.0000000  0  9G 3G16G13G27G23G 8G20G 1G19
  23369117.804   -11879648.83843  -9241991.70142  23369119.938    23369120.454
  23578633.828   -11266008.85343  -8724985.73642  23578635.524    23578634.473
  20289364.216   -28162315.67944 -21889722.53542  20289366.777    20289363.668
  21607891.207   -20738008.64143 -16114060.34642  21607893.168    21607892.044
  22009049.516   -19678856.35743 -15272434.95942  22009051.683    22009047.552
  23288016.656   -13719586.07943 -10678421.35942  23288017.463    23288018.194
  24284258.866    -7618037.91443  -5490556.56042  24284260.235    24284262.468
  21995625.405   -19035205.92543 -14824365.26242  21995627.327    21995627.007
  24564171.429    -5388673.47943  -4147560.28442  24564173.493    24564174.345
 04  7 16  0 39  0.0000000  0  9G 3G16G13G27G23G 8G20G 1G19
  23361081.988   -11921876.93643  -9274896.65042  23361084.129    23361084.697
  23596286.732   -11173243.14543  -8652700.80142  23596288.360    23596287.294
  20286283.817   -28178503.23144 -21902336.20942  20286286.377    20286283.289
  21600150.737   -20778685.09643 -16145756.26542  21600152.703    21600151.495
  22023266.746   -19604144.55043 -15214218.00642  22023268.863    22023264.737
  23272845.374   -13799311.01843 -10740544.57742  23272846.194    23272846.901
  24305971.985    -7503936.66543  -5401646.69842  24305973.162    24305975.298
  22008351.541   -18968330.06643 -14772254.24142  22008353.415    22008353.082
  24548504.297    -5471004.96143  -4211714.48042  24548506.268    24548507.059
 04  7 16  0 39 30.0000000  0  9G 3G16G13G27G23G 8G20G 1G19
  23353130.147   -11963663.85043  -9307457.84342  23353132.302    23353132.808
  23613987.577   -11080224.79643  -8580219.01442  23613989.195    23613988.176
  20283277.774   -28194300.09844 -21914645.45042  20283280.336    20283277.263
  21592444.467   -20819181.62443 -16177311.97242  21592446.425    21592445.225
  22037541.054   -19529132.32743 -15155766.96942  22037543.179    22037539.163
  23257702.757   -13878885.70143 -10802550.73042  23257703.583    23257704.225
  24327691.076    -7389802.52043  -5312711.21842  24327692.355    24327694.490
  22021134.128   -18901157.45743 -14719911.99242  22021135.977    22021135.608
  24532850.208    -5553267.28943  -4275814.82742  24532852.224    24532852.823
 04  7 16  0 40  0.0000000  0  9G 3G16G13G27G23G 8G20G 1G19
  23345262.507   -12005008.10343  -9339674.07942  23345264.656    23345265.124
  23631735.819   -10986956.71143  -8507542.64942  23631737.561    23631736.652
  20280346.161   -28209705.64244 -21926649.76642  20280348.729    20280345.685
  21584772.304   -20859499.00243 -16208728.08142  21584774.284    21584773.042
  22051872.337   -19453821.07143 -15097082.91642  22051874.450    22051870.500
  23242588.760   -13958309.51043 -10864439.30742  23242589.657    23242590.299
  24349415.770    -7275638.71843  -5223752.63242  24349417.098    24349419.219
  22033972.919   -18833689.19443 -14667339.36142  22033974.766    22033974.438
  24517209.500    -5635458.28443  -4339859.56142  24517211.674    24517212.372
 04  7 16  0 40 30.0000000  0  9G 3G16G13G27G23G 8G20G 1G19
  23337479.472   -12045908.67943  -9371544.60242  23337481.580    23337481.890
  23649530.925   -10893442.95143  -8434674.83642  23649532.604    23649531.709
  20277489.074   -28224719.87744 -21938349.16242  20277491.618    20277488.582
  21577133.979   -20899638.52843 -16240005.60842  21577135.949    21577134.690
  22066260.196   -19378212.77243 -15038167.39942  22066262.308    22066258.393
  23227503.337   -14037583.93343 -10926211.48442  23227504.098    23227504.796
  24371145.623    -7161449.08443  -5134773.90642  24371146.869    24371149.175
  22046867.697   -18765926.92243 -14614537.62142  22046869.543    22046869.178
  24501582.830    -5717576.02843  -4403847.24242  24501585.001    24501585.756
 04  7 16  0 41  0.0000000  0  9G 3G16G13G27G23G 8G20G 1G19
  23329781.038   -12086363.25143  -9403067.60442  23329783.258    23329783.608
  23667372.373   -10799685.70943  -8361617.28842  23667374.054    23667373.118
  20274706.788   -28239341.01244 -21949742.25242  20274709.336    20274706.258
  21569529.500   -20939600.18143 -16271144.53342  21569531.463    21569530.243
  22080704.487   -19302307.52543 -14979020.49842  22080706.603    22080702.735
  23212446.362   -14116708.40543 -10987866.81142  23212447.187    23212447.855
  24392879.851    -7047235.89543  -5045776.86242  24392881.062    24392883.544
  22059818.492   -18697870.45043 -14561506.65242  22059820.324    22059819.971
  24485970.811    -5799617.31143  -4467775.36942  24485972.923    24485973.560
 04  7 16  0 41 30.0000000  0  9G 3G16G13G27G23G 8G20G 1G19
  23322168.167   -12126369.35043  -9434241.15242  23322170.275    23322170.605
  23685259.758   -10705687.65443  -8288372.11342  23685261.401    23685260.395
  20271999.433   -28253568.23544 -21960828.39942  20272001.995    20271998.890
  21561958.788   -20979384.24643 -16302145.07542  21561960.754    21561959.574
  22095205.111   -19226106.23943 -14919642.90742  22095207.240    22095203.378
  23197418.035   -14195682.22743 -11049404.75842  23197418.913    23197419.489
  24414618.100    -6933001.79743  -4956763.52642  24414619.339    24414621.860
  22072825.076   -18629520.44543 -14508246.94842  22072826.922    22072826.511
  24470373.883    -5881579.16643  -4531641.60242  24470375.948    24470376.589
 04  7 16  0 42  0.0000000  0  9G 3G16G13G27G23G 8G20G 1G19
  23314640.412   -12165927.66043  -9465065.76842  23314642.497    23314642.913
  23703191.840   -10611454.11843  -8214943.42942  23703193.422    23703192.435
  20269366.831   -28267402.73444 -21971608.52242  20269369.398    20269366.257
  21554421.343   -21018993.61743 -16333009.48942  21554423.296    21554422.158
  22109761.423   -19149612.60143 -14860037.51842  22109763.514    22109759.688
  23182417.904   -14274508.10343 -11110827.42942  23182418.750    23182419.327
  24436359.300    -6818752.65443  -4867738.45442  24436360.546    24436362.997
  22085886.931   -18560880.15143 -14454761.05342  22085888.780    22085888.353
  24454792.114    -5963461.47343  -4595445.85842  24454794.093    24454794.706
 04  7 16  0 42 30.0000000  0  9G 3G16G13G27G23G 8G20G 1G19
  23307199.786   -12205028.14343  -9495533.62042  23307201.853    23307202.301
  23721169.731   -10516979.83243  -8141327.16742  23721171.380    23721170.406
  20266810.693   -28280835.26244 -21982075.42142  20266813.240    20266810.119
  21546918.559   -21058420.91743 -16363732.02442  21546920.497    21546919.377
  22124374.774   -19072819.45843 -14800198.75742  22124376.799    22124373.000
  23167447.408   -14353177.88743 -11172128.46242  23167448.254    23167448.814
  24458104.186    -6704483.07743  -4778697.45642  24458105.488    24458107.919
  22099005.445   -18491942.04843 -14401043.08642  22099007.351    22099006.918
  24439227.328    -6045253.38943  -4659179.64842  24439229.466    24439230.007
 04  7 16  0 43  0.0000000  0  9G 3G16G13G27G23G 8G20G 1G19
  23299844.864   -12243678.23943  -9525650.53142  23299846.895    23299847.444
  23739191.170   -10422277.02743  -8067532.82342  23739192.837    23739191.770
  20264329.449   -28293874.48644 -21992235.85442  20264331.995    20264328.840
  21539448.594   -21097675.70343 -16394320.13842  21539450.543    21539449.400
  22139043.084   -18995737.06743 -14740134.60642  22139045.134    22139041.309
  23152504.903   -14431700.89543 -11233315.11942  23152505.767    23152506.230
  24479850.703    -6590205.20343  -4689649.99742  24479851.940    24479854.510
  22112178.698   -18422716.17043 -14347100.89742  22112180.634    22112180.210
  24423678.799    -6126961.42943  -4722848.07042  24423680.933    24423681.290
 04  7 16  0 43 30.0000000  0  9G 3G16G13G27G23G 8G20G 1G19
  23292577.645   -12281867.44943  -9555408.30242  23292579.651    23292580.273
  23757257.053   -10327339.87143  -7993555.88342  23757258.786    23757257.641
  20261924.882   -28306510.55044 -22002082.13442  20261927.450    20261924.261
  21532013.002   -21136749.99743 -16424767.60942  21532014.953    21532013.797
  22153767.941   -18918357.89443 -14679839.19842  22153769.920    22153766.109
  23137591.970   -14510068.76643 -11294380.87842  23137592.813    23137593.236
  24501599.916    -6475913.28343  -4600591.60142  24501601.035    24501603.702
  22125408.267   -18353194.51443 -14292928.21542  22125410.176    22125409.765
  24408148.359    -6208574.16243  -4786442.25442  24408150.473    24408150.839
 04  7 16  0 44  0.0000000  0  9G 3G16G13G27G23G 8G20G 1G19
  23285397.774   -12319596.97543  -9584807.87542  23285399.921    23285400.585
  23775366.406   -10232174.19443  -7919400.86142  23775368.214    23775367.100
  20259596.609   -28318745.78344 -22011616.07542  20259599.174    20259595.978
  21524611.025   -21175647.27343 -16455077.14542  21524612.991    21524611.885
  22168548.437   -18840685.93343 -14619315.63342  22168550.452    22168546.635
  23122707.856   -14588284.48543 -11355328.08942  23122708.730    23122709.114
  24523350.520    -6361613.29843  -4511526.94042  24523351.644    24523354.580
  22138693.382   -18283380.98343 -14238528.11142  22138695.250    22138694.867
  24392635.879    -6290092.15743  -4849962.60342  24392638.032    24392638.338
 04  7 16  0 44 30.0000000  0  9G 3G16G13G27G23G 8G20G 1G19
  23278305.405   -12356867.57143  -9613849.84942  23278307.498    23278308.178
  23793518.323   -10136785.51743  -7845072.07442  23793520.066    23793519.133
  20257344.276   -28330581.80944 -22020838.94642  20257346.837    20257343.659
  21517242.214   -21214370.62143 -16485251.15342  21517244.150    21517243.089
  22183383.929   -18762725.18343 -14558567.05142  22183385.922    22183382.071
  23107852.328   -14666350.32543 -11416158.51642  23107853.197    23107853.555
  24545101.804    -6247310.82843  -4422460.34042  24545102.848    24545105.860
  22152033.392   -18213278.88443 -14183903.13442  22152035.260    22152034.886
  24377141.331    -6371515.35143  -4913409.08742  24377143.410    24377143.817
 04  7 16  0 45  0.0000000  0  9G 3G16G13G27G23G 8G20G 1G19
  23271301.438   -12393674.09743  -9642530.21642  23271303.502    23271304.072
  23811712.682   -10041173.58943  -7770569.33742  23811714.465    23811713.645
  20255168.740   -28342014.28244 -22029747.35742  20255171.299    20255168.130
  21509907.018   -21252917.33743 -16515287.52042  21509908.950    21509907.892
  22198274.849   -18684473.30843 -14497591.61042  22198276.900    22198272.966
  23093026.033   -14744262.93143 -11476869.53242  23093026.796    23093027.204
  24566853.580    -6133005.74243  -4333391.68942  24566854.481    24566857.721
  22165428.800   -18142885.66143 -14129051.32242  22165430.658    22165430.355
  24361666.039    -6452837.74843  -4976777.01442  24361668.079    24361668.674
 04  7 16  0 45 30.0000000  0  9G 3G16G13G27G23G 8G20G 1G19
  23264386.111   -12430014.14643  -9670847.08042  23264388.200    23264388.807
  23829949.115    -9945340.59243  -7695894.32942  23829950.914    23829950.115
  20253070.259   -28353041.81244 -22038340.22842  20253072.855    20253069.618
  21502605.474   -21291287.20944 -16545186.09042  21502607.416    21502606.258
  22213221.047   -18605930.71843 -14436389.65142  22213223.092    22213219.175
  23078229.059   -14822021.86943 -11537460.82942  23078229.806    23078230.170
  24588605.328    -6018700.12643  -4244322.62242  24588606.321    24588609.522
  22178879.504   -18072201.63743 -14073972.90742  22178881.425    22178881.092
  24346210.430    -6534055.95443  -5040063.76442  24346212.530    24346213.271
 04  7 16  0 46  0.0000000  0  9G 3G16G13G27G23G 8G20G 1G19
  23257559.905   -12465885.59143  -9698798.80242  23257562.115    23257562.668
  23848227.181    -9849289.03943  -7621049.02642  23848228.975    23848228.223
  20251049.097   -28363662.95644 -22046616.43142  20251051.713    20251048.456
  21495337.528   -21329480.58744 -16574947.13342  21495339.464    21495338.224
  22228222.339   -18527098.29743 -14374961.83242  22228224.405    22228220.506
  23063460.928   -14899627.39343 -11597932.56542  23063461.859    23063462.199
  24610356.710    -5904396.74843  -4155255.30242  24610357.812    24610360.901
  22192385.499   -18001227.32343 -14018668.30242  22192387.403    22192387.123
  24330775.614    -6615166.93243  -5103266.99642  24330777.656    24330778.108
 04  7 16  0 46 30.0000000  0  9G 3G16G13G27G23G 8G20G 1G19
  23250822.889   -12501288.63643  -9726385.53742  23250825.037    23250825.589
  23866545.913    -9753023.69843  -7546037.13442  23866547.765    23866546.957
  20249105.051   -28373878.94944 -22054576.93342  20249107.664    20249104.412
  21488102.648   -21367499.84844 -16604572.49742  21488104.635    21488103.359
  22243278.259   -18447979.06343 -14313310.53842  22243280.332    22243276.485
  23048722.045   -14977080.72343 -11658285.71742  23048722.793    23048723.180
  24632106.695    -5790100.40843  -4066193.45942  24632107.791    24632110.934
  22205946.299   -17929965.28143 -13963139.48642  22205948.122    22205947.845
  24315361.142    -6696170.02843  -5166386.13442  24315363.181    24315363.560
 04  7 16  0 47  0.0000000  0  9G 3G16G13G27G23G 8G20G 1G19
  23244176.226   -12536217.46843  -9753602.78342  23244178.230    23244178.815
  23884905.750    -9656543.12843  -7470857.52342  23884907.398    23884906.606
  20247239.080   -28383684.60044 -22062217.69042  20247241.688    20247238.461
  21480901.727   -21405341.18344 -16634059.22942  21480903.691    21480902.379
  22258389.345   -18368569.85743 -14251433.27542  22258391.432    22258387.552
  23034012.847   -15054377.74143 -11718517.05742  23034013.545    23034014.078
  24653855.619    -5675809.79943  -3977136.08442  24653856.627    24653860.106
  22219562.424   -17858412.19143 -13907383.88342  22219564.247    22219564.025
  24299968.615    -6777058.07143  -5229415.64242  24299970.494    24299970.931
 04  7 16  0 47 30.0000000  0  9G 3G16G13G27G23G 8G20G 1G19
  23237619.327   -12570673.24443  -9780451.38042  23237621.388    23237622.192
  23903305.261    -9559853.22843  -7395514.80242  23903306.966    23903306.082
  20245450.844   -28393081.92344 -22069540.26842  20245453.459    20245450.228
  21473733.882   -21443008.16143 -16663410.08842  21473735.865    21473734.585
  22273554.782   -18288874.78943 -14189333.27542  22273556.842    22273553.098
  23019332.811   -15131521.60543 -11778629.07242  23019333.576    23019334.037
  24675602.455    -5561530.86843  -3888087.79742  24675603.298    24675606.941
  22233233.300   -17786571.64543 -13851404.28342  22233235.100    22233234.873
  24284597.930    -6857831.43443  -5292355.80342  24284599.754    24284600.278
 04  7 16  0 48  0.0000000  0  9G 3G16G13G27G23G 8G20G 1G19
  23231152.958   -12604654.46343  -9806930.21042  23231154.993    23231155.661
  23921744.064    -9462957.04543  -7320011.34342  23921745.703    23921744.754
  20243740.327   -28402070.57044 -22076544.39942  20243742.950    20243739.732
  21466599.080   -21480501.45344 -16692625.61142  21466601.054    21466599.822
  22288774.411   -18208895.35443 -14127011.67442  22288776.493    22288772.665
  23004681.814   -15208512.29843 -11838621.73042  23004682.647    23004683.120
  24697346.541    -5447266.64543  -3799050.95542  24697347.433    24697351.064
  22246958.616   -17714444.86043 -13795201.64142  22246960.441    22246960.161
  24269249.282    -6938487.67943  -5355204.70742  24269251.171    24269251.672
 04  7 16  0 48 30.0000000  0  9G 3G16G13G27G23G 8G20G 1G19
  23224777.858   -12638155.32343  -9833034.72442  23224779.976    23224780.592
  23940222.279    -9365853.36043  -7244346.21142  23940224.013    23940223.025
  20242108.583   -28410645.33944 -22083226.02442  20242111.207    20242108.012
  21459498.078   -21517817.47043 -16721702.99742  21459500.029    21459498.835
  22304048.718   -18128628.49743 -14064466.13342  22304050.778    22304047.025
  22990060.708   -15285346.26243 -11898492.25842  22990061.539    22990062.051
  24719087.760    -5333015.99443  -3710024.72942  24719088.745    24719092.473
  22260739.053   -17642028.55643 -13738773.39542  22260740.907    22260740.572
  24253924.369    -7019020.14243  -5417957.14842  24253926.266    24253926.652
 04  7 16  0 49  0.0000000  0  9G 3G16G13G27G23G 8G20G 1G19
  23218494.182   -12671176.68143  -9858765.61842  23218496.270    23218496.802
  23958738.903    -9268547.35643  -7168523.42242  23958740.710    23958739.779
  20240555.360   -28418807.73144 -22089586.31942  20240557.948    20240554.744
  21452430.168   -21554959.25844 -16750644.62242  21452432.143    21452430.940
  22319377.169   -18048077.78743 -14001699.39642  22319379.207    22319375.344
  22975469.118   -15362025.25643 -11958242.02642  22975469.963    22975470.356
  24740825.491    -5218784.33843  -3621013.30842  24740826.517    24740830.336
  22274573.793   -17569325.94143 -13682122.05642  22274575.722    22274575.432
  24238623.147    -7099428.41743  -5480612.84442  24238625.020    24238625.271
 04  7 16  0 49 30.0000000  0  9G 3G16G13G27G23G 8G20G 1G19
  23212302.304   -12703714.98843  -9884120.11742  23212304.357    23212304.753
  23977294.031    -9171040.11943  -7092543.80642  23977295.729    23977294.816
  20239081.049   -28426555.16244 -22095623.27442  20239083.629    20239080.452
  21445395.652   -21591925.47143 -16779449.43342  21445397.631    21445396.463
  22334759.574   -17967242.57443 -13938710.96842  22334761.666    22334757.819
  22960907.233   -15438547.72343 -12017869.83442  22960908.065    22960908.565
  24762559.392    -5104572.76643  -3532017.51742  24762560.547    24762564.299
  22288463.372   -17496336.13743 -13625246.93042  22288465.244    22288465.007
  24223346.297    -7179707.92643  -5543168.18642  24223348.303    24223348.394
 04  7 16  0 50  0.0000000  0  8G 3G16G13G27G23G 8G 1G19
  23206205.489   -12735753.19443  -9909084.91742  23206207.594    23206207.853
  23995889.770    -9073319.05843  -7016397.58542  23995891.398    23995890.501
  20237688.804   -28433871.37444 -22101324.21242  20237691.396    20237688.197
  21438397.471   -21628701.12244 -16808105.75942  21438399.435    21438398.222
  22350198.862   -17886108.92843 -13875489.98942  22350200.922    22350197.114
  22946377.954   -15514899.16043 -12077364.36642  22946378.795    22946379.332
  22302410.300   -17423044.62043 -13568136.70742  22302412.179    22302412.025
  24208097.544    -7259840.65143  -5605609.13742  24208099.451    24208099.411
 04  7 16  0 50 30.0000000  0  8G 3G16G13G27G23G 8G 1G19
  23200197.591   -12767324.54443  -9933685.92142  23200199.655    23200199.930
  24014518.957    -8975421.74743  -6940114.04142  24014520.611    24014519.845
  20236372.200   -28440790.10244 -22106715.42842  20236374.774    20236371.595
  21431428.911   -21665321.28144 -16836640.92342  21431430.866    21431429.629
  22365688.031   -17804712.41043 -13812064.18642  22365690.081    22365686.418
  22931874.777   -15591113.92543 -12136752.40342  22931875.548    22931876.074
  22316407.945   -17349486.86343 -13510819.01942  22316409.814    22316409.635
  24192870.495    -7339858.42743  -5667960.53042  24192872.420    24192872.379
 04  7 16  0 51  0.0000000  0  8G 3G16G13G27G23G 8G 1G19
  23194283.120   -12798405.62743  -9957904.90242  23194285.077    23194285.383
  24033185.342    -8877329.49143  -6863678.57342  24033186.998    24033186.324
  20235135.468   -28447289.10044 -22111779.57642  20235138.039    20235134.889
  21424493.907   -21701765.00643 -16865038.60142  21424495.837    21424494.620
  22381231.248   -17723032.70043 -13748417.70442  22381233.252    22381229.568
  22917401.769   -15667169.55143 -12196016.43342  22917402.605    22917402.991
  22330460.179   -17275641.98843 -13453277.60142  22330462.123    22330461.871
  24177669.976    -7419736.96243  -5730203.41242  24177671.870    24177671.906
 04  7 16  0 51 30.0000000  0  8G 3G16G13G27G23G 8G 1G19
  23188461.341   -12828998.47943  -9981743.46242  23188463.354    23188463.722
  24051887.777    -8779048.40343  -6787095.97942  24051889.401    24051888.621
  20233978.129   -28453370.83144 -22116518.58242  20233980.694    20233977.587
  21417591.699   -21738036.10343 -16893301.76242  21417593.647    21417592.406
  22396827.447   -17641074.38843 -13684554.13842  22396829.465    22396825.821
  22902958.361   -15743069.75343 -12255159.35542  22902959.148    22902959.510
  22344566.327   -17201514.34543 -13395515.86042  22344568.244    22344567.917
  24162495.861    -7499476.81843  -5792338.25342  24162497.697    24162497.780
 04  7 16  0 52  0.0000000  0  8G 3G16G13G27G23G 8G 1G19
  23182733.485   -12859098.43043 -10005197.92542  23182735.473    23182735.750
  24070626.119    -8680578.18943  -6710365.99342  24070627.761    24070627.034
  20232901.000   -28459031.32444 -22120929.35142  20232903.541    20232900.401
  21410722.962   -21774131.90644 -16921428.33642  21410724.858    21410723.572
  22412477.116   -17558835.33943 -13620471.81342  22412479.148    22412475.466
  22888545.052   -15818811.92843 -12314179.16342  22888545.832    22888546.055
  22358726.582   -17127101.81743 -13337532.11442  22358728.533    22358728.206
  24147349.336    -7579072.37343  -5854360.63842  24147351.180    24147351.282
 04  7 16  0 52 30.0000000  0  8G 3G16G13G27G23G 8G 1G19
  23177099.630   -12888704.55543 -10028267.59542  23177101.593    23177101.918
  24089399.686    -8581922.17843  -6633491.25042  24089401.339    24089400.829
  20231904.062   -28464270.45044 -22125011.78742  20231906.602    20231903.385
  21403887.202   -21810053.61544 -16949419.24842  21403889.170    21403887.861
  22428179.694   -17476317.62543 -13556172.35042  22428181.777    22428178.155
  22874161.660   -15894396.91343 -12373076.47842  22874162.410    22874162.597
  22372940.677   -17052406.06343 -13279327.67142  22372942.657    22372942.389
  24132230.507    -7658521.54143  -5916268.96742  24132232.410    24132232.317
 04  7 16  0 53  0.0000000  0  8G 3G16G13G27G23G 8G 1G19
  23171560.073   -12917815.05643 -10050951.07042  23171562.037    23171562.357
  24108208.196    -8483082.80043  -6556473.61842  24108209.901    24108209.313
  20230987.473   -28469087.10844 -22128765.02842  20230990.015    20230986.799
  21397084.648   -21845801.24844 -16977274.51642  21397086.602    21397085.245
  22443935.242   -17393522.05443 -13491656.36442  22443937.313    22443933.627
  22859808.330   -15969823.59643 -12431850.43342  22859809.103    22859809.357
  22387208.600   -16977427.49143 -13220902.86642  22387210.600    22387210.431
  24117140.210    -7737821.25943  -5978060.84142  24117142.034    24117141.938
 04  7 16  0 53 30.0000000  0  8G 3G16G13G27G23G 8G 1G19
  23166115.005   -12946429.31743 -10073247.86442  23166116.998    23166117.159
  24127050.916    -8384063.87143  -6479316.08542  24127052.649    24127052.062
  20230151.316   -28473481.34844 -22132189.11442  20230153.852    20230150.603
  21390314.924   -21881376.27843 -17004995.28542  21390316.855    21390315.516
  22459743.218   -17310450.67343 -13426925.48142  22459745.291    22459741.596
  22845484.965   -16045093.37243 -12490502.11942  22845485.703    22845485.875
  22401530.161   -16902167.83543 -13162259.03442  22401532.141    22401531.939
  24102078.559    -7816969.44643  -6039734.63342  24102080.470    24102080.329
 04  7 16  0 54  0.0000000  0  8G 3G16G13G27G23G 8G 1G19
  23160764.504   -12974546.35943 -10095157.19242  23160766.525    23160766.624
  24145927.085    -8284868.70943  -6402021.24342  24145928.907    24145928.327
  20229395.591   -28477452.75944 -22135283.72042  20229398.127    20229394.871
  21383577.848   -21916779.51744 -17032582.19442  21383579.810    21383578.468
  22475603.356   -17227105.51843 -13361981.25642  22475605.424    22475601.712
  22831191.355   -16120206.71643 -12549031.91542  22831192.108    22831192.219
  22415904.824   -16826628.60043 -13103397.34442  22415906.738    22415906.559
  24087046.432    -7895964.08643  -6101288.78242  24087048.237    24087048.044
 04  7 16  0 54 30.0000000  0  8G 3G16G13G27G23G 8G 1G19
  23155509.793   -13002159.64843 -10116674.02042  23155511.812    23155512.037
  24164837.271    -8185495.13743  -6324587.36542  24164839.073    24164838.562
  20228721.345   -28480995.74744 -22138044.48642  20228723.903    20228720.649
  21376874.325   -21952006.72144 -17060031.93442  21376876.240    21376874.908
  22491516.258   -17143482.83543 -13296820.77542  22491518.304    22491514.557
  22816928.431   -16195158.48743 -12607435.80842  22816929.232    22816929.355
  22430333.468   -16750805.82643 -13044314.71542  22430335.342    22430335.225
  24072044.740    -7974797.46143  -6162717.28542  24072046.633    24072046.402
 04  7 16  0 55  0.0000000  0  8G 3G16G13G27G23G 8G 1G19
  23150350.184   -13029273.12843 -10137801.35442  23150352.253    23150352.515
  24183780.159    -8085951.13943  -6247020.65742  24183781.842    24183781.165
  20228127.749   -28484114.99744 -22140475.06542  20228130.313    20228127.082
  21370203.142   -21987063.53344 -17087348.89842  21370205.095    21370203.814
  22507480.740   -17059588.98243 -13231449.00542  22507482.799    22507479.119
  22802695.328   -16269954.05743 -12665717.99442  22802696.136    22802696.182
  22444814.909   -16674705.75843 -12985016.01442  22444816.741    22444816.612
  24057073.522    -8053472.26743  -6224022.19742  24057075.370    24057074.856
 04  7 16  0 55 30.0000000  0  8G 3G16G13G27G23G 8G 1G19
  23145286.506   -13055883.18743 -10158536.41442  23145288.504    23145288.762
  24202755.206    -7986237.63143  -6169321.86642  24202756.776    24202756.101
  20227615.401   -28486807.59544 -22142573.19342  20227617.935    20227614.712
  21363564.747   -22021948.46944 -17114531.94042  21363566.686    21363565.423
  22523496.939   -16975423.10943 -13165865.25442  22523499.008    22523495.436
  22788492.216   -16344591.73643 -12723877.14742  22788493.042    22788493.036
  22459349.330   -16598327.20043 -12925500.31042  22459351.194    22459351.049
  24042133.208    -8131983.58343  -6285199.74842  24042135.146    24042134.441
 04  7 16  0 56  0.0000000  0  8G 3G16G13G27G23G 8G 1G19
  23140319.228   -13081985.80243 -10178876.09842  23140321.251    23140321.604
  24221762.320    -7886354.31043  -6091490.77242  24221763.968    24221763.256
  20227184.841   -28489069.95644 -22144336.07042  20227187.427    20227184.190
  21356959.562   -22056658.82944 -17141578.94342  21356961.499    21356960.245
  22539565.439   -16890983.66043 -13100068.34042  22539567.396    22539563.757
  22774319.690   -16419068.43943 -12781910.85842  22774320.566    22774320.534
  22473937.095   -16521668.24343 -12865766.11442  22473938.923    22473938.787
  24027224.949    -8210325.86043  -6346245.55442  24027226.926    24027226.448
 04  7 16  0 56 30.0000000  0  9G 3G16G13G27G10G23G 8G 1G19
  23135448.483   -13107581.46843 -10198820.72442  23135450.497    23135450.954
  24240800.924    -7786305.76243  -6013530.94442  24240802.623    24240801.896
  20226836.035   -28490902.79344 -22145764.25042  20226838.636    20226835.406
  21350387.175   -22091197.02844 -17168491.79442  21350389.090    21350387.815
  24626439.233    -1871016.52853  -1402241.97152  24626440.930    24626441.827
  22555685.307   -16806273.58543 -13034060.54742  22555687.339    22555683.560
  22760177.502   -16493385.76643 -12839820.40642  22760178.365    22760178.298
  22488577.562   -16444731.58443 -12805815.52642  22488579.480    22488579.415
  24012349.311    -8288497.93043  -6407158.75442  24012351.230    24012350.756
 04  7 16  0 57  0.0000000  0  9G 3G16G13G27G10G23G 8G 1G19
  23130675.043   -13132665.88243 -10218366.96742  23130677.069    23130677.466
  24259871.031    -7686091.92343  -5935442.31142  24259872.813    24259872.044
  20226569.666   -28492302.80144 -22146855.16342  20226572.236    20226569.005
  21343847.973   -22125560.55744 -17195268.54742  21343849.926    21343848.597
  24610416.428    -1955215.06643  -1467851.15342  24610418.219    24610419.316
  22571856.763   -16721291.49443 -12967840.79642  22571858.934    22571855.091
  22746066.105   -16567541.25443 -12897603.82342  22746066.844    22746066.858
  22503271.412   -16367515.44743 -12745647.16442  22503273.278    22503273.217
  23997507.078    -8366494.48443  -6467935.19342  23997508.880    23997508.353
 04  7 16  0 57 30.0000000  0  9G 3G16G13G27G10G23G 8G 1G19
  23125998.466   -13157241.82843 -10237517.01742  23126000.473    23126000.785
  24278971.422    -7585719.56443  -5857230.14142  24278973.085    24278972.336
  20226384.994   -28493273.29944 -22147611.39142  20226387.564    20226384.319
  21337341.116   -22159754.16944 -17221912.89742  21337343.066    21337341.755
  24594460.422    -2039064.27643  -1533188.11342  24594461.965    24594463.258
  22588079.136   -16636042.50343 -12901413.07742  22588081.255    22588077.501
  22731984.825   -16641539.15943 -12955264.45642  22731985.490    22731985.528
  22518017.290   -16290024.88743 -12685264.96942  22518019.211    22518019.238
  23982698.016    -8444316.75143  -6528575.81542  23982699.808    23982699.187
 04  7 16  0 58  0.0000000  0  9G 3G16G13G27G10G23G 8G 1G19
  23121419.314   -13181304.97343 -10256267.46642  23121421.405    23121421.624
  24298101.694    -7485188.66043  -5778894.44142  24298103.490    24298102.687
  20226282.651   -28493810.95944 -22148030.34042  20226285.261    20226282.009
  21330867.085   -22193775.30244 -17248422.84242  21330869.024    21330867.735
  24578571.947    -2122559.12043  -1598248.95742  24578573.465    24578574.679
  22604352.463   -16550525.47143 -12834776.49542  22604354.590    22604350.953
  22717933.991   -16715376.31543 -13012799.83442  22717934.731    22717934.733
  22532815.960   -16212257.94343 -12624667.40242  22532817.810    22532817.833
  23967923.043    -8521959.21843  -6589076.33342  23967924.876    23967924.193
 04  7 16  0 58 30.0000000  0  9G 3G16G13G27G10G23G 8G 1G19
  23116937.958   -13204854.48543 -10274617.69642  23116940.068    23116940.287
  24317261.604    -7384502.64843  -5700437.89042  24317263.300    24317262.726
  20226262.779   -28493915.37444 -22148111.69942  20226265.404    20226262.117
  21324425.664   -22227625.07144 -17274799.25842  21324427.607    21324426.284
  24562751.217    -2205697.69243  -1663032.20342  24562752.705    24562754.064
  22620676.655   -16464741.99743 -12767932.27842  22620678.709    22620675.185
  22703913.593   -16789053.46343 -13070210.54142  22703914.334    22703914.316
  22547666.846   -16134216.23443 -12563855.73942  22547668.673    22547668.742
  23953182.722    -8599419.53043  -6649434.92742  23953184.572    23953183.699
 04  7 16  0 59  0.0000000  0  9G 3G16G13G27G10G23G 8G 1G19
  23112554.802   -13227887.77943 -10292565.68842  23112556.860    23112557.186
  24336450.908    -7283662.50343  -5621861.23942  24336452.591    24336452.090
  20226325.796   -28493584.24244 -22147853.67242  20226328.402    20226325.122
  21318017.045   -22261302.31744 -17301041.23442  21318019.006    21318017.683
  24546998.794    -2288476.17143  -1727534.82942  24547000.415    24547001.690
  22637051.479   -16378691.73743 -12700880.17942  22637053.531    22637050.073
  22689924.132   -16862569.27343 -13127495.51042  22689924.787    22689924.675
  22562570.145   -16055899.27443 -12502829.58342  22562572.012    22562572.020
  23938477.792    -8676693.71943  -6709648.48642  23938479.599    23938478.741
 04  7 16  0 59 30.0000000  0  9G 3G16G13G27G10G23G 8G 1G19
  23108270.437   -13250402.45143 -10310109.55042  23108272.398    23108272.785
  24355669.378    -7182669.74643  -5543165.67042  24355670.978    24355670.520
  20226471.966   -28492815.99344 -22147255.03142  20226474.576    20226471.306
  21311641.433   -22294806.30644 -17327148.21542  21311643.405    21311642.072
  24531315.542    -2370891.21243  -1791754.24942  24531317.326    24531318.613
  22653477.067   -16292375.11443 -12633620.52942  22653479.065    22653475.649
  22675965.433   -16935922.05743 -13184653.45642  22675966.122    22675965.938
  22577525.821   -15977306.83143 -12441588.79042  22577527.719    22577527.757
  23923809.123    -8753777.87943  -6769713.95342  23923810.827    23923810.104
 04  7 16  1  0  0.0000000  0  9G 3G16G13G27G10G23G 8G 1G19
  23104084.549   -13272399.39043 -10327249.98542  23104086.495    23104086.899
  24374915.883    -7081529.51443  -5464355.18842  24374917.455    24374917.007
  20226701.109   -28491612.07744 -22146316.91342  20226703.672    20226700.400
  21305298.301   -22328139.82044 -17353122.35442  21305300.232    21305298.859
  24515701.526    -2452942.99943  -1855690.62742  24515703.459    24515704.619
  22669952.771   -16205795.48443 -12566155.95642  22669954.663    22669951.269
  22662037.293   -17009114.60143 -13241686.53842  22662037.991    22662037.736
  22592533.334   -15898442.31143 -12380135.96442  22592535.159    22592535.239
  23909176.645    -8830671.44643  -6829630.91442  23909178.446    23909177.614
 04  7 16  1  0 30.0000000  0  9G 3G16G13G27G10G23G 8G 1G19
  23099997.301   -13293878.11843 -10343986.60642  23099999.267    23099999.630
  24394189.754    -6980244.96443  -5385432.23442  24394191.307    24394190.804
  20227013.113   -28489972.35544 -22145039.20242  20227015.675    20227012.442
  21298987.426   -22361303.47844 -17378964.13642  21298989.407    21298987.959
  24500157.212    -2534629.59443  -1919342.45542  24500159.201    24500160.119
  22686478.028   -16118954.83443 -12498487.97842  22686479.976    22686476.401
  22648139.614   -17082146.79943 -13298594.67042  22648140.314    22648140.092
  22607592.227   -15819307.00543 -12318472.14842  22607594.110    22607594.205
  23894580.879    -8907371.99543  -6889397.47942  23894582.714    23894581.963
 04  7 16  1  1  0.0000000  0  9G 3G16G13G27G10G23G 8G 1G19
  23096009.707   -13314833.18143 -10360315.18642  23096011.673    23096011.987
  24413491.269    -6878814.74143  -5306395.76642  24413492.847    24413492.401
  20227408.972   -28487891.98044 -22143418.12442  20227411.547    20227408.341
  21292709.573   -22394293.88544 -17404670.92142  21292711.518    21292710.110
  24484683.475    -2615944.80343  -1982704.86342  24484685.429    24484686.410
  22703053.467   -16031850.15643 -12430614.26342  22703055.467    22703051.916
  22634273.047   -17155015.42443 -13355375.34542  22634273.775    22634273.555
  22622703.398   -15739897.96943 -12256595.03642  22622705.187    22622705.281
  23880023.300    -8983872.75343  -6949008.34442  23880025.074    23880024.369
 04  7 16  1  1 30.0000000  0  9G 3G16G13G27G10G23G 8G 1G19
  23092121.560   -13335265.36743 -10376236.33742  23092123.557    23092123.872
  24432819.656    -6777243.67143  -5227249.53442  24432821.291    24432820.770
  20227888.434   -28485372.69244 -22141455.04042  20227890.985    20227887.696
  21286464.217   -22427113.59444 -17430244.69842  21286466.166    21286464.716
  24469280.321    -2696888.58443  -2045777.85042  24469282.240    24469283.323
  22719678.603   -15944485.10143 -12362537.65742  22719680.530    22719677.054
  22620437.346   -17227722.43643 -13412030.08942  22620438.065    22620437.787
  22637865.956   -15660218.49843 -12194507.19342  22637867.722    22637867.844
  23865503.639    -9060173.21543  -7008463.14742  23865505.452    23865504.758
 04  7 16  1  2  0.0000000  0  9G 3G16G13G27G10G23G 8G 1G19
  23088333.163   -13355173.24643 -10391748.93142  23088335.205    23088335.465
  24452174.442    -6675534.07243  -5147995.35742  24452176.069    24452175.428
  20228451.585   -28482413.14944 -22139148.90042  20228454.171    20228450.864
  21280251.282   -22459762.49744 -17455685.37342  21280253.247    21280251.804
  24453948.277    -2777458.14943  -2108559.22342  24453950.100    24453951.319
  22736353.055   -15856860.66143 -12294258.94342  22736355.062    22736351.480
  22606632.418   -17300267.21143 -13468558.39142  22606633.212    22606632.929
  22653079.888   -15580269.24943 -12132209.14342  22653081.661    22653081.713
  23851022.689    -9136270.43643  -7067759.59442  23851024.530    23851023.859
 04  7 16  1  2 30.0000000  0  9G 3G16G13G27G10G23G 8G 1G19
  23084644.708   -13374555.73043 -10406852.13542  23084646.795    23084647.050
  24471555.042    -6573688.52143  -5068635.26642  24471556.637    24471556.096
  20229098.646   -28479012.85844 -22136499.31542  20229101.226    20229097.902
  21274070.795   -22492241.19444 -17480993.42542  21274072.733    21274071.310
  24438687.891    -2857651.40343  -2171047.38542  24438689.864    24438690.949
  22753076.460   -15768978.29243 -12225779.23642  22753078.587    22753075.044
  22592858.438   -17372649.73443 -13524960.27942  22592859.241    22592858.985
  22668344.939   -15500051.23743 -12069701.66642  22668346.747    22668346.762
  23836581.027    -9212161.50043  -7126895.39742  23836582.863    23836582.339
 04  7 16  1  3  0.0000000  0  9G 3G16G13G27G10G23G 8G 1G19
  23081057.016   -13393409.52043 -10421543.36342  23081059.040    23081059.205
  24490961.411    -6471707.47743  -4989169.59342  24490963.099    24490962.579
  20229830.127   -28475168.95144 -22133504.06342  20229832.720    20229829.351
  21267923.061   -22524547.57744 -17506167.20742  21267925.018    21267923.645
  24423500.111    -2937463.67543  -2233238.67842  24423502.017    24423502.924
  22769849.350   -15680836.69043 -12157097.53742  22769851.451    22769847.942
  22579115.842   -17444867.77743 -13581233.99742  22579116.570    22579116.251
  22683661.359   -15419563.13143 -12006983.72042  22683663.205    22683663.237
  23822179.644    -9287841.48643  -7185866.71142  23822181.393    23822180.753
 04  7 16  1  3 30.0000000  0  9G 3G16G13G27G10G23G 8G 1G19
  23077570.208   -13411732.19743 -10435820.72942  23077572.317    23077572.448
  24510393.431    -6369592.20343  -4909599.33942  24510395.088    24510394.626
  20230646.393   -28470879.41644 -22130161.56942  20230648.996    20230645.629
  21261808.326   -22556680.80944 -17531206.06542  21261810.243    21261808.887
  24408385.404    -3016891.78043  -2295130.65242  24408387.388    24408388.198
  22786671.341   -15592436.17443 -12088214.09342  22786673.444    22786670.044
  22565404.695   -17516920.25643 -13637378.72242  22565405.482    22565405.017
  22699029.213   -15338804.70143 -11944055.15142  22699031.069    22699031.141
  23807819.100    -9363306.18543  -7244670.26242  23807820.844    23807820.131
 04  7 16  1  4  0.0000000  0  9G 3G16G13G27G10G23G 8G 1G19
  23074183.425   -13429529.86343 -10449689.01242  23074185.467    23074185.582
  24529849.053    -6267352.53343  -4829932.15142  24529850.643    24529850.435
  20231546.139   -28466150.88244 -22126476.99542  20231548.747    20231545.454
  21255725.060   -22588648.43344 -17556115.87842  21255726.975    21255725.617
  24393342.820    -3095940.84143  -2356727.22642  24393344.598    24393345.715
  22803541.153   -15503785.11143 -12019135.41742  22803543.202    22803539.940
  22551723.716   -17588813.70743 -13693399.50142  22551724.538    22551724.070
  22714446.886   -15257784.23243 -11880922.39242  22714448.738    22714448.837
  23793498.632    -9438560.20443  -7303309.64542  23793500.366    23793499.612
 04  7 16  1  4 30.0000000  0  9G 3G16G13G27G10G23G 8G 1G19
  23070898.291   -13446793.35743 -10463141.05142  23070900.247    23070900.372
  24549329.265    -6164983.02643  -4750163.77042  24549330.938    24549330.815
  20232531.124   -28460974.72744 -22122443.62642  20232533.724    20232530.434
  21249674.786   -22620442.83844 -17580890.71342  21249676.712    21249675.286
  24378374.381    -3174600.34243  -2418020.24042  24378376.104    24378377.200
  22820459.917   -15414876.76143 -11949856.25642  22820461.989    22820458.640
  22538074.315   -17660541.16843 -13749290.94642  22538075.115    22538074.694
  22729915.855   -15176494.73343 -11817579.99142  22729917.721    22729917.758
  23779220.353    -9513592.64443  -7361776.38142  23779222.119    23779221.253
 04  7 16  1  5  0.0000000  0  9G 3G16G13G27G10G23G 8G 1G19
  23067714.559   -13463524.07943 -10476177.94642  23067716.426    23067716.534
  24568833.138    -6062488.93343  -4670298.33542  24568834.856    24568834.736
  20233600.982   -28455352.66544 -22118062.80442  20233603.571    20233600.282
  21243656.920   -22652066.67744 -17605532.63942  21243658.859    21243657.415
  24363480.015    -3252870.30043  -2479009.70142  24363481.807    24363482.801
  22837426.904   -15325715.09043 -11880379.69942  22837428.936    22837425.540
  22524456.283   -17732104.50043 -13805054.50242  22524457.030    22524456.586
  22745435.360   -15094939.76243 -11754030.74442  22745437.173    22745437.237
  23764984.319    -9588403.07143  -7420070.12642  23764986.056    23764985.202
 04  7 16  1  5 30.0000000  0  9G 3G16G13G27G10G23G 8G 1G19
  23064632.336   -13479721.42543 -10488799.21842  23064634.194    23064634.282
  24588360.406    -5959872.94443  -4590337.87342  24588362.141    24588361.907
  20234755.718   -28449284.48444 -22113334.35042  20234758.299    20234755.012
  21237671.371   -22683520.66544 -17630042.21942  21237673.330    21237671.879
  24348660.078    -3330748.88643  -2539694.20742  24348661.975    24348662.755
  22854441.742   -15236301.65243 -11810706.97242  22854443.806    22854440.487
  22510869.376   -17803503.87243 -13860690.29542  22510870.108    22510869.685
  22761005.070   -15013120.64043 -11690275.64342  22761006.872    22761006.966
  23750790.949    -9662989.24643  -7478189.12042  23750792.579    23750791.919
 04  7 16  1  6  0.0000000  0  9G 3G16G13G27G10G23G 8G 1G19
  23061652.396   -13495380.97743 -10501001.44842  23061654.323    23061654.310
  24607911.057    -5857134.40043  -4510281.88642  24607912.791    24607912.356
  20235996.079   -28442766.30244 -22108255.25242  20235998.681    20235995.407
  21231718.731   -22714801.96744 -17654417.23842  21231720.674    21231719.227
  24333915.658    -3408230.85343  -2600069.70242  24333917.489    24333918.176
  22871504.945   -15146634.32543 -11740836.39042  22871507.003    22871503.612
  22497314.210   -17874736.20343 -13916195.92042  22497314.978    22497314.482
  22776625.365   -14931035.13143 -11626312.97342  22776627.261    22776627.407
  23736641.447    -9737345.14143  -7536128.69342  23736643.005    23736642.280
 04  7 16  1  6 30.0000000  0  9G 3G16G13G27G10G23G 8G 1G19
  23058774.254   -13510505.65143 -10512786.87542  23058776.226    23058776.143
  24627483.579    -5754280.10143  -4430135.72542  24627485.361    24627484.913
  20237321.428   -28435801.74744 -22102828.33042  20237324.017    20237320.732
  21225798.033   -22745914.98544 -17678661.13042  21225800.012    21225798.590
  24319246.266    -3485318.16743  -2660137.64842  24319248.181    24319248.908
  22888615.306   -15056718.91043 -11670772.51742  22888617.353    22888614.052
  22483790.132   -17945805.47543 -13971574.50442  22483790.874    22483790.325
  22792295.516   -14848688.45243 -11562146.79442  22792297.395    22792297.418
  23722535.629    -9811471.84643  -7593889.65342  23722537.250    23722536.379
 04  7 16  1  7  0.0000000  0  9G 3G16G13G27G10G23G 8G 1G19
  23055998.035   -13525095.11443 -10524155.25842  23055999.990    23055999.882
  24647077.578    -5651313.04743  -4349901.75542  24647079.207    24647078.859
  20238731.726   -28428390.63244 -22097053.44042  20238734.321    20238731.015
  21219909.309   -22776860.40944 -17702774.43042  21219911.252    21219909.852
  24304652.623    -3562008.91443  -2719896.57842  24304654.329    24304655.150
  22905772.571   -14966557.09443 -11600516.62542  22905774.676    22905771.342
  22470297.014   -18016711.99943 -14026826.27042  22470297.746    22470297.238
  22808015.121   -14766082.11143 -11497778.30242  22808016.944    22808016.945
  23708473.720    -9885367.29443  -7651470.43542  23708475.418    23708474.440
 04  7 16  1  7 30.0000000  0  9G 3G16G13G27G10G23G 8G 1G19
  23053325.125   -13539141.09843 -10535100.13042  23053327.145    23053327.052
  24666694.015    -5548228.16443  -4269575.95742  24666695.529    24666695.394
  20240228.550   -28420524.76844 -22090924.19542  20240231.155    20240227.836
  21214053.857   -22807631.03544 -17726751.51842  21214055.776    21214054.381
  24290136.035    -3638293.63943  -2779339.12142  24290137.736    24290138.564
  22922977.887   -14876142.68343 -11530063.90842  22922979.884    22922976.683
  22456836.256   -18087448.48443 -14081945.52442  22456836.986    22456836.555
  22823785.148   -14683209.72143 -11433202.48642  22823787.067    22823787.078
  23694457.911    -9959021.10443  -7708862.92442  23694459.577    23694458.546
 04  7 16  1  8  0.0000000  0  9G 3G16G13G27G10G23G 8G 1G19
  23050754.523   -13552648.75743 -10545625.55842  23050756.648    23050756.619
  24686331.277    -5445034.46043  -4189165.34842  24686332.734    24686332.585
  20241810.773   -28412210.09044 -22084445.22842  20241813.366    20241810.095
  21208230.362   -22838233.60944 -17750597.65542  21208232.302    21208230.904
  24275696.010    -3714176.33043  -2838468.42642  24275697.775    24275698.501
  22940229.877   -14785483.57243 -11459420.52542  22940231.789    22940228.614
  22443406.635   -18158021.17343 -14136937.15442  22443407.420    22443406.963
  22839604.478   -14600078.60543 -11368425.06042  22839606.358    22839606.417
  23680487.213   -10032436.81743  -7766069.86942  23680488.884    23680487.972
 04  7 16  1  8 30.0000000  0  9G 3G16G13G27G10G23G 8G 1G19
  23048287.264   -13565614.20143 -10555728.47342  23048289.317    23048289.370
  24705989.229    -5341731.48443  -4108669.56342  24705990.695    24705990.540
  20243479.111   -28403442.87044 -22077613.62542  20243481.706    20243478.455
  21202439.356   -22868665.43344 -17774310.74742  21202441.287    21202439.892
  24261333.419    -3789651.92943  -2897280.50442  24261335.220    24261335.956
  22957528.778   -14694577.90543 -11388585.01842  22957530.713    22957527.523
  22430008.806   -18228426.91443 -14191798.70142  22430009.577    22430009.064
  22855473.483   -14516686.83743 -11303444.55042  22855475.301    22855475.535
  23666562.960   -10105608.69343  -7823086.83342  23666564.690    23666563.767
 04  7 16  1  9  0.0000000  0  9G 3G16G13G27G10G23G 8G 1G19
  23045923.108   -13578038.17443 -10565409.47342  23045925.122    23045925.106
  24725667.097    -5238323.48743  -4028091.95142  24725668.788    24725668.437
  20245233.344   -28394224.34344 -22070430.36142  20245235.929    20245232.713
  21196680.463   -22898928.44344 -17797892.29342  21196682.365    21196680.983
  24247048.382    -3864719.82343  -2955774.89142  24247050.190    24247051.034
  22974873.968   -14603428.84743 -11317559.86042  22974875.900    22974872.666
  22416642.509   -18298667.29343 -14246531.39842  22416643.294    22416642.705
  22871391.523   -14433037.28743 -11238263.13842  22871393.418    22871393.630
  23652685.293   -10178535.92343  -7879913.15642  23652687.048    23652686.254
 04  7 16  1  9 30.0000000  0  9G 3G16G13G27G10G23G 8G 1G19
  23043662.277   -13589918.97143 -10574667.22442  23043664.253    23043664.234
  24745364.748    -5134812.09243  -3947433.77742  24745366.380    24745365.956
  20247073.695   -28384553.29444 -22062894.47842  20247076.260    20247073.051
  21190953.859   -22929022.04344 -17821341.83342  21190955.754    21190954.308
  24232841.433    -3939377.24243  -3013949.41442  24232843.033    24232843.994
  22992265.265   -14512036.80043 -11246345.33042  22992267.279    22992263.940
  22403307.726   -18368741.32943 -14301134.47542  22403308.539    22403308.083
  22887358.581   -14349130.33043 -11172881.17042  22887360.463    22887360.703
  23638854.897   -10251214.56943  -7936545.76742  23638856.662    23638855.841
 04  7 16  1 10  0.0000000  0  9G 3G16G13G27G10G23G 8G 1G19
  23041505.316   -13601253.78743 -10583499.51642  23041507.256    23041507.206
  24765081.955    -5031197.99043  -3866695.57542  24765083.689    24765083.205
  20249000.627   -28374427.18244 -22055003.99842  20249003.174    20248999.959
  21185259.741   -22958944.79544 -17844658.24942  21185261.638    21185260.211
  24218713.294    -4013620.37743  -3071801.13642  24218714.896    24218715.830
  23009702.918   -14420401.28043 -11174941.11742  23009704.925    23009701.763
  22390004.944   -18438647.35543 -14355606.63642  22390005.739    22390005.327
  22903374.749   -14264965.22643 -11107298.05542  22903376.602    22903376.932
  23625072.628   -10323640.16043  -7992981.21042  23625074.443    23625073.511
 04  7 16  1 10 30.0000000  0  8G 3G13G27G10G23G 8G 1G19
  23039453.037   -13612039.12343 -10591903.66442  23039454.889    23039454.750
  20251014.835   -28363842.39344 -22046756.10942  20251017.387    20251014.129
  21179598.676   -22988693.91144 -17867839.36042  21179600.555    21179599.167
  24204665.219    -4087443.67343  -3129325.73542  24204666.799    24204667.601
  23027187.156   -14328520.90243 -11103346.09342  23027189.256    23027186.091
  22376734.877   -18508382.39143 -14409945.54842  22376735.582    22376735.136
  22919440.358   -14180539.98643 -11041512.21142  22919442.221    22919442.503
  23611339.752   -10395807.04343  -8049215.05242  23611341.536    23611340.495
 04  7 16  1 11  0.0000000  0  8G 3G13G27G10G23G 8G 1G19
  23037503.837   -13622281.53143 -10599884.73342  23037505.775    23037505.731
  20253114.916   -28352806.40144 -22038156.63642  20253117.478    20253114.232
  21173969.129   -23018277.35244 -17890891.37342  21173971.016    21173969.599
  24190695.988    -4160852.73143  -3186527.50542  24190697.542    24190698.239
  23044716.433   -14236404.77543 -11031567.36142  23044718.428    23044715.208
  22363495.804   -18577953.88743 -14464157.03642  22363496.517    22363496.064
  22935553.762   -14095863.35543 -10975530.50942  22935555.640    22935556.031
  23597655.108   -10467720.00643  -8105251.05042  23597656.874    23597655.776
 04  7 16  1 11 30.0000000  0  8G 3G13G27G10G23G 8G 1G19
  23035658.961   -13631976.20943 -10607439.01742  23035660.926    23035660.892
  20255301.824   -28341314.31544 -22029201.76342  20255304.383    20255301.095
  21168371.854   -23047690.99544 -17913811.08342  21168373.746    21168372.273
  24176806.803    -4233841.04443  -3243401.46942  24176808.256    24176808.819
  23062291.106   -14144049.69743 -10959602.44342  23062293.052    23062289.863
  22350288.566   -18647357.63743 -14518237.80542  22350289.337    22350288.877
  22951715.653   -14010932.24243 -10909350.50342  22951717.492    22951717.979
  23584020.151   -10539371.91643  -8161083.62542  23584021.985    23584020.822
 04  7 16  1 12  0.0000000  0  8G 3G13G27G10G23G 8G 1G19
  23033918.310   -13641122.83843 -10614566.24742  23033920.274    23033920.342
  20257575.402   -28329366.47344 -22019891.76042  20257577.966    20257574.705
  21162806.729   -23076935.94844 -17936599.34942  21162808.611    21162807.078
  24162997.735    -4306407.58943  -3299946.75742  24162999.357    24162999.974
  23079910.754   -14051458.03243 -10887453.19042  23079912.719    23079909.472
  22337113.171   -18716594.14143 -14572188.26942  22337113.957    22337113.544
  22967925.711   -13925748.70143 -10842973.80842  22967927.534    22967927.945
  23570435.119   -10610760.94743  -8216711.34242  23570437.016    23570435.880
 04  7 16  1 12 30.0000000  0  8G 3G13G27G10G23G 8G 1G19
  23032282.756   -13649717.62743 -10621263.45342  23032284.727    23032284.707
  20259936.482   -28316959.11744 -22010223.69142  20259939.026    20259935.721
  21157274.256   -23106009.51744 -17959254.06642  21157276.137    21157274.587
  24149269.931    -4378546.83243  -3356159.09342  24149271.730    24149272.555
  23097575.779   -13958627.97843 -10815118.17142  23097577.705    23097574.519
  22323970.317   -18785660.45643 -14626006.11042  22323970.970    22323970.612
  22984184.016   -13840310.72543 -10776398.83042  22984185.879    22984186.214
  23556901.199   -10681881.20243  -8272129.61342  23556903.147    23556901.938
 04  7 16  1 13  0.0000000  0  8G 3G13G27G10G23G 8G 1G19
  23030751.878   -13657762.23343 -10627531.96242  23030753.793    23030753.824
  20262384.593   -28304094.14544 -22000199.04242  20262387.140    20262383.835
  21151773.845   -23134914.11444 -17981777.11442  21151775.763    21151774.225
  24135623.413    -4450259.24143  -3412038.84942  24135625.139    24135626.082
  23115285.473   -13865563.35543 -10742600.37542  23115287.327    23115284.299
  22310859.340   -18854558.86543 -14679693.12442  22310860.015    22310859.583
  23000490.234   -13754621.81643 -10709628.34842  23000492.046    23000492.397
  23543418.614   -10752732.18643  -8327338.09642  23543420.561    23543419.288
 04  7 16  1 13 30.0000000  0  9G 3G13G27G28G10G23G 8G 1G19
  23029323.001   -13665270.88643 -10633382.83542  23029324.925    23029324.915
  20264917.011   -28290786.19044 -21989829.20942  20264919.559    20264916.261
  21146302.745   -23163664.82244 -18004180.24942  21146304.662    21146303.129
  24774995.040    -3561537.31953  -2185968.44652  24774997.903    24775002.329
  24122055.704    -4521557.52443  -3467595.90342  24122057.413    24122058.416
  23133036.773   -13772280.32243 -10669912.37942  23133038.562    23133035.594
  22297777.427   -18923304.24043 -14733260.89542  22297778.130    22297777.706
  23016840.956   -13668698.00643 -10642674.80242  23016842.866    23016843.209
  23529985.136   -10823326.02243  -8382346.19342  23529986.975    23529985.653
 04  7 16  1 14  0.0000000  0  9G 3G13G27G28G10G23G 8G 1G19
  23028002.744   -13672208.76643 -10638788.96542  23028004.714    23028004.677
  20267540.270   -28277000.58844 -21979087.18542  20267542.853    20267539.581
  21140867.382   -23192227.88344 -18026437.17042  21140869.300    21140867.752
  24755043.438    -3666382.58443  -2267665.66142  24755046.144    24755050.587
  24108573.824    -4592405.57343  -3522802.12742  24108575.476    24108576.538
  23150835.711   -13678746.40743 -10597028.90442  23150837.556    23150834.670
  22284731.265   -18991861.93343 -14786682.39442  22284731.978    22284731.594
  23033242.727   -13582506.29643 -10575512.52742  23033244.591    23033245.117
  23516607.388   -10893626.10143  -8437125.38942  23516609.251    23516607.932
 04  7 16  1 14 30.0000000  0  9G 3G13G27G28G10G23G 8G 1G19
  23026787.395   -13678595.32543 -10643765.49542  23026789.378    23026789.328
  20270250.700   -28262757.14844 -21967988.40642  20270253.265    20270250.036
  21135463.881   -23220623.52844 -18048563.63242  21135465.782    21135464.269
  24735109.288    -3771135.30543  -2349290.76842  24735112.116    24735116.557
  24095174.107    -4662821.28143  -3577671.45542  24095175.747    24095176.788
  23168678.325   -13584983.22343 -10523966.76842  23168680.120    23168677.363
  22271716.930   -19060252.32643 -14839973.56642  22271717.642    22271717.189
  23049691.535   -13496067.92043 -10508158.02242  23049693.350    23049693.824
  23503282.307   -10963649.78343  -8491689.20742  23503284.121    23503282.830
 04  7 16  1 15  0.0000000  0  9G 3G13G27G28G10G23G 8G 1G19
  23025677.105   -13684429.70643 -10648311.75042  23025679.170    23025679.048
  20273048.392   -28248055.40044 -21956532.50942  20273050.934    20273047.683
  21130092.104   -23248852.06344 -18070559.88142  21130094.024    21130092.555
  24715193.178    -3875793.98343  -2430842.62142  24715196.032    24715200.313
  24081857.165    -4732802.58243  -3632202.29642  24081858.814    24081859.624
  23186564.351   -13490991.97843 -10450726.93642  23186566.183    23186563.411
  22258734.469   -19128475.43043 -14893134.36142  22258735.130    22258734.657
  23066187.096   -13409383.99543 -10440612.21042  23066188.843    23066189.187
  23490010.303   -11033394.15043  -8546035.38342  23490012.112    23490010.800
 04  7 16  1 15 30.0000000  0  9G 3G13G27G28G10G23G 8G 1G19
  23024672.928   -13689706.75343 -10652423.71642  23024674.917    23024674.846
  20275934.218   -28232890.15544 -21944715.44342  20275936.774    20275933.566
  21124753.033   -23276909.06544 -18092422.47142  21124754.937    21124753.457
  24695296.058    -3980352.41843  -2512316.36042  24695298.842    24695303.274
  24068624.072    -4802342.97643  -3686389.56542  24068625.754    24068626.488
  23204494.385   -13396769.40443 -10377306.83242  23204496.223    23204493.418
  22245784.773   -19196526.21943 -14946160.88042  22245785.456    22245784.979
  23082729.950   -13322451.14943 -10372872.42742  23082731.784    23082732.044
  23476792.846   -11102851.90343  -8600158.22842  23476794.661    23476793.375
 04  7 16  1 16  0.0000000  0  9G 3G13G27G28G10G23G 8G 1G19
  23023774.266   -13694429.64943 -10656103.87742  23023776.204    23023776.090
  20278907.666   -28217264.62944 -21932539.71842  20278910.223    20278907.035
  21119445.867   -23304798.15844 -18114154.21842  21119447.804    21119446.298
  24675417.660    -4084812.46043  -2593713.42042  24675420.371    24675424.932
  24055474.587    -4871443.82543  -3740234.31542  24055476.295    24055476.887
  23222467.580   -13302320.39343 -10303710.29542  23222469.444    23222466.578
  22232867.233   -19264408.13643 -14999055.81442  22232867.918    22232867.409
  23099319.207   -13235273.99343 -10304942.27442  23099321.071    23099321.429
  23463629.809   -11172023.63243  -8654058.17842  23463631.540    23463630.399
 04  7 16  1 16 30.0000000  0  9G 3G13G27G28G10G23G 8G 1G19
  23022981.550   -13698594.50643 -10659349.21542  23022983.593    23022983.569
  20281969.376   -28201175.22944 -21920002.52842  20281971.952    20281968.747
  21114171.326   -23332516.31044 -18135752.77142  21114173.226    21114171.677
  24655558.851    -4189169.15043  -2675029.95342  24655561.690    24655566.192
  24042409.624    -4940099.72843  -3793732.34242  24042411.268    24042412.008
  23240484.117   -13207643.20843 -10229935.94942  23240486.085    23240483.183
  22219982.498   -19332118.31643 -15051816.94042  22219983.115    22219982.530
  23115955.392   -13147850.51843 -10236820.17242  23115957.250    23115957.749
  23450522.452   -11240903.54343  -8707730.76042  23450524.158    23450522.874
 04  7 16  1 17  0.0000000  0  9G 3G13G27G28G10G23G 8G 1G19
  23022295.092   -13702202.39843 -10662160.55342  23022297.064    23022297.099
  20285119.082   -28184623.35444 -21907104.97142  20285121.646    20285118.425
  21108928.862   -23360065.48344 -18157219.65142  21108930.784    21108929.259
  24635719.761    -4293422.66643  -2756266.09942  24635722.606    24635727.058
  24029429.476    -5008310.63843  -3846883.64042  24029431.032    24029431.807
  23258543.425   -13112741.13443 -10155986.39342  23258545.364    23258542.635
  22207129.911   -19399658.22743 -15104445.36942  22207130.640    22207130.049
  23132637.996   -13060183.67943 -10168508.45142  23132639.769    23132640.371
  23437470.679   -11309490.59443  -8761175.14842  23437472.379    23437471.082
 04  7 16  1 17 30.0000000  0  9G 3G13G27G28G10G23G 8G 1G19
  23021714.544   -13705253.39543 -10664537.94742  23021716.512    23021716.580
  20288356.777   -28167609.22844 -21893847.21642  20288359.343    20288356.079
  21103718.370   -23387446.67144 -18178555.63642  21103720.274    21103718.798
  24615900.489    -4397572.01643  -2837421.09342  24615903.240    24615907.730
  24016534.364    -5076075.09043  -3899687.03442  24016535.804    24016536.417
  23276645.125   -13017616.22243 -10081863.15942  23276647.085    23276644.409
  22194309.833   -19467028.07943 -15156941.29842  22194310.511    22194309.896
  23149366.501   -12972275.33743 -10100008.53042  23149368.268    23149368.814
  23424474.976   -11377782.79043  -8814389.76642  23424476.723    23424475.444
 04  7 16  1 18  0.0000000  0  9G 3G13G27G28G10G23G 8G 1G19
  23021240.946   -13707742.36043 -10666477.39142  23021242.907    23021242.910
  20291683.409   -28150127.86444 -21880225.38242  20291685.965    20291682.717
  21098540.741   -23414655.15144 -18199757.04042  21098542.644    21098541.189
  24596102.197    -4501611.17043  -2918490.22742  24596104.958    24596109.329
  24003725.277    -5143386.54743  -3952137.43142  24003726.857    24003727.576
  23294789.797   -12922265.21443 -10007563.75242  23294791.816    23294789.095
  22181522.864   -19534223.67343 -15209301.45042  22181523.555    22181522.864
  23166141.474   -12884121.96043 -10031317.67442  23166143.349    23166143.894
  23411536.868   -11445772.69443  -8867368.85142  23411538.587    23411537.373
 04  7 16  1 18 30.0000000  0  9G 3G13G27G28G10G23G 8G 1G19
  23020873.400   -13709673.50543 -10667982.15042  23020875.372    23020875.358
  20295097.995   -28132183.77244 -21866242.97742  20295100.596    20295097.407
  21093395.029   -23441696.10244 -18220827.89942  21093396.939    21093395.431
  24576324.448    -4605543.06643  -2999475.79942  24576327.174    24576331.263
  23991001.980    -5210247.70543  -4004236.96142  23991003.547    23991004.330
  23312976.504   -12826694.56243  -9933093.18942  23312978.465    23312975.609
  22168768.361   -19601248.98443 -15261528.90542  22168769.025    22168768.307
  23182961.963   -12795729.68543  -9962440.65642  23182963.809    23182964.420
  23398655.969   -11513462.42443  -8920114.01842  23398657.633    23398656.385
 04  7 16  1 19  0.0000000  0  9G 3G13G27G28G10G23G 8G 1G19
  23020612.114   -13711046.46943 -10669051.98342  23020614.081    23020614.066
  20298600.790   -28113776.51244 -21851899.66242  20298603.338    20298600.167
  21088281.201   -23468569.74044 -18241768.37742  21088283.075    21088281.532
  24556567.338    -4709366.26543  -3080376.66842  24556570.044    24556574.090
  23978364.742    -5276656.71643  -4055984.17142  23978366.255    23978366.986
  23331204.553   -12730905.66343  -9858452.58142  23331206.574    23331203.729
  22156046.201   -19668104.41343 -15313623.98142  22156046.874    22156046.136
  23199827.729   -12707099.89743  -9893378.56242  23199829.569    23199830.178
  23385832.554   -11580849.51543  -8972623.35142  23385834.330    23385832.963
 04  7 16  1 19 30.0000000  0  9G 3G13G27G28G10G23G 8G 1G19
  23020457.667   -13711857.30343 -10669683.78442  23020459.759    23020459.688
  20302192.480   -28094902.24144 -21837192.43942  20302195.043    20302191.789
  21083199.777   -23495272.56144 -18262575.75442  21083201.660    21083200.142
  24536831.781    -4813075.47043  -3161188.70742  24536834.659    24536838.445
  23965814.721    -5342607.94643  -4107374.65242  23965816.115    23965816.740
  23349474.511   -12634896.22343  -9783640.13142  23349476.598    23349473.792
  22143356.979   -19734786.31143 -15365583.84442  22143357.702    22143356.959
  23216739.261   -12618229.98643  -9824129.37942  23216741.051    23216741.729
  23373068.000   -11647927.28843  -9024891.67442  23373069.788    23373068.366
 04  7 16  1 20  0.0000000  0  9G 3G13G27G28G10G23G 8G 1G19
  23020410.540   -13712105.70143 -10669877.32342  23020412.509    23020412.429
  20305873.070   -28075560.83644 -21822121.22142  20305875.599    20305872.362
  21078150.860   -23521804.73344 -18283250.15542  21078152.735    21078151.243
  24517118.428    -4916669.27643  -3241910.86242  24517121.173    24517124.761
  23953351.965    -5408099.70943  -4158407.13042  23953353.510    23953354.003
  23367786.278   -12538668.02843  -9708657.21942  23367788.291    23367785.439
  22130700.911   -19801294.48743 -15417408.33442  22130701.562    22130700.766
  23233696.071   -12529121.35943  -9754694.17942  23233697.848    23233698.657
  23360362.725   -11714693.34243  -9076917.08942  23360364.540    23360363.010
 04  7 16  1 20 30.0000000  0  9G 3G13G27G28G10G23G 8G 1G19
  23020469.813   -13711793.91543 -10669634.35842  23020471.785    23020471.737
  20309642.030   -28055754.64344 -21806687.82542  20309644.594    20309641.357
  21073133.822   -23548169.24244 -18303793.91042  21073135.735    21073134.245
  24497426.788    -5020148.60143  -3322543.81042  24497429.531    24497432.830
  23940976.563    -5473132.65143  -4209082.09142  23940978.127    23940978.575
  23386138.879   -12442225.20543  -9633507.04742  23386140.833    23386137.894
  22118077.270   -19867631.95143 -15469099.79642  22118077.944    22118077.132
  23250697.708   -12439777.94643  -9685076.03742  23250699.471    23250700.183
  23347716.758   -11781147.87143  -9128699.75342  23347718.591    23347717.020
 04  7 16  1 21  0.0000000  0  9G 3G13G27G28G10G23G 8G 1G19
  23020636.547   -13710917.10443 -10668951.12042  23020638.470    23020638.500
  20313500.260   -28035479.31144 -21790888.86542  20313502.846    20313499.681
  21068149.543   -23574361.94244 -18324203.78942  21068151.448    21068149.903
  24477757.755    -5123507.90443  -3403083.21942  24477760.541    24477763.883
  23928689.509    -5537700.48843  -4259394.61242  23928691.242    23928691.663
  23404532.791   -12345564.92543  -9558187.47142  23404534.684    23404531.775
  22105486.896   -19933793.91643 -15520654.50542  22105487.654    22105486.895
  23267744.494   -12350196.86443  -9615272.68242  23267746.323    23267746.807
  23335131.452   -11847283.90443  -9180234.26342  23335133.372    23335131.722
 04  7 16  1 21 30.0000000  0  9G 3G13G27G28G10G23G 8G 1G19
  23020910.608   -13709477.44243 -10667829.28742  23020912.414    23020912.459
  20317447.417   -28014736.85544 -21774725.91342  20317450.000    20317446.830
  21063197.400   -23600385.45044 -18344481.82442  21063199.339    21063197.794
  24458111.596    -5226747.80943  -3483529.57842  24458114.271    24458117.579
  23916490.813    -5601803.92243  -4309345.25642  23916492.556    23916493.055
  23422967.340   -12248690.93843  -9482701.33842  23422969.267    23422966.370
  22092929.700   -19999782.56543 -15572074.18042  22092930.438    22092929.534
  23284835.690   -12260381.52643  -9545286.81242  23284837.585    23284838.274
  23322606.947   -11913100.87043  -9231520.13442  23322608.781    23322607.112
 04  7 16  1 22  0.0000000  0  9G 3G13G27G28G10G23G 8G 1G19
  23021291.676   -13707474.56743 -10666268.58942  23021293.570    23021293.569
  20321483.551   -27993527.00244 -21758198.76042  20321486.109    20321482.913
  21058277.504   -23626239.56244 -18364627.86142  21058279.441    21058277.900
  24438488.483    -5329866.74243  -3563881.70142  24438491.180    24438494.309
  23904381.202    -5665440.89343  -4358932.45542  23904382.762    23904383.221
  23441442.154   -12151604.99143  -9407050.03742  23441444.141    23441441.319
  22080405.461   -20065597.76443 -15623358.69742  22080406.151    22080405.274
  23301971.450   -12170333.34343  -9475119.49042  23301973.234    23301974.045
  23310143.476   -11978596.12843  -9282555.32942  23310145.347    23310143.614
 04  7 16  1 22 30.0000000  0  9G 3G13G27G28G10G23G 8G 1G19
  23021779.660   -13704910.55243 -10664270.63242  23021781.530    23021781.578
  20325608.193   -27971851.85244 -21741309.03542  20325610.775    20325607.533
  21053389.304   -23651927.01244 -18384644.03342  21053391.241    21053389.714
  24418888.204    -5432865.22143  -3644139.96142  24418890.955    24418894.057
  23892360.033    -5728611.60743  -4408156.30742  23892361.620    23892362.292
  23459956.882   -12054310.51943  -9331236.27242  23459958.761    23459955.939
  22067913.753   -20131241.87343 -15674509.89442  22067914.405    22067913.584
  23319150.805   -12080055.75443  -9404773.42242  23319152.620    23319153.474
  23297741.328   -12043769.23143  -9333339.48242  23297743.276    23297741.519
 04  7 16  1 23  0.0000000  0  9G 3G13G27G28G10G23G 8G 1G19
  23022375.551   -13701777.63243 -10661829.38142  23022377.564    23022377.789
  20329822.879   -27949703.65344 -21724050.70142  20329825.429    20329822.174
  21048534.359   -23677440.21844 -18404524.43342  21048536.270    21048534.723
  24399312.674    -5535734.30643  -3724297.39242  24399315.256    24399318.421
  23880429.437    -5791306.83443  -4457009.65942  23880430.972    23880431.754
  23478512.227   -11956801.72243  -9255255.48342  23478514.236    23478511.315
  22055455.988   -20196707.29443 -15725521.85642  22055456.651    22055455.858
  23336374.933   -11989542.69843  -9334243.86042  23336376.800    23336377.663
  23285402.569   -12108610.24743  -9383864.88142  23285404.528    23285402.642
 04  7 16  1 23 30.0000000  0  9G 3G13G27G28G10G23G 8G 1G19
  23023078.496   -13698084.18343 -10658951.35342  23023080.437    23023080.585
  20334125.895   -27927090.78844 -21706430.28842  20334128.468    20334125.278
  21043710.837   -23702788.06344 -18424275.98242  21043712.743    21043711.159
  24379760.301    -5638481.03443  -3804359.49342  24379762.993    24379766.092
  23868588.132    -5853533.54943  -4505497.94642  23868589.588    23868590.464
  23497106.346   -11859088.73343  -9179115.61342  23497108.401    23497105.561
  22043030.657   -20262002.44243 -15776401.13742  22043031.310    22043030.496
  23353642.110   -11898804.12443  -9263538.59242  23353643.843    23353644.759
  23273125.775   -12173125.06843  -9434136.09842  23273127.694    23273125.866
 04  7 16  1 24  0.0000000  0  9G 3G13G27G28G10G23G 8G 1G19
  23023889.579   -13693822.19943 -10655630.32242  23023891.575    23023891.566
  20338518.934   -27904005.48844 -21688441.74742  20338521.461    20338518.290
  21038920.191   -23727962.94644 -18443892.76242  21038922.114    21038920.498
  24360233.279    -5741096.11543  -3884319.02842  24360235.916    24360238.915
  23856837.727    -5915282.01243  -4553613.55742  23856839.264    23856840.103
  23515740.573   -11761165.40043  -9102811.82342  23515742.721    23515739.855
  22030639.287   -20327119.48343 -15827141.64442  22030639.935    22030638.988
  23370953.362   -11807833.36943  -9192652.38742  23370955.162    23370955.958
  23260913.045   -12237303.34543  -9484145.07842  23260914.998    23260912.986
 04  7 16  1 24 30.0000000  0  9G 3G13G27G28G10G23G 8G 1G19
  23024807.771   -13688996.88543 -10651870.31442  23024809.809    23024809.782
  20343000.892   -27880452.73944 -21670088.96342  20343003.416    20343000.282
  21034161.398   -23752970.44144 -18463379.09942  21034163.298    21034161.711
  24340730.275    -5843583.47043  -3964179.00642  24340732.957    24340735.912
  23845177.692    -5976556.08843  -4601359.53542  23845179.156    23845179.939
  23534413.645   -11663038.50243  -9026349.42242  23534415.707    23534412.874
  22018280.808   -20392063.85043 -15877747.59142  22018281.453    22018280.415
  23388307.520   -11716637.30343  -9121590.64042  23388309.284    23388310.062
  23248763.737   -12301148.02143  -9533894.10042  23248765.723    23248763.772
 04  7 16  1 25  0.0000000  0  9G 3G13G27G28G10G23G 8G 1G19
  23025834.325   -13683602.73143 -10647667.06642  23025836.342    23025836.222
  20347572.770   -27856427.23444 -21651367.79642  20347575.304    20347572.181
  21029435.525   -23777805.12444 -18482730.78242  21029437.427    21029435.835
  24321253.110    -5945936.08143  -4043934.00342  24321255.734    24321258.536
  23833609.240    -6037348.35143  -4648730.05342  23833610.761    23833611.391
  23553126.122   -11564704.19743  -8949725.39742  23553128.105    23553125.330
  22005956.224   -20456830.05843 -15928214.71342  22005956.835    22005955.815
  23405705.216   -11625211.72443  -9050350.04242  23405706.965    23405707.763
  23236679.523   -12364650.78143  -9583376.70942  23236681.525    23236679.534
 04  7 16  1 25 30.0000000  0  9G 3G13G27G28G10G23G 8G 1G19
  23026968.066   -13677645.08543 -10643024.73142  23026970.083    23026969.956
  20352233.621   -27831934.32044 -21632282.41742  20352236.149    20352232.996
  21024741.396   -23802472.79344 -18501952.32542  21024743.304    21024741.733
  24301800.762    -6048157.98743  -4123587.17642  24301803.544    24301806.082
  23822131.803    -6097662.39243  -4695727.95242  23822133.444    23822133.806
  23571876.735   -11466169.48643  -8872945.20842  23571878.638    23571876.011
  21993664.412   -20521423.36443 -15978547.10742  21993665.088    21993664.114
  23423145.326   -11533563.56243  -8978936.00442  23423146.968    23423147.874
  23224659.801   -12427814.67343  -9632595.25242  23224661.737    23224659.786
 04  7 16  1 26  0.0000000  0  9G 3G13G27G28G10G23G 8G 1G19
  23028209.903   -13671119.45143 -10637939.81642  23028211.887    23028211.771
  20356984.249   -27806969.50344 -21612829.32042  20356986.770    20356983.624
  21020079.896   -23826968.97244 -18521040.24142  21020081.815    21020080.262
  24282374.460    -6150243.10543  -4203133.75942  24282377.218    24282379.518
  23810746.454    -6157492.31643  -4742348.59242  23810748.105    23810748.530
  23590666.043   -11367431.89543  -8796006.94042  23590667.930    23590665.308
  21981406.409   -20585839.07843 -16028741.11942  21981407.139    21981406.160
  23440628.381   -11441689.80543  -8907346.18042  23440629.973    23440631.031
  23212705.801   -12490632.89843  -9681544.44742  23212707.759    23212705.801
 04  7 16  1 26 30.0000000  0  9G 3G13G27G28G10G23G 8G 1G19
  23029559.642   -13664026.78343 -10632413.05942  23029561.552    23029561.483
  20361824.561   -27781533.63344 -21593009.16942  20361827.079    20361823.900
  21015450.775   -23851295.06744 -18539995.62742  21015452.703    21015451.109
  24262974.213    -6252191.00743  -4282573.42042  24262977.055    24262979.226
  23799453.363    -6216837.45743  -4788591.47542  23799454.953    23799455.386
  23609493.466   -11268493.62843  -8718912.28442  23609495.418    23609492.645
  21969182.076   -20650078.44443 -16078797.72642  21969182.725    21969181.747
  23458153.892   -11349592.72343  -8835582.30542  23458155.595    23458156.640
  23200817.935   -12553103.63443  -9730222.86942  23200819.907    23200817.976
 04  7 16  1 27  0.0000000  0  9G 3G13G27G28G10G23G 8G 1G19
  23031017.410   -13656366.21143 -10626443.77042  23031019.331    23031019.259
  20366754.645   -27755626.03144 -21572821.44042  20366757.154    20366753.954
  21010854.175   -23875450.23344 -18558817.82242  21010856.104    21010854.505
  24243600.493    -6353999.30343  -4361904.32742  24243603.367    24243605.435
  23788253.055    -6275695.23843  -4834454.62442  23788254.673    23788255.077
  23628358.805   -11169355.77743  -8641662.10942  23628360.747    23628358.199
  21956991.476   -20714140.58543 -16128716.23442  21956992.132    21956991.120
  23475721.885   -11257273.08443  -8763645.03342  23475723.588    23475724.525
  23188996.811   -12615223.71243  -9778628.07842  23188998.729    23188996.781
 04  7 16  1 27 30.0000000  0  9G 3G13G27G28G10G23G 8G 1G19
  23032582.890   -13648139.30943 -10620033.19242  23032584.833    23032584.717
  20371774.183   -27729248.19044 -21552267.28842  20371776.696    20371773.497
  21006289.797   -23899436.15544 -18577508.14442  21006291.712    21006290.102
  24224253.468    -6455668.01843  -4441126.46642  24224256.180    24224258.335
  23777145.553    -6334065.05343  -4879937.55142  23777147.192    23777147.547
  23647261.570   -11070021.43243  -8564258.82842  23647263.516    23647261.052
  21944834.253   -20778026.76243 -16178497.64242  21944834.940    21944833.914
  23493331.693   -11164733.59543  -8691536.45942  23493333.373    23493334.268
  23177242.694   -12676992.13243  -9826759.24942  23177244.498    23177242.580
 04  7 16  1 28  0.0000000  0  9G 3G13G27G28G10G23G 8G 1G19
  23034256.466   -13639344.03443 -10613179.74242  23034258.426    23034258.254
  20376883.596   -27702397.85944 -21531344.96042  20376886.141    20376882.972
  21001757.940   -23923251.20144 -18596065.31342  21001759.861    21001758.232
  24204933.567    -6557193.86943  -4520237.25942  24204936.196    24204938.560
  23766131.596    -6391943.64243  -4925037.66242  23766133.159    23766133.555
  23666201.856   -10970490.03043  -8486701.99842  23666203.655    23666201.322
  21932710.861   -20841735.18543 -16228140.52642  21932711.546    21932710.595
  23510983.356   -11071973.95843  -8619256.32242  23510985.061    23510985.907
  23165556.228   -12738404.56143  -9874613.03042  23165558.056    23165556.064
 04  7 16  1 28 30.0000000  0  9G 3G13G27G28G10G23G 8G 1G19
  23036038.290   -13629980.51543 -10605883.49242  23036040.220    23036039.948
  20382082.896   -27675075.55044 -21510054.86142  20382085.414    20382082.236
  20997258.599   -23946895.42644 -18614489.37542  20997260.517    20997258.870
  24185641.182    -6658575.46043  -4599235.64742  24185643.694    24185646.125
  23755211.409    -6449329.75243  -4969754.06342  23755212.820    23755213.185
  23685179.245   -10870763.46243  -8408993.10342  23685181.084    23685178.880
  21920621.523   -20905265.58943 -16277644.69842  21920622.131    21920621.176
  23528676.720   -10978995.55243  -8546805.72242  23528678.336    23528679.245
  23153938.120   -12799458.23343  -9922187.25242  23153939.915    23153937.836
 04  7 16  1 29  0.0000000  0  9G 3G13G27G28G10G23G 8G 1G19
  23037927.949   -13620050.11043 -10598145.50142  23037929.878    23037929.638
  20387371.895   -27647281.85044 -21488397.44042  20387374.416    20387371.240
  20992791.552   -23970369.85244 -18632781.12442  20992793.464    20992791.827
  24166376.178    -6759812.05743  -4678121.09042  24166378.881    24166380.983
  23744385.106    -6506222.50243  -5014086.01042  23744386.540    23744386.802
  23704193.283   -10770844.33443  -8331134.14642  23704195.268    23704192.920
  21908565.700   -20968619.05643 -16327010.99742  21908566.366    21908565.356
  23546411.231   -10885800.80443  -8474186.53442  23546412.943    23546413.782
  23142388.512   -12860151.83643  -9969480.90742  23142390.288    23142388.173
 04  7 16  1 29 30.0000000  0  9G 3G13G27G28G10G23G 8G 1G19
  23039925.556   -13609552.46743 -10589965.51542  23039927.496    23039927.267
  20392750.559   -27619016.72644 -21466372.67642  20392753.093    20392749.936
  20988356.825   -23993674.58944 -18650940.65142  20988358.725    20988357.076
  24147139.256    -6860902.27143  -4756892.47542  24147141.786    24147143.797
  23733652.931    -6562620.05643  -5058032.10242  23733654.467    23733654.728
  23723243.872   -10670733.92243  -8253126.16042  23723245.818    23723243.238
  21896543.675   -21031795.17343 -16376239.09942  21896544.363    21896543.310
  23564186.613   -10792390.98843  -8401399.79742  23564188.308    23564189.153
  23130907.856   -12920482.70143 -10016491.92642  23130909.698    23130907.563
 04  7 16  1 30  0.0000000  0  9G 3G13G27G28G10G23G 8G 1G19
  23042031.965   -13598483.52443 -10581340.36842  23042033.870    23042033.649
  20398219.736   -27590275.91344 -21443977.25042  20398222.279    20398219.111
  20983955.172   -24016805.41244 -18668964.66342  20983957.080    20983955.414
  24127931.237    -6961840.24843  -4835545.21142  24127933.584    24127935.806
  23723016.055    -6618516.49143  -5101587.72742  23723017.657    23723017.871
  23742331.151   -10570429.54143  -8174967.03142  23742333.221    23742330.520
  21884556.212   -21094789.62343 -16425325.63542  21884556.907    21884555.854
  23582003.520   -10698763.04743  -8328443.08042  23582005.273    23582006.004
  23119497.471   -12980444.03943 -10063214.99342  23119499.357    23119497.202
 04  7 16  1 30 30.0000000  0  9G 3G13G27G28G10G23G 8G 1G19
  23044245.653   -13586850.55243 -10572275.70942  23044247.549    23044247.378
  20403778.088   -27561066.67944 -21421216.81642  20403780.621    20403777.454
  20979585.274   -24039769.34044 -18686858.62642  20979587.169    20979585.486
  24108751.088    -7062631.42143  -4914083.55642  24108753.417    24108755.679
  23712473.779    -6673917.05543  -5144756.93242  23712475.282    23712475.344
  23761453.999   -10469940.03443  -8096663.63042  23761455.957    23761453.148
  21872602.043   -21157609.34643 -16474276.01542  21872602.681    21872601.598
  23599860.228   -10604925.63043  -8255323.10042  23599862.075    23599862.879
  23108156.562   -13040040.53843 -10109653.76242  23108158.412    23108156.317
 04  7 16  1 31  0.0000000  0  9G 3G13G27G28G10G23G 8G 1G19
  23046568.188   -13574645.82243 -10562765.52342  23046570.078    23046569.851
  20409427.039   -27531381.24144 -21398085.31842  20409429.589    20409426.443
  20975248.540   -24062558.79744 -18704616.63542  20975250.431    20975248.799
  24089600.632    -7163266.63643  -4992500.39042  24089603.044    24089605.253
  23702027.416    -6728812.71843  -5187532.74142  23702028.908    23702028.940
  23780612.783   -10369259.17943  -8018211.10542  23780614.980    23780612.199
  21860682.612   -21220246.21243 -16523083.91842  21860683.275    21860682.141
  23617757.937   -10510872.47443  -8182035.02842  23617759.789    23617760.700
  23096887.057   -13099261.91343 -10155800.22642  23096888.913    23096886.791
 04  7 16  1 31 30.0000000  0  9G 3G13G27G28G10G23G 8G 1G19
  23048998.461   -13561874.40543 -10552813.76242  23049000.435    23049000.082
  20415165.634   -27501224.63744 -21374586.67542  20415168.212    20415165.059
  20970944.119   -24085178.78944 -18722242.59442  20970945.989    20970944.300
  24070479.213    -7263749.28143  -5070798.33242  24070481.681    24070483.826
  23691676.497    -6783206.65843  -5229917.57842  23691678.093    23691678.299
  23799807.055   -10268393.57143  -7939614.67042  23799809.033    23799806.487
  21848796.959   -21282705.32143 -16571753.31342  21848797.648    21848796.393
  23635695.591   -10416609.90243  -8108583.79742  23635697.453    23635698.406
  23085688.570   -13158110.38343 -10201656.12242  23085690.348    23085688.241
 04  7 16  1 32  0.0000000  0  9G 3G13G27G28G10G23G 8G 1G19
  23051537.130   -13548533.50543 -10542418.25242  23051539.093    23051538.835
  20420994.480   -27470593.99244 -21350718.65542  20420997.034    20420993.859
  20966672.474   -24107626.49144 -18739734.30842  20966674.332    20966672.651
  24051387.899    -7364075.02743  -5148974.01642  24051390.327    24051392.223
  23681421.947    -6837094.52743  -5271908.07042  23681423.601    23681423.809
  23819036.694   -10167342.05343  -7860873.33542  23819038.637    23819036.165
  21836945.768   -21344983.53443 -16620281.74742  21836946.437    21836945.080
  23653673.484   -10322136.30643  -8034968.14242  23653675.247    23653676.199
  23074561.979   -13216580.86243 -10247217.47542  23074563.696    23074561.606
 04  7 16  1 32 30.0000000  0  9G 3G13G27G28G10G23G 8G 1G19
  23054183.793   -13534625.65843 -10531580.97342  23054185.770    23054185.508
  20426913.027   -27439491.84444 -21326483.22542  20426915.596    20426912.390
  20962433.125   -24129904.21744 -18757093.57142  20962435.004    20962433.381
  24032326.126    -7464244.72643  -5227028.12142  24032328.695    24032330.212
  23671263.505    -6890477.12943  -5313504.85442  23671265.088    23671265.370
  23838300.739   -10066108.27543  -7781989.99942  23838302.831    23838300.508
  21825128.692   -21407082.74843 -16668670.70042  21825129.354    21825127.925
  23671690.792   -10227455.43543  -7961190.96542  23671692.497    23671693.480
  23063507.380   -13274673.11543 -10292484.12142  23063509.113    23063506.997
 04  7 16  1 33  0.0000000  0  9G 3G13G27G28G10G23G 8G 1G19
  23056938.613   -13520148.52443 -10520300.08342  23056940.686    23056940.472
  20432921.753   -27407915.62844 -21301878.39442  20432924.336    20432921.188
  20958226.661   -24152009.35244 -18774318.34042  20958228.524    20958226.910
  24013294.691    -7564254.17743  -5304957.35242  24013297.400    24013298.762
  23661202.030    -6943350.11843  -5354704.54942  23661203.732    23661203.852
  23857600.020    -9964691.20243  -7702963.83742  23857602.016    23857599.592
  21813345.918   -21469000.74543 -16716918.44142  21813346.658    21813345.312
  23689747.726   -10132565.95743  -7887251.21142  23689749.435    23689750.523
  23052525.741   -13332381.81943 -10337451.89742  23052527.466    23052525.431
 04  7 16  1 33 30.0000000  0  9G 3G13G27G28G10G23G 8G 1G19
  23059801.437   -13505104.18243 -10508577.20642  23059803.461    23059803.328
  20439020.439   -27375866.64744 -21276905.16742  20439023.005    20439019.908
  20954052.684   -24173943.63044 -18791409.97842  20954054.570    20954052.922
  23994293.816    -7664103.73143  -5382761.99342  23994296.500    23994297.599
  23651237.577    -6995713.72143  -5395507.30642  23651239.218    23651239.427
  23876933.361    -9863094.41143  -7623797.61942  23876935.312    23876932.815
  21801597.585   -21530738.81443 -16765025.97742  21801598.288    21801596.916
  23707843.696   -10037471.13743  -7813151.50842  23707845.335    23707846.646
  23041617.102   -13389706.49043 -10382120.42042  23041618.829    23041616.901
 04  7 16  1 34  0.0000000  0  9G 3G13G27G28G10G23G 8G 1G19
  23062772.647   -13489490.16743 -10496410.44742  23062774.652    23062774.485
  20445209.567   -27343342.82144 -21251561.94142  20445212.099    20445208.997
  20949911.753   -24195704.41844 -18808366.43142  20949913.636    20949911.933
  23975324.194    -7763788.90443  -5460438.56642  23975326.785    23975327.792
  23641370.830    -7047563.81443  -5435909.93542  23641372.426    23641372.633
  23896300.898    -9761316.77443  -7544490.48542  23896302.946    23896300.486
  21789883.997   -21592294.03143 -16812991.04342  21789884.707    21789883.320
  23725978.991    -9942169.83043  -7738890.83342  23725980.713    23725981.931
  23030782.586   -13446641.84443 -10426485.58142  23030784.336    23030782.425
 04  7 16  1 34 30.0000000  0  9G 3G13G27G28G10G23G 8G 1G19
  23065851.708   -13473309.47543 -10483802.11942  23065853.649    23065853.502
  20451488.413   -27310347.19344 -21225851.07142  20451490.940    20451487.849
  20945803.239   -24217294.62544 -18825189.96142  20945805.136    20945803.412
  23956385.417    -7863311.31443  -5537988.27842  23956387.949    23956389.165
  23631601.575    -7098901.51643  -5475913.28142  23631603.073    23631603.213
  23915702.218    -9659362.71143  -7465045.90042  23915704.132    23915701.839
  21778204.641   -21653669.32643 -16860815.90742  21778205.317    21778203.929
  23744152.816    -9846666.32043  -7664472.63142  23744154.481    23744155.721
  23020022.133   -13503188.41843 -10470547.79342  23020023.915    23020021.947
 04  7 16  1 35  0.0000000  0  9G 3G13G27G28G10G23G 8G 1G19
  23069038.901   -13456560.85943 -10470751.26242  23069040.817    23069040.655
  20457857.349   -27276878.09744 -21199771.26842  20457859.879    20457856.813
  20941727.509   -24238712.81144 -18841879.44642  20941729.374    20941727.697
  23937478.339    -7962667.89943  -5615408.79642  23937480.802    23937482.025
  23621930.348    -7149724.17043  -5515515.31042  23621931.860    23621931.840
  23935137.106    -9557232.41343  -7385463.96042  23935139.098    23935136.704
  21766559.777   -21714863.33143 -16908499.50342  21766560.432    21766559.073
  23762365.101    -9750960.55443  -7589896.83742  23762366.669    23762367.994
  23009336.376   -13559342.41743 -10514304.10942  23009338.156    23009336.123
 04  7 16  1 35 30.0000000  0  9G 3G13G27G28G10G23G 8G 1G19
  23072333.889   -13439245.74843 -10457258.94242  23072335.785    23072335.628
  20464316.168   -27242936.92744 -21173323.61642  20464318.679    20464315.606
  20937684.308   -24259959.95344 -18858435.65142  20937686.199    20937684.530
  23918603.083    -8061858.24543  -5692699.78542  23918605.347    23918606.515
  23612357.133    -7200031.38443  -5554715.68042  23612358.682    23612358.599
  23954605.109    -9454928.47543  -7305746.73042  23954607.034    23954604.679
  21754949.475   -21775875.76843 -16956041.62042  21754950.142    21754948.742
  23780615.304    -9655054.97143  -7515165.34842  23780616.916    23780618.388
  22998725.501   -13615102.34043 -10557753.35742  22998727.343    22998725.251
 04  7 16  1 36  0.0000000  0  9G 3G13G27G28G10G23G 8G 1G19
  23075737.234   -13421360.66443 -10443322.50242  23075739.161    23075738.917
  20470865.590   -27208519.70544 -21146505.01442  20470868.084    20470865.000
  20933674.377   -24281031.95944 -18874855.38642  20933676.290    20933674.645
  23899760.264    -8160876.82943  -5769856.91142  23899762.523    23899763.815
  23602883.119    -7249817.65643  -5593510.13942  23602884.663    23602884.603
  23974106.220    -9352448.59343  -7225892.42542  23974108.110    23974106.010
  21743374.317   -21836703.49143 -17003439.80442  21743374.934    21743373.601
  23798904.167    -9558947.16643  -7440276.27042  23798905.703    23798907.344
  22988190.891   -13670461.90143 -10600890.62842  22988192.762    22988190.643
 04  7 16  1 36 30.0000000  0  9G 3G13G27G28G10G23G 8G 1G19
  23079248.441   -13402909.42743 -10428944.92742  23079250.317    23079249.994
  20477504.867   -27173630.13144 -21119318.34742  20477507.379    20477504.242
  20929697.198   -24301932.08944 -18891141.19442  20929699.097    20929697.479
  23880949.928    -8259725.47543  -5846881.63642  23880952.040    23880953.447
  23593507.946    -7299084.35943  -5631899.73042  23593509.577    23593509.558
  23993639.984    -9249797.76143  -7145904.88842  23993641.856    23993640.040
  21731833.696   -21897349.37543 -17050696.29442  21731834.335    21731833.071
  23817230.587    -9462641.66343  -7365233.15742  23817232.128    23817233.725
  22977732.307   -13725421.81243 -10643716.49142  22977734.158    22977732.116
 04  7 16  1 37  0.0000000  0  9G 3G13G27G28G10G23G 8G 1G19
  23082867.872   -13383889.33043 -10414124.06242  23082869.812    23082869.417
  20484234.583   -27138265.46944 -21091761.48042  20484237.059    20484233.932
  20925753.262   -24322657.62844 -18907290.95442  20925755.172    20925753.527
  23862172.530    -8358399.99243  -5923770.67942  23862174.694    23862176.012
  23584232.422    -7347827.69943  -5669881.50042  23584234.006    23584234.093
  24013206.564    -9146974.59543  -7065783.08742  24013208.483    24013206.859
  21720328.455   -21957810.00043 -17097808.42942  21720329.033    21720327.805
  23835594.763    -9366137.27543  -7290035.06642  23835596.389    23835597.902
  22967350.859   -13779976.83243 -10686226.84642  22967352.665    22967350.620
 04  7 16  1 37 30.0000000  0  9G 3G13G27G28G10G23G 8G 1G19
  23086594.639   -13364304.52743 -10398863.18642  23086596.664    23086596.267
  20491053.959   -27102429.53444 -21063837.38642  20491056.454    20491053.313
  20921841.914   -24343212.28144 -18923307.55642  20921843.787    20921842.115
  23843427.958    -8456902.60343  -6000525.75442  23843430.189    23843431.391
  23575056.041    -7396049.88543  -5707457.17642  23575057.591    23575057.756
  24032805.121    -9043984.53143  -6985531.21142  24032806.913    24032805.355
  21708857.631   -22018089.18043 -17144779.18242  21708858.279    21708856.997
  23853995.959    -9269439.26143  -7214686.07742  23853997.579    23853998.954
  22957046.053   -13834128.42743 -10728422.85642  22957047.895    22957045.890
 04  7 16  1 38  0.0000000  0  9G 3G13G27G28G10G23G 8G 1G19
  23090429.217   -13344153.84243 -10383161.34442  23090431.158    23090430.955
  20497963.255   -27066121.07444 -21035545.09142  20497965.767    20497962.606
  20917963.337   -24363594.23344 -18939189.58942  20917965.199    20917963.542
  23824716.675    -8555230.15543  -6077144.43342  23824718.929    23824720.108
  23565979.394    -7443747.87643  -5744624.39842  23565980.964    23565980.919
  24052435.481    -8940827.74543  -6905149.42942  24052437.307    24052435.622
  21697421.765   -22078184.95143 -17191607.01642  21697422.361    21697421.057
  23872434.039    -9172547.32543  -7139186.01442  23872435.630    23872437.034
  22946818.790   -13887872.67943 -10770301.45642  22946820.630    22946818.635
 04  7 16  1 38 30.0000000  0  9G 3G13G27G28G10G23G 8G 1G19
  23094371.596   -13323436.94243 -10367018.30442  23094373.457    23094373.274
  20504962.491   -27029339.44544 -21006884.09842  20504965.049    20504961.932
  20914117.786   -24383802.56944 -18954936.33942  20914119.667    20914118.040
  23806039.148    -8653380.27643  -6153624.86542  23806041.501    23806042.539
  23557002.903    -7490919.49143  -5781381.47042  23557004.490    23557004.323
  24072097.320    -8837504.62443  -6824638.04642  24072099.084    24072097.439
  21686020.884   -22138096.68443 -17238291.44942  21686021.468    21686020.169
  23890908.927    -9075462.03143  -7063535.28542  23890910.526    23890911.989
  22936669.667   -13941206.25843 -10811860.03942  22936671.558    22936669.545
 04  7 16  1 39  0.0000000  0  9G 3G13G27G28G10G23G 8G 1G19
  23098421.640   -13302153.98643 -10350434.19642  23098423.502    23098423.263
  20512051.936   -26992084.41844 -20977854.22042  20512054.433    20512051.335
  20910305.370   -24403836.97244 -18970547.55242  20910307.261    20910305.585
  23787395.959    -8751350.95943  -6229965.47242  23787398.171    23787399.236
  23548126.877    -7537563.17543  -5817727.14742  23548128.395    23548128.427
  24091790.573    -8734016.86743  -6743998.36142  24091792.328    24091790.780
  21674655.306   -22197823.46443 -17284831.76942  21674655.865    21674654.506
  23909420.129    -8978184.72743  -6987734.92242  23909421.864    23909423.433
  22926599.334   -13994126.51643 -10853096.55442  22926601.148    22926599.057
 04  7 16  1 39 30.0000000  0  9G 3G13G27G28G10G23G 8G 1G19
  23102579.426   -13280304.07443 -10333408.28042  23102581.264    23102581.206
  20519231.527   -26954355.36144 -20948454.97042  20519234.045    20519230.984
  20906526.297   -24423696.29344 -18986022.33842  20906528.177    20906526.458
  23768787.156    -8849139.97243  -6306164.49042  23768789.468    23768790.492
  23539351.706    -7583676.37243  -5853659.45542  23539353.312    23539353.389
  24111514.994    -8630364.54543  -6663230.46142  24111516.725    24111515.370
  21663325.009   -22257364.02343 -17331226.96542  21663325.620    21663324.248
  23927967.920    -8880715.78443  -6911785.22142  23927969.641    23927971.354
  22916608.185   -14046629.86543 -10894008.20742  22916610.039    22916607.901
 04  7 16  1 40  0.0000000  0  9G 3G13G27G28G10G23G 8G 1G19
  23106844.329   -13257891.39943 -10315943.88242  23106846.162    23106846.159
  20526500.607   -26916156.03344 -20918689.27242  20526503.135    20526500.092
  20902779.798   -24443384.08044 -19001363.46142  20902781.693    20902779.997
  23750212.625    -8946749.27243  -6382223.50342  23750215.070    23750215.773
  23530677.130    -7629261.34943  -5889180.16342  23530678.797    23530678.698
  24131269.753    -8526553.44243  -6582338.82642  24131271.453    24131270.074
  21652029.747   -22316721.18843 -17377479.27342  21652030.333    21652028.964
  23946551.292    -8783060.12043  -6835690.04442  23946552.846    23946554.723
  22906696.181   -14098717.60843 -10934596.01642  22906698.039    22906695.953
 04  7 16  1 40 30.0000000  0  9G 3G13G27G28G10G23G 8G 1G19
  23111217.485   -13234910.38643 -10298036.59742  23111219.297    23111219.370
  20533860.377   -26877480.13144 -20888552.21742  20533862.890    20533859.889
  20899067.281   -24462893.75444 -19016565.80242  20899069.136    20899067.461
  23731673.646    -9044171.15543  -6458136.46342  23731676.157    23731676.656
  23522104.604    -7674310.32843  -5924283.24442  23522106.177    23522106.044
  24151055.628    -8422578.49643  -6501319.51442  24151057.386    24151055.951
  21640770.319   -22375889.36543 -17423584.31342  21640770.969    21640769.587
  23965171.193    -8685212.94343  -6759445.62042  23965172.703    23965174.642
  22896864.987   -14150381.19143 -10974853.32342  22896866.733    22896864.626
 04  7 16  1 41  0.0000000  0  9G 3G13G27G28G10G23G 8G 1G19
  23115697.521   -13211368.60343 -10279692.35842  23115699.342    23115699.155
  20541309.468   -26838335.05944 -20858049.57842  20541311.978    20541308.939
  20895387.273   -24482232.21844 -19031634.73142  20895389.160    20895387.482
  23713169.463    -9141410.94543  -6533907.54942  23713171.947    23713172.289
  23513632.993    -7718829.09343  -5958973.16242  23513634.448    23513634.325
  24170871.085    -8318448.48443  -6420179.38742  24170872.715    24170871.242
  21629545.794   -22434874.56543 -17469546.77942  21629546.441    21629545.040
  23983825.968    -8587182.38443  -6683058.33142  23983827.528    23983829.378
  22887113.536   -14201625.02943 -11014783.54742  22887115.365    22887113.225
 04  7 16  1 41 30.0000000  0  9G 3G13G27G28G10G23G 8G 1G19
  23120284.753   -13187262.24243 -10260908.16642  23120286.700    23120286.347
  20548848.537   -26798717.08144 -20827178.44342  20548851.037    20548848.005
  20891740.680   -24501395.23544 -19046566.95142  20891742.559    20891740.876
  23694700.900    -9238463.33843  -6609532.60342  23694703.394    23694703.652
  23505263.155    -7762812.35943  -5993245.78742  23505264.689    23505264.660
  24190716.370    -8214160.87643  -6338916.43942  24190718.106    24190716.442
  21618356.857   -22493672.96443 -17515363.68642  21618357.453    21618356.075
  24002516.073    -8488966.13943  -6606526.29842  24002517.660    24002519.590
  22877443.294   -14252442.92143 -11054381.86342  22877445.056    22877442.818
 04  7 16  1 42  0.0000000  0  9G 3G13G27G28G10G23G 8G 1G19
  23124979.187   -13162592.37943 -10241684.89042  23124981.296    23124980.806
  20556477.405   -26758627.13944 -20795939.54342  20556479.918    20556476.930
  20888127.350   -24520383.23944 -19061362.79542  20888129.250    20888127.552
  23676268.195    -9335327.10743  -6685010.71442  23676270.758    23676270.834
  23496995.472    -7806259.16143  -6027100.40442  23496996.989    23496997.063
  24210591.366    -8109717.85543  -6257532.43942  24210593.036    24210591.526
  21607203.353   -22552284.74243 -17561035.16742  21607203.949    21607202.615
  24021241.160    -8390565.96043  -6529850.96142  24021242.762    24021244.601
  22867854.282   -14302833.20343 -11093646.98142  22867856.064    22867853.774
 04  7 16  1 42 30.0000000  0  9G 3G13G27G28G10G23G 8G 1G19
  23129780.778   -13137359.94743 -10222023.25142  23129782.840    23129782.371
  20564196.013   -26718065.87244 -20764333.37542  20564198.525    20564195.483
  20884547.360   -24539196.11944 -19076022.17942  20884549.247    20884547.587
  23657871.642    -9432000.91043  -6760340.75342  23657874.203    23657874.328
  23488830.009    -7849168.35443  -6060536.09742  23488831.583    23488831.672
  24230495.521    -8005120.87343  -6176028.43342  24230497.280    24230495.662
  21596085.643   -22610709.12343 -17606560.63442  21596086.187    21596084.762
  24040000.666    -8291983.61443  -6453033.69642  24040002.421    24040004.322
  22858347.158   -14352793.27643 -11132576.87042  22858348.901    22858346.637
 04  7 16  1 43  0.0000000  0  9G 3G13G27G28G10G23G 8G 1G19
  23134689.333   -13111565.55943 -10201923.72942  23134691.345    23134690.923
  20572004.350   -26677032.75844 -20732359.53742  20572006.879    20572003.879
  20881000.714   -24557833.87144 -19090545.09842  20881002.607    20881000.925
  23639511.484    -9528483.38443  -6835521.73942  23639514.072    23639514.166
  23480767.274    -7891538.85243  -6093552.03542  23480768.814    23480768.594
  24250428.759    -7900371.75143  -6094405.89942  24250430.372    24250428.832
  21585003.386   -22668946.38543 -17651940.28542  21585003.968    21585002.581
  24058794.668    -8193220.59443  -6376075.64942  24058796.417    24058798.360
  22848922.258   -14402321.25543 -11171170.05142  22848924.034    22848921.778
 04  7 16  1 43 30.0000000  0  9G 3G13G27G28G10G23G 8G 1G19
  23139705.053   -13085207.78843 -10181385.19342  23139707.064    23139706.665
  20579902.630   -26635526.96844 -20700017.37442  20579905.172    20579902.114
  20877487.796   -24576294.47544 -19104929.98042  20877489.688    20877487.973
  23621188.482    -9624771.22043  -6910551.06742  23621190.990    23621191.083
  23472807.469    -7933367.63943  -6126145.86642  23472809.040    23472808.798
  24270390.997    -7795470.24043  -6012664.61742  24270392.580    24270391.110
  21573957.229   -22726994.12943 -17697172.26842  21573957.849    21573956.431
  24077623.198    -8094276.58443  -6298976.53942  24077624.900    24077626.817
  22839580.419   -14451412.97343 -11209423.30442  22839582.172    22839579.923
 04  7 16  1 44  0.0000000  0  9G 3G13G27G28G10G23G 8G 1G19
  23144826.772   -13058292.92443 -10160412.59242  23144828.748    23144828.416
  20587889.778   -26593554.29244 -20667311.41142  20587892.337    20587889.246
  20874007.542   -24594583.13944 -19119180.88742  20874009.441    20874007.763
  23602901.593    -9720868.32943  -6985431.76942  23602904.095    23602904.219
  23464949.801    -7974658.91443  -6158320.84542  23464951.439    23464951.375
  24290381.003    -7690423.66543  -5930810.26942  24290382.604    24290380.945
  21562946.090   -22784857.95843 -17742260.94242  21562946.724    21562945.375
  24096485.059    -7995158.63243  -6221741.94042  24096486.565    24096488.662
  22830320.949   -14500071.67543 -11247339.13042  22830322.725    22830320.478
 04  7 16  1 44 30.0000000  0  9G 3G13G27G28G10G23G 8G 1G19
  23150055.641   -13030814.67343 -10139000.96142  23150057.713    23150057.455
  20595967.102   -26551107.74344 -20634236.19142  20595969.670    20595966.558
  20870561.343   -24612693.03744 -19133292.49042  20870563.256    20870561.577
  23584652.718    -9816766.35343  -7060157.36542  23584655.149    23584655.196
  23457196.142    -8015404.71243  -6190070.77642  23457197.754    23457197.676
  24310399.333    -7585226.61843  -5848838.74742  24310401.064    24310399.440
  21551971.425   -22842530.14343 -17787200.27342  21551972.080    21551970.757
  24115380.889    -7895861.19343  -6144367.47842  24115382.322    24115384.475
  22821145.645   -14548287.89343 -11284910.15842  22821147.431    22821145.145
 04  7 16  1 45  0.0000000  0  9G 3G13G27G28G10G23G 8G 1G19
  23155391.125   -13002776.77243 -10117153.25142  23155393.135    23155392.975
  20604133.871   -26508191.03544 -20600794.62042  20604136.452    20604133.355
  20867148.634   -24630626.76344 -19147266.82142  20867150.566    20867148.875
  23566441.287    -9912466.78743  -7134728.97642  23566443.779    23566443.860
  23449545.957    -8055606.67543  -6221396.94742  23449547.582    23449547.357
  24330445.586    -7479883.74643  -5766753.57342  24330447.241    24330445.718
  21541032.761   -22900013.40743 -17831992.39942  21541033.431    21541031.953
  24134309.945    -7796388.75243  -6066856.67342  24134311.442    24134313.565
  22812054.411   -14596062.54443 -11322137.11842  22812056.123    22812053.889
 04  7 16  1 45 30.0000000  0  9G 3G13G27G28G10G23G 8G 1G19
  23160832.891   -12974180.54443 -10094870.48842  23160834.923    23160834.696
  20612389.958   -26464805.14044 -20566987.44842  20612392.503    20612389.404
  20863769.416   -24648384.63744 -19161104.12742  20863771.341    20863769.632
  23548267.907   -10007968.87943  -7209146.04342  23548270.225    23548270.398
  23441999.427    -8095263.95343  -6252298.69842  23442001.042    23442000.860
  24350519.150    -7374397.10843  -5684556.31742  24350520.904    24350519.243
  21530129.902   -22957307.90343 -17876637.43042  21530130.582    21530129.092
  24153271.903    -7696743.37943  -5989211.09242  24153273.491    24153275.508
  22803047.500   -14643393.91843 -11359018.67042  22803049.152    22803046.930
 04  7 16  1 46  0.0000000  0  9G 3G13G27G28G10G23G 8G 1G19
  23166380.831   -12945025.35943 -10072152.17142  23166382.891    23166382.714
  20620735.462   -26420949.17744 -20532813.98942  20620737.995    20620734.951
  20860423.897   -24665965.33444 -19174803.37042  20860425.789    20860424.136
  23530132.720   -10103269.75943  -7283406.33342  23530134.970    23530135.107
  23434557.010    -8134374.47843  -6282774.40442  23434558.499    23434558.411
  24370619.853    -7268767.22143  -5602247.49442  24370621.769    24370620.040
  21519263.151   -23014412.28543 -17921134.32442  21519263.832    21519262.442
  24172266.798    -7596925.31243  -5911430.94742  24172268.392    24172270.476
  22794125.584   -14690278.70843 -11395552.22642  22794127.225    22794124.907
 04  7 16  1 46 30.0000000  0  9G 3G13G27G28G10G23G 8G 1G19
  23172035.357   -12915310.96943 -10048998.11442  23172037.341    23172037.167
  20629170.588   -26376622.45944 -20498273.70442  20629173.104    20629170.071
  20857112.456   -24683367.27744 -19188363.32642  20857114.305    20857112.674
  23512036.211   -10198366.84743  -7357507.81942  23512038.529    23512038.493
  23427218.917    -8172935.89643  -6312822.23842  23427220.444    23427220.292
  24390747.961    -7162994.49743  -5519827.36642  24390749.709    24390748.122
  21508432.908   -23071325.27943 -17965482.08242  21508433.534    21508432.228
  24191294.414    -7496934.85443  -5833516.46742  24191296.046    24191298.072
  22785289.354   -14736713.82243 -11431735.38742  22785290.957    22785288.563
 04  7 16  1 47  0.0000000  0  9G 3G13G27G28G10G23G 8G 1G19
  23177795.332   -12885041.88943 -10025411.83342  23177797.360    23177797.162
  20637694.513   -26331828.83244 -20463369.59642  20637697.036    20637694.003
  20853834.338   -24700594.04144 -19201786.77142  20853836.193    20853834.508
  23493978.052   -10293262.36143  -7431452.22742  23493980.356    23493980.201
  23419985.057    -8210950.81543  -6342444.23042  23419986.461    23419986.182
  24410902.185    -7057084.10643  -5437299.95242  24410903.955    24410902.323
  21497638.619   -23128049.96143 -18009683.10542  21497639.197    21497637.859
  24210353.867    -7396777.26943  -5755471.76542  24210355.442    24210357.440
  22776538.400   -14782700.63143 -11467569.22542  22776539.983    22776537.546
 04  7 16  1 47 30.0000000  0  9G 3G13G27G28G10G23G 8G 1G19
  23183661.332   -12854215.59743 -10001391.34242  23183663.402    23183663.193
  20646307.878   -26286565.30244 -20428099.33042  20646310.400    20646307.384
  20850590.233   -24717642.04244 -19215070.92642  20850592.088    20850590.393
  23475959.140   -10387951.39043  -7505235.76142  23475961.458    23475961.378
  23412856.040    -8248414.35243  -6371636.57342  23412857.477    23412857.074
  24431082.925    -6951034.16443  -5354663.84542  24431084.607    24431083.349
  21486880.808   -23184582.55543 -18053734.44942  21486881.395    21486880.024
  24229445.725    -7296450.35243  -5677295.10142  24229447.196    24229449.170
  22767873.686   -14828233.50943 -11503049.34042  22767875.380    22767872.930
 04  7 16  1 48  0.0000000  0  9G 3G13G27G28G10G23G 8G 1G19
  23189633.067   -12822833.71143  -9976937.93442  23189635.094    23189635.015
  20655010.335   -26240833.52644 -20392464.19842  20655012.858    20655009.888
  20847379.978   -24734512.05944 -19228216.39142  20847381.828    20847380.147
  23457979.640   -10482433.72043  -7578858.21042  23457981.910    23457981.925
  23405831.834    -8285326.60443  -6400399.33842  23405833.296    23405832.974
  24451289.738    -6844847.54043  -5271921.19542  24451291.417    24451290.020
  21476159.357   -23240924.03743 -18097636.87742  21476159.950    21476158.583
  24248569.127    -7195956.80743  -5598988.65642  24248570.546    24248572.631
  22759295.470   -14873311.58343 -11538175.07042  22759297.214    22759294.854
 04  7 16  1 48 30.0000000  0  9G 3G13G27G28G10G23G 8G 1G19
  23195709.874   -12790899.96643  -9952054.49242  23195711.783    23195711.708
  20663801.355   -26194636.71844 -20356466.70942  20663803.853    20663800.848
  20844203.072   -24751206.56044 -19241225.09242  20844204.946    20844203.290
  23440039.270   -10576710.52643  -7652320.50742  23440041.500    23440041.492
  23398912.049    -8321689.70843  -6428734.18242  23398913.607    23398913.218
  24471521.735    -6738528.76043  -5189075.55642  24471523.395    24471522.165
  21465473.959   -23297076.43243 -18141391.96042  21465474.500    21465473.117
  24267723.579    -7095300.71043  -5520555.50942  24267724.991    24267727.014
  22750803.849   -14917935.38243 -11572946.82742  22750805.558    22750803.133
 04  7 16  1 49  0.0000000  0  9G 3G13G27G28G10G23G 8G 1G19
  23201892.685   -12758409.28643  -9926737.10642  23201894.512    23201894.488
  20672681.810   -26147969.68444 -20320102.80742  20672684.363    20672681.335
  20841060.744   -24767719.67044 -19254092.44542  20841062.613    20841060.977
  23422139.534   -10670774.56943  -7725617.03442  23422141.689    23422141.504
  23392098.168    -8357496.78243  -6456635.77942  23392099.651    23392099.274
  24491779.576    -6632073.63943  -5106123.67342  24491781.229    24491780.164
  21454825.635   -23353033.74543 -18184995.03242  21454826.195    21454824.788
  24286909.704    -6994478.20643  -5441992.69142  24286911.111    24286913.156
  22742400.246   -14962096.87743 -11607358.33542  22742401.898    22742399.441
 04  7 16  1 49 30.0000000  0  9G 3G13G27G28G10G23G 8G 1G19
  23208181.179   -12725362.79843  -9900986.60042  23208183.041    23208183.066
  20681651.635   -26100832.84844 -20283372.82142  20681654.182    20681651.217
  20837953.005   -24784051.09144 -19266818.21642  20837954.876    20837953.199
  23404280.209   -10764624.50643  -7798746.71442  23404282.487    23404282.333
  23385390.126    -8392746.92143  -6484103.39142  23385391.625    23385391.510
  24512063.061    -6525483.74743  -5023066.77542  24512064.837    24512063.797
  21444214.403   -23408795.74443 -18228445.91242  21444215.007    21444213.662
  24306126.934    -6893490.85143  -5363301.42242  24306128.465    24306130.581
  22734084.904   -15005793.92943 -11641407.95442  22734086.585    22734084.077
 04  7 16  1 50  0.0000000  0  9G 3G13G27G28G10G23G 8G 1G19
  23214574.058   -12691769.12743  -9874809.72342  23214575.857    23214575.843
  20690709.267   -26053234.70744 -20246283.38142  20690711.828    20690708.857
  20834878.414   -24800208.35344 -19279408.28542  20834880.276    20834878.537
  23386460.462   -10858266.77143  -7871714.57242  23386462.780    23386462.573
  23378787.091    -8427446.64343  -6511142.10142  23378788.534    23378788.456
  24532370.358    -6418768.77743  -4939912.43342  24532372.081    24532371.013
  21433638.892   -23464370.18143 -18271750.64042  21433639.482    21433638.236
  24325373.840    -6792347.87643  -5284488.89342  24325375.434    24325377.631
  22725856.893   -15049032.51943 -11675100.32042  22725858.565    22725856.071
 04  7 16  1 50 30.0000000  0  9G 3G13G27G28G10G23G 8G 1G19
  23221071.686   -12657623.68143  -9848202.89142  23221073.510    23221073.648
  20699855.713   -26005170.03944 -20208830.41742  20699858.269    20699855.244
  20831838.033   -24816185.56444 -19291858.05342  20831839.906    20831838.155
  23368681.783   -10951694.44543  -7944515.22142  23368684.016    23368683.707
  23372289.854    -8461589.40343  -6537746.82342  23372291.337    23372291.257
  24552702.328    -6311924.49343  -4856657.33842  24552704.049    24552702.871
  21423100.331   -23519750.48943 -18314904.10842  21423100.955    21423099.670
  24344651.222    -6691045.00143  -5205551.80442  24344652.738    24344655.288
  22717717.460   -15091804.77443 -11708429.30142  22717719.207    22717716.748
 04  7 16  1 51  0.0000000  0  9G 3G13G27G28G10G23G 8G 1G19
  23227674.296   -12622925.92143  -9821165.67842  23227676.242    23227676.358
  20709091.069   -25956637.90944 -20171013.19442  20709093.641    20709090.636
  20828832.200   -24831981.30144 -19304166.41342  20828834.079    20828832.326
  23350944.261   -11044904.61843  -8017146.37342  23350946.517    23350946.255
  23365899.154    -8495173.11543  -6563915.93642  23365900.559    23365900.358
  24573058.933    -6204951.40143  -4773301.85642  24573060.591    24573059.259
  21412598.982   -23574935.43243 -18357905.33642  21412599.619    21412598.246
  24363958.968    -6589582.58843  -5126490.30642  24363960.414    24363962.944
  22709667.539   -15134107.34543 -11741392.30442  22709669.254    22709666.771
 04  7 16  1 51 30.0000000  0  9G 3G13G27G28G10G23G 8G 1G19
  23234381.540   -12587679.34243  -9793700.81542  23234383.446    23234383.453
  20718414.802   -25907641.48844 -20132834.19142  20718417.348    20718414.393
  20825860.531   -24847597.49544 -19316334.87242  20825862.404    20825860.653
  23333248.069   -11137898.32943  -8089608.88542  23333250.318    23333250.041
  23359614.355    -8528199.53143  -6589650.77542  23359615.837    23359615.687
  24593438.992    -6097853.52143  -4689849.08942  24593440.812    24593439.507
  21402134.512   -23629926.98843 -18400755.87942  21402135.087    21402133.672
  24383296.255    -6487964.73343  -5047307.73242  24383297.665    24383300.308
  22701706.854   -15175940.60743 -11773989.61442  22701708.576    22701706.148
 04  7 16  1 52  0.0000000  0  9G 3G13G27G28G10G23G 8G 1G19
  23241193.048   -12551884.47743  -9765808.72942  23241194.933    23241195.034
  20727826.878   -25858180.84044 -20094293.44842  20727829.379    20727826.495
  20822923.169   -24863033.50444 -19328362.92442  20822925.037    20822923.254
  23315593.265   -11230673.83543  -8161901.34042  23315595.551    23315595.317
  23353435.981    -8560666.77843  -6614949.90942  23353437.468    23353437.509
  24613842.650    -5990631.86843  -4606299.91542  24613844.589    24613843.120
  21391707.075   -23684723.58643 -18443454.50542  21391707.695    21391706.259
  24402663.078    -6386192.14443  -4968004.58842  24402664.405    24402667.242
  22693836.071   -15217301.89543 -11806219.15042  22693837.752    22693835.290
 04  7 16  1 52 30.0000000  0  9G 3G13G27G28G10G23G 8G 1G19
  23248109.086   -12515540.74343  -9737488.94942  23248110.952    23248111.046
  20737327.533   -25808254.71044 -20055389.99742  20737330.019    20737327.152
  20820020.452   -24878287.25144 -19340248.95742  20820022.345    20820020.501
  23297980.699   -11323227.59343  -8234021.01842  23297982.977    23297982.754
  23347364.557    -8592572.27343  -6639811.31242  23347366.011    23347366.042
  24634269.957    -5883286.61043  -4522654.40742  24634271.900    24634270.383
  21381316.931   -23739323.79743 -18486000.10042  21381317.565    21381316.193
  24422059.471    -6284264.86343  -4888580.89542  24422060.814    24422063.540
  22686055.673   -15258187.61143 -11838078.10442  22686057.396    22686054.916
 04  7 16  1 53  0.0000000  0  9G 3G13G27G28G10G23G 8G 1G19
  23255128.961   -12478650.97043  -9708743.68142  23255130.830    23255130.929
  20746916.206   -25757866.06744 -20016126.13942  20746918.702    20746915.805
  20817152.127   -24893360.43544 -19351994.29442  20817154.027    20817152.149
  23280410.395   -11415560.69343  -8305968.74342  23280412.538    23280412.158
  23341399.802    -8623917.32443  -6664235.99942  23341401.281    23341401.261
  24654719.923    -5775821.39543  -4438915.44842  24654721.808    24654720.537
  21370963.893   -23793729.10143 -18528393.82142  21370964.541    21370963.143
  24441484.497    -6182186.50643  -4809039.51942  24441485.994    24441488.623
  22678365.969   -15298597.67143 -11869566.42442  22678367.625    22678365.108
 04  7 16  1 53 30.0000000  0  9G 3G13G27G28G10G23G 8G 1G19
  23262252.151   -12441218.14643  -9679575.24242  23262254.090    23262254.110
  20756592.482   -25707017.11944 -19976503.60942  20756594.978    20756592.044
  20814317.800   -24908254.73444 -19363600.24242  20814319.703    20814317.855
  23262881.824   -11507673.46943  -8377744.81742  23262884.037    23262883.632
  23335541.504    -8654703.01243  -6688224.83042  23335542.901    23335542.955
  24675192.207    -5668239.90243  -4355085.94142  24675193.965    24675192.809
  21360647.717   -23847941.23543 -18570637.01942  21360648.302    21360646.830
  24460937.515    -6079960.50043  -4729383.01842  24460939.170    24460941.782
  22670766.656   -15338532.30343 -11900684.27942  22670768.357    22670765.739
 04  7 16  1 54  0.0000000  0  9G 3G13G27G28G10G23G 8G 1G19
  23269479.828   -12403236.54243  -9649979.18342  23269481.669    23269481.731
  20766357.543   -25655701.52744 -19936517.46142  20766360.042    20766357.090
  20811518.895   -24922963.03244 -19375061.25042  20811520.782    20811518.959
  23245396.690   -11599557.81043  -8449342.87742  23245398.965    23245398.550
  23329790.973    -8684921.95343  -6711772.03242  23329792.361    23329792.347
  24695687.591    -5560536.68143  -4271161.54942  24695689.528    24695688.298
  21350369.550   -23901953.05643 -18612724.12142  21350370.173    21350368.713
  24480419.695    -5977581.60943  -4649607.41542  24480421.426    24480423.973
  22663259.467   -15377982.42343 -11931424.58842  22663261.200    22663258.618
 04  7 16  1 54 30.0000000  0  9G 3G13G27G28G10G23G 8G 1G19
  23276810.177   -12364714.80443  -9619962.24842  23276812.040    23276812.038
  20776209.790   -25603927.50844 -19896174.09142  20776212.296    20776209.369
  20808754.088   -24937492.42844 -19386382.85742  20808755.971    20808754.134
  23227953.895   -11691219.77243  -8520767.65242  23227956.199    23227955.732
  23324147.033    -8714580.66043  -6734882.69442  23324148.493    23324148.464
  24716204.418    -5452720.89543  -4187149.43242  24716206.218    24716205.091
  21340128.321   -23955771.01643 -18654660.16842  21340128.934    21340127.498
  24499929.171    -5875058.84743  -4569719.73742  24499931.131    24499933.529
  22655843.480   -15416953.59443 -11961791.71742  22655845.201    22655842.685
 04  7 16  1 55  0.0000000  0  9G 3G13G27G28G10G23G 8G 1G19
  23284243.815   -12325651.27843  -9589523.14442  23284245.624    23284245.615
  20786149.597   -25551693.34844 -19855472.17342  20786152.089    20786149.252
  20806023.793   -24951839.89744 -19397562.69742  20806025.717    20806023.895
  23210554.175   -11782655.12943  -8592015.86142  23210556.542    23210556.033
  23318610.372    -8743675.74643  -6757554.17142  23318611.889    23318611.888
  24736742.847    -5344791.58243  -4103048.86442  24736744.552    24736743.582
  21329924.409   -24009392.67543 -18696443.25542  21329925.050    21329923.588
  24519466.117    -5772391.25443  -4489719.18342  24519468.088    24519470.738
  22648519.510   -15455441.15843 -11991782.00442  22648521.195    22648518.708
 04  7 16  1 55 30.0000000  0  7G 3G13G27G28G10G 8G19
  23291783.988   -12286027.87143  -9558647.78942  23291785.780    23291785.771
  20796180.473   -25498980.88644 -19814397.54742  20796182.953    20796180.122
  20803331.903   -24965986.08744 -19408585.69742  20803333.770    20803331.970
  23193201.515   -11873843.69343  -8663071.77742  23193203.914    23193203.277
  23313184.896    -8772187.38343  -6779771.01242  23313186.311    23313186.268
  21319761.680   -24062798.12543 -18738057.87042  21319762.287    21319760.842
  22641291.638   -15493424.18643 -12021379.13342  22641293.271    22641290.807
 04  7 16  1 56  0.0000000  0  7G 3G13G27G28G10G 8G19
  23299423.230   -12245883.94543  -9527366.81042  23299425.041    23299424.928
  20806295.203   -25445827.85344 -19772979.62642  20806297.683    20806294.795
  20800671.145   -24979968.43644 -19419481.02842  20800673.048    20800671.191
  23175888.731   -11964821.99843  -8733963.85342  23175891.194    23175890.553
  23307863.334    -8800152.53943  -6801562.02642  23307864.812    23307864.625
  21309633.050   -24116024.57343 -18779533.00242  21309633.612    21309632.207
  22634152.823   -15530938.65043 -12050611.14342  22634154.463    22634151.984
 04  7 16  1 56 30.0000000  0  7G 3G13G27G28G10G 8G19
  23307165.406   -12205197.98143  -9495663.46242  23307167.396    23307167.246
  20816497.923   -25392212.49844 -19731201.44942  20816500.433    20816497.495
  20798045.909   -24993764.10644 -19430230.89942  20798047.820    20798045.964
  23158620.688   -12055565.81043  -8804673.20542  23158623.067    23158622.541
  23302650.082    -8827548.07843  -6822909.18842  23302651.617    23302651.350
  21299542.664   -24169049.67643 -18820851.24242  21299543.285    21299541.840
  22627107.875   -15567959.93643 -12079458.86442  22627109.541    22627107.017
 04  7 16  1 57  0.0000000  0  7G 3G13G27G28G10G 8G19
  23315010.285   -12163973.05043  -9463540.15242  23315012.162    23315012.069
  20826788.010   -25338137.80844 -19689065.35042  20826790.525    20826787.609
  20795455.832   -25007374.74244 -19440836.58442  20795457.762    20795455.962
  23141397.213   -12146075.77743  -8875200.34542  23141399.547    23141398.998
  23297544.968    -8854375.28343  -6843813.49042  23297546.552    23297546.251
  21289490.431   -24221874.40943 -18862013.34442  21289491.023    21289489.567
  22620156.688   -15604488.34143 -12107922.52742  22620158.365    22620155.887
 04  7 16  1 57 30.0000000  0  7G 3G13G27G28G10G 8G19
  23322956.800   -12122214.27043  -9431000.86542  23322958.623    23322958.487
  20837164.622   -25283608.31944 -19646574.85542  20837167.151    20837164.228
  20792900.424   -25020803.69044 -19451300.69842  20792902.306    20792900.537
  23124217.674   -12236354.58543  -8945547.37742  23124220.002    23124219.456
  23292547.444    -8880637.26443  -6864277.35042  23292549.085    23292548.786
  21279475.636   -24274502.55643 -18903022.27442  21279476.219    21279474.688
  22613298.932   -15640525.88443 -12136003.69442  22613300.628    22613298.177
 04  7 16  1 58  0.0000000  0  7G 3G13G27G28G10G 8G19
  23331005.362   -12079918.97243  -9398043.49242  23331007.234    23331007.005
  20847628.359   -25228620.84244 -19603727.49642  20847630.896    20847627.989
  20790380.398   -25034046.73244 -19461619.94942  20790382.256    20790380.478
  23107083.112   -12326396.97643  -9015710.17642  23107085.333    23107084.802
  23287658.449    -8906329.53143  -6884297.30342  23287659.978    23287659.719
  21269499.107   -24326929.52643 -18943874.44242  21269499.686    21269498.156
  22606535.747   -15676066.53043 -12163697.68442  22606537.427    22606535.010
 04  7 16  1 58 30.0000000  0  7G 3G13G27G28G10G 8G19
  23339155.574   -12037088.62843  -9364669.21642  23339157.569    23339157.356
  20858179.227   -25173176.13644 -19560523.85242  20858181.726    20858178.787
  20787895.765   -25047103.52244 -19471794.06742  20787897.622    20787895.841
  23089993.737   -12416201.52543  -9085687.66742  23089996.013    23089995.454
  23282877.821    -8931451.21543  -6903872.63142  23282879.392    23282879.136
  21259560.861   -24379154.97443 -18984569.57442  21259561.447    21259559.959
  22599867.403   -15711108.68743 -12191003.23342  22599869.081    22599866.689
 04  7 16  1 59  0.0000000  0  7G 3G13G27G28G10G 8G19
  23347407.197   -11993726.10043  -9330880.22342  23347409.109    23347408.873
  20868816.493   -25117276.99144 -19516966.10142  20868818.997    20868816.072
  20785446.260   -25059975.65244 -19481824.29742  20785448.121    20785446.360
  23072949.393   -12505768.93243  -9155480.34742  23072951.684    23072951.306
  23278205.639    -8956004.07643  -6923004.72542  23278207.050    23278206.928
  21249660.705   -24431180.64543 -19025109.03742  21249661.278    21249659.762
  22593293.889   -15745652.44943 -12217920.42242  22593295.576    22593293.206
 04  7 16  1 59 30.0000000  0  7G 3G13G27G28G10G 8G19
  23355759.969   -11949831.38243  -9296676.56142  23355762.002    23355761.712
  20879540.302   -25060922.84344 -19473053.79842  20879542.808    20879539.929
  20783032.223   -25072661.47844 -19491709.35342  20783034.061    20783032.329
  23055951.068   -12595096.39343  -9225086.07042  23055953.201    23055952.584
  23273642.049    -8979986.04143  -6941691.95542  23273643.462    23273643.291
  21239798.928   -24483004.35143 -19065491.12342  21239799.535    21239798.057
  22586815.935   -15779694.52243 -12244446.68242  22586817.593    22586815.187
 04  7 16  2  0  0.0000000  0  7G 3G13G27G28G10G 8G19
  23364213.657   -11905406.76743  -9262060.01342  23364215.690    23364215.461
  20890350.524   -25004114.93344 -19428787.91642  20890352.995    20890350.110
  20780653.655   -25085161.09944 -19501449.31642  20780655.497    20780653.726
  23038998.326   -12684183.31343  -9294504.35342  23039000.484    23038999.777
  23269186.899    -9003397.14143  -6959934.35442  23269188.395    23269188.290
  21229975.691   -24534626.06444 -19105715.81842  21229976.263    21229974.737
  22580433.631   -15813234.02743 -12270581.32842  22580435.274    22580432.754
 04  7 16  2  0 30.0000000  0  7G 3G13G27G28G10G 8G19
  23372768.105   -11860453.28643  -9227031.34642  23372770.087    23372770.016
  20901246.862   -24946854.35944 -19384169.30742  20901249.332    20901246.494
  20778310.526   -25097474.17144 -19511043.91442  20778312.408    20778310.611
  23022091.605   -12773028.56043  -9363734.33142  23022093.767    23022093.016
  23264840.506    -9026236.93443  -6977731.59042  23264841.966    23264841.967
  21220190.794   -24586046.04543 -19145783.31942  21220191.369    21220189.809
  22574147.124   -15846269.17043 -12296322.97542  22574148.818    22574146.337
 04  7 16  2  1  0.0000000  0  7G 3G13G27G28G10G 8G19
  23381422.829   -11814972.73443  -9191591.98242  23381424.736    23381424.760
  20912229.139   -24889142.28244 -19339198.88442  20912231.596    20912228.773
  20776002.858   -25109600.90844 -19520493.31842  20776004.757    20776002.976
  23005231.014   -12861631.07643  -9432775.16742  23005233.121    23005232.438
  23260602.940    -9048505.64743  -6995083.81842  23260604.287    23260604.329
  21210444.291   -24637263.85243 -19185693.28442  21210444.894    21210443.393
  22567956.978   -15878798.82143 -12321670.73742  22567958.656    22567956.171
 04  7 16  2  1 30.0000000  0  7G 3G13G27G28G10G 8G19
  23390177.874   -11768965.66743  -9155742.34742  23390179.666    23390179.674
  20923297.343   -24830978.60644 -19293876.56542  20923299.794    20923296.971
  20773730.967   -25121539.85144 -19529796.39242  20773732.838    20773731.087
  22988417.052   -12949988.79943  -9501625.25442  22988419.122    22988418.380
  23256474.376    -9070201.51843  -7011989.67642  23256475.721    23256475.745
  21200736.660   -24688278.03043 -19225444.58542  21200737.222    21200735.716
  22561863.480   -15910819.94243 -12346622.23742  22561865.145    22561862.751
 04  7 16  2  2  0.0000000  0  7G 3G13G27G28G10G 8G19
  23399032.555   -11722434.10443  -9119484.02342  23399034.398    23399034.363
  20934451.221   -24772364.68444 -19248203.40742  20934453.680    20934450.860
  20771494.786   -25133290.99244 -19538953.13042  20771496.669    20771494.919
  22971649.861   -13038100.78943  -9570283.86342  22971651.909    22971651.107
  23252454.851    -9091324.58743  -7028449.22542  23252456.229    23252456.117
  21191067.685   -24739088.73643 -19265037.33542  21191068.246    21191066.696
  22555867.093   -15942331.55943 -12371176.73442  22555868.698    22555866.191
 04  7 16  2  2 30.0000000  0  7G 3G13G27G28G10G 8G19
  23407986.983   -11675378.04743  -9082816.98542  23407988.853    23407988.881
  20945690.838   -24713300.09244 -19202179.08342  20945693.280    20945690.463
  20769294.685   -25144852.81144 -19547962.34942  20769296.532    20769294.751
  22954929.918   -13125964.69943  -9638749.16442  22954931.979    22954931.027
  23248544.468    -9111873.42843  -7044461.31242  23248545.853    23248545.859
  21181437.704   -24789694.28543 -19304470.21942  21181438.285    21181436.743
  22549968.063   -15973330.80443 -12395331.96842  22549969.684    22549967.178
 04  7 16  2  3  0.0000000  0  7G 3G13G27G28G10G 8G19
  23417040.581   -11627801.63643  -9045744.55242  23417042.292    23417042.320
  20957015.559   -24653788.61844 -19155806.56242  20957017.976    20957015.106
  20767130.143   -25156227.59644 -19556825.84842  20767131.963    20767130.185
  22938256.834   -13213581.99443  -9707022.34442  22938258.942    22938258.002
  23244743.012    -9131850.47443  -7060027.91242  23244744.370    23244744.458
  21171846.411   -24840097.00543 -19343745.08642  21171846.955    21171845.369
  22544166.507   -16003818.73043 -12419088.82042  22544168.107    22544165.512
 04  7 16  2  3 30.0000000  0  7G 3G13G27G28G10G 8G19
  23426193.671   -11579702.16543  -9008264.62142  23426195.323    23426195.282
  20968425.950   -24593826.99344 -19109083.32342  20968428.325    20968425.427
  20765002.098   -25167410.77344 -19565540.09342  20765003.905    20765002.109
  22921631.802   -13300947.11143  -9775099.11442  22921633.921    22921632.931
  23241051.323    -9151251.10443  -7075145.43342  23241052.645    23241052.702
  21162294.721   -24890292.02444 -19382858.15642  21162295.196    21162293.612
  22538463.249   -16033789.65643 -12442442.87642  22538464.815    22538462.199
 04  7 16  2  4  0.0000000  0  7G 3G13G27G28G10G 8G19
  23435445.460   -11531083.91843  -8970380.40942  23435447.159    23435447.050
  20979921.268   -24533418.75044 -19062012.03942  20979923.666    20979920.798
  20762910.091   -25178404.68344 -19574106.82042  20762911.872    20762910.108
  22905054.376   -13388061.67743  -9842980.56442  22905056.480    22905055.607
  23237468.825    -9170077.55843  -7089815.47142  23237470.205    23237470.164
  21152782.016   -24940281.88144 -19421811.32342  21152782.491    21152780.881
  22532858.185   -16063244.94243 -12465395.08442  22532859.701    22532857.018
 04  7 16  2  4 30.0000000  0  7G 3G13G27G28G10G 8G19
  23444795.865   -11481947.85743  -8932092.63742  23444797.633    23444797.424
  20991501.464   -24472564.65544 -19014593.31942  20991503.828    20991501.044
  20760854.271   -25189208.29244 -19582525.24242  20760856.071    20760854.316
  22888525.062   -13474923.83843  -9910665.31942  22888527.145    22888526.194
  23233995.830    -9188328.82543  -7104037.28742  23233997.228    23233997.037
  21143308.517   -24990065.21943 -19460603.54142  21143309.035    21143307.473
  22527351.628   -16092181.95643 -12487943.42342  22527353.185    22527350.506
 04  7 16  2  5  0.0000000  0  8G 3G13G27G28G31G10G 8G19
  23454239.713   -11432319.93943  -8893421.58742  23454241.685    23454241.446
  21003161.731   -24411289.91844 -18966846.80442  21003164.122    21003161.314
  20758829.978   -25199846.14344 -19590814.48242  20758831.771    20758830.007
  22872039.216   -13561557.12243  -9978171.69742  22872041.352    22872040.463
  24649468.689    -7127491.64653  -5241550.93852  24649471.062    24649475.135
  23230627.470    -9206029.63743  -7117830.13942  23230628.892    23230628.826
  21133869.750   -25039666.49344 -19499253.87542  21133870.227    21133868.706
  22521939.155   -16120624.31643 -12510106.29742  22521940.711    22521938.124
 04  7 16  2  5 30.0000000  0  8G 3G13G27G28G31G10G 8G19
  23463786.781   -11382149.99343  -8854328.15942  23463788.677    23463788.696
  21014911.620   -24349543.72744 -18918732.92342  21014914.072    21014911.339
  20756847.155   -25210265.69344 -19598933.60942  20756849.017    20756847.219
  22855607.216   -13647908.05243 -10045458.04242  22855609.321    22855608.433
  24627815.509    -7241279.58843  -5330216.63242  24627817.834    24627821.996
  23227373.844    -9223127.66443  -7131153.26642  23227375.283    23227375.287
  21124475.590   -25089033.08644 -19537721.33042  21124476.089    21124474.522
  22516631.082   -16148518.19743 -12531841.76042  22516632.614    22516630.078
 04  7 16  2  6  0.0000000  0  8G 3G13G27G28G31G10G 8G19
  23473430.954   -11331469.85343  -8814837.16442  23473432.818    23473433.030
  21026745.298   -24287357.49644 -18870276.13842  21026747.744    21026745.067
  20754900.269   -25220496.61144 -19606905.74642  20754902.153    20754900.341
  22839223.192   -13734006.20843 -10112547.42442  22839225.355    22839224.368
  24606149.430    -7355134.74043  -5418934.69242  24606151.691    24606155.918
  23224229.175    -9239652.94443  -7144030.09742  23224230.613    23224230.585
  21115120.330   -25138195.04544 -19576029.31642  21115120.888    21115119.322
  22511421.891   -16175892.42543 -12553172.29442  22511423.456    22511420.937
 04  7 16  2  6 30.0000000  0  8G 3G13G27G28G31G10G 8G19
  23483172.606   -11280277.88943  -8774947.33142  23483174.412    23483174.606
  21038663.110   -24224728.94044 -18821474.68542  21038665.574    21038662.918
  20752989.897   -25230535.32344 -19614728.11142  20752991.803    20752990.065
  22822888.102   -13819846.98143 -10179436.23842  22822890.355    22822889.331
  24584471.622    -7469051.13743  -5507700.47142  24584473.991    24584478.089
  23221194.059    -9255602.21543  -7156458.06742  23221195.519    23221195.511
  21105804.846   -25187148.32044 -19614174.69542  21105805.396    21105803.902
  22506312.538   -16202742.31143 -12574094.25742  22506314.062    22506311.612
 04  7 16  2  7  0.0000000  0  8G 3G13G27G28G31G10G 8G19
  23493010.982   -11228577.08543  -8734661.01342  23493012.838    23493012.837
  21050664.632   -24161660.64044 -18772330.58042  21050667.075    21050664.441
  20751115.999   -25240382.83744 -19622401.49942  20751117.868    20751116.174
  22806601.919   -13905430.72543 -10246124.78442  22806604.158    22806603.177
  24562782.463    -7583027.52143  -5596513.03542  24562784.861    24562788.845
  23218268.270    -9270976.62343  -7168438.11342  23218269.799    23218269.807
  21096528.769   -25235894.06244 -19652158.36642  21096529.373    21096527.948
  22501302.841   -16229068.11643 -12594607.83442  22501304.447    22501302.016
 04  7 16  2  7 30.0000000  0  8G 3G13G27G28G31G10G 8G19
  23502946.719   -11176364.46243  -8693975.88642  23502948.571    23502948.561
  21062750.505   -24098148.96144 -18722840.98842  21062753.005    21062750.290
  20749279.396   -25250034.32744 -19629922.13642  20749281.244    20749279.559
  22790365.912   -13990751.51243 -10312608.44342  22790368.117    22790367.082
  24541083.174    -7697056.80343  -5685366.78142  24541085.522    24541089.508
  23215452.991    -9285771.48843  -7179966.56742  23215454.477    23215454.456
  21087293.156   -25284427.35044 -19689976.49442  21087293.788    21087292.302
  22496394.230   -16254863.51743 -12614708.11742  22496395.771    22496393.338
 04  7 16  2  8  0.0000000  0  8G 3G13G27G28G31G10G 8G19
  23512978.389   -11123647.11343  -8652897.47642  23512980.279    23512980.326
  21074919.563   -24034200.22744 -18673010.82942  21074922.062    21074919.339
  20747479.167   -25259494.66244 -19637293.82442  20747481.033    20747479.303
  22774179.089   -14075813.65343 -10378890.55342  22774181.347    22774180.265
  24519373.368    -7811141.57943  -5774263.77442  24519375.579    24519379.642
  23212746.919    -9299992.16343  -7191047.61642  23212748.390    23212748.434
  21078097.046   -25332753.17344 -19727632.95642  21078097.671    21078096.086
  22491585.640   -16280132.60243 -12634398.28542  22491587.225    22491584.781
 04  7 16  2  8 30.0000000  0  8G 3G13G27G28G31G10G 8G19
  23523106.288   -11070424.63443  -8611425.44242  23523108.061    23523108.320
  21087171.914   -23969813.56244 -18622839.42942  21087174.426    21087171.723
  20745715.807   -25268760.93144 -19644514.28742  20745717.721    20745715.975
  22758042.142   -14160613.58443 -10444968.34242  22758044.347    22758043.296
  24497654.075    -7925276.92143  -5863200.16842  24497656.070    24497660.182
  23210150.457    -9313635.99143  -7201679.15742  23210151.976    23210152.064
  21068941.070   -25380868.11644 -19765125.10342  21068941.698    21068940.120
  22486877.946   -16304871.87943 -12653675.61742  22486879.527    22486876.941
 04  7 16  2  9  0.0000000  0  8G 3G13G27G28G31G10G 8G19
  23533329.994   -11016698.05243  -8569560.59242  23533331.866    23533332.048
  21099507.552   -23904989.45144 -18572327.15842  21099510.054    21099507.414
  20743989.541   -25277832.56844 -19651583.08942  20743991.432    20743989.678
  22741955.261   -14245150.07443 -10510840.86142  22741957.515    22741956.414
  24475925.562    -8039459.83943  -5952173.62242  24475927.565    24475931.699
  23207664.073    -9326702.64343  -7211860.95842  23207665.514    23207665.521
  21059825.259   -25428771.93344 -19802452.72942  21059825.881    21059824.315
  22482271.442   -16329079.44043 -12672538.63042  22482273.027    22482270.304
 04  7 16  2  9 30.0000000  0  8G 3G13G27G28G31G10G 8G19
  23543649.306   -10962470.89443  -8527305.68142  23543651.093    23543651.142
  21111925.837   -23839730.83144 -18521476.30442  21111928.348    21111925.793
  20742300.096   -25286710.64344 -19658501.06542  20742301.988    20742300.231
  22725918.448   -14329423.55543 -10576508.43742  22725920.716    22725919.673
  24454188.298    -8153689.26443  -6041183.29742  24454190.330    24454194.337
  23205287.124    -9339193.77543  -7221594.28942  23205288.523    23205288.552
  21050749.402   -25476465.72144 -19839616.69642  21050750.020    21050748.425
  22477765.919   -16352755.58743 -12690987.55442  22477767.558    22477764.754
 04  7 16  2 10  0.0000000  0  8G 3G13G27G28G31G10G 8G19
  23554064.071   -10907740.91243  -8484658.94842  23554065.930    23554065.953
  21124427.371   -23774035.12944 -18470284.87042  21124429.826    21124427.317
  20740648.260   -25295390.98644 -19665264.95842  20740650.145    20740648.404
  22709932.725   -14413429.10243 -10641967.23542  22709934.921    22709933.817
  24432443.468    -8267958.64943  -6130224.10142  24432445.483    24432449.579
  23203020.417    -9351105.64443  -7230876.24142  23203021.812    23203021.832
  21041714.389   -25523944.91944 -19876613.44642  21041715.008    21041713.430
  22473362.570   -16375895.20343 -12709018.38642  22473364.223    22473361.496
 04  7 16  2 10 30.0000000  0  8G 3G13G27G28G31G10G 8G19
  23564573.218   -10852514.17643  -8441625.12842  23564575.208    23564575.339
  21137011.068   -23707907.42044 -18418756.80442  21137013.556    21137010.979
  20739033.359   -25303877.44844 -19671877.77342  20739035.217    20739033.493
  22693997.442   -14497169.89943 -10707219.73142  22693999.590    22693998.409
  24410690.611    -8382269.74343  -6219297.38142  24410692.759    24410696.715
  23200863.128    -9362442.42543  -7239710.09342  23200864.542    23200864.463
  21032719.465   -25571213.43244 -19913446.01842  21032720.083    21032718.539
  22469060.688   -16398501.31543 -12726633.50242  22469062.416    22469059.723
 04  7 16  2 11  0.0000000  0  8G 3G13G27G28G31G10G 8G19
  23575177.296   -10796789.77943  -8398203.53942  23575179.167    23575179.335
  21149677.243   -23641346.44744 -18366891.13742  21149679.729    21149677.112
  20737455.943   -25312166.80444 -19678337.00242  20737457.781    20737456.109
  22678113.097   -14580642.09143 -10772262.92342  22678115.316    22678114.156
  24388930.830    -8496617.01643  -6308398.86142  24388933.119    24388936.852
  23198815.782    -9373201.37643  -7248093.67242  23198817.224    23198817.212
  21023765.292   -25618268.24144 -19950112.07442  21023765.890    21023764.306
  22464861.174   -16420570.11343 -12743829.93442  22464862.852    22464860.187
 04  7 16  2 11 30.0000000  0  8G 3G13G27G28G31G10G 8G19
  23585875.419   -10740570.90943  -8354396.65242  23585877.300    23585877.414
  21162425.403   -23574354.52744 -18314689.66342  21162427.883    21162425.239
  20735915.888   -25320259.84144 -19684643.25742  20735917.727    20735916.068
  22662280.015   -14663845.67743 -10837096.81342  22662282.205    22662280.947
  24367164.222    -8610998.98343  -6397527.39142  24367166.732    24367170.500
  23196878.030    -9383384.32143  -7256028.41542  23196879.451    23196879.514
  21014851.643   -25665109.67944 -19986611.87542  21014852.251    21014850.610
  22460763.861   -16442101.62943 -12760607.71142  22460765.532    22460762.820
 04  7 16  2 12  0.0000000  0  8G 3G13G27G28G31G10G 8G19
  23596667.634   -10683857.32543  -8310204.27742  23596669.480    23596669.641
  21175255.611   -23506931.28944 -18262152.09842  21175258.100    21175255.494
  20734413.653   -25328154.24144 -19690794.73142  20734415.495    20734413.822
  22646498.504   -14746777.76743 -10901719.14642  22646500.714    22646499.444
  24345392.146    -8725411.13843  -6486679.43542  24345394.716    24345398.259
  23195050.345    -9392989.24843  -7263512.76842  23195051.716    23195051.682
  21005978.978   -25711735.63144 -20022943.76442  21005979.595    21005977.920
  22456769.375   -16463092.36443 -12776964.09042  22456771.100    22456768.377
 04  7 16  2 12 30.0000000  0  8G 3G13G27G28G31G10G 8G19
  23607553.617   -10626651.07743  -8265627.98242  23607555.504    23607555.630
  21188167.622   -23439078.03244 -18209279.45542  21188170.125    21188167.638
  20732949.194   -25335849.82844 -19696791.28542  20732951.046    20732949.346
  22630768.788   -14829437.78043 -10966129.47742  22630770.999    22630769.686
  24323614.699    -8839851.04543  -6575853.11142  24323617.336    24323620.706
  23193332.542    -9402016.41243  -7270546.91542  23193333.881    23193333.740
  20997147.421   -25758145.89744 -20059107.58042  20997148.008    20997146.311
  22452878.026   -16483541.57143 -12792898.51642  22452879.656    22452876.951
 04  7 16  2 13  0.0000000  0  8G 3G13G27G28G31G10G 8G19
  23618532.208   -10568958.95943  -8220673.08942  23618534.129    23618533.981
  21201160.458   -23370800.75744 -18156076.40842  21201162.913    21201160.394
  20731521.769   -25343351.11144 -19702636.43642  20731523.611    20731521.868
  22615090.057   -14911829.46443 -11030330.71542  22615092.288    22615091.029
  24301831.620    -8954320.90043  -6665050.12242  24301834.248    24301837.573
  23191723.638    -9410471.01443  -7277134.90342  23191724.998    23191724.954
  20988355.966   -25804344.91844 -20095106.80042  20988356.596    20988354.860
  22449088.978   -16503453.26043 -12808414.09242  22449090.563    22449087.918
 04  7 16  2 13 30.0000000  0  8G 3G13G27G28G31G10G 8G19
  23629604.369   -10510774.38643  -8175334.47842  23629606.366    23629606.203
  21214235.301   -23302092.40944 -18102537.46942  21214237.756    21214235.175
  20730133.015   -25350649.11144 -19708323.18542  20730134.865    20730133.094
  22599464.374   -14993943.27743 -11094315.42542  22599466.503    22599465.230
  24280045.034    -9068809.58543  -6754261.81442  24280047.667    24280050.803
  23190225.313    -9418344.48643  -7283270.07042  23190226.662    23190226.583
  20979606.569   -25850323.59044 -20130934.32442  20979607.148    20979605.398
  22445403.964   -16522817.79243 -12823503.29942  22445405.568    22445402.917
 04  7 16  2 14  0.0000000  0  8G 3G13G27G28G31G10G 8G19
  23640768.459   -10452106.72643  -8129619.44042  23640770.430    23640770.427
  21227390.341   -23232961.91144 -18048669.57742  21227392.879    21227390.274
  20728781.570   -25357750.85044 -19713857.00842  20728783.418    20728781.725
  22583890.152   -15075785.82543 -11158088.75542  22583892.294    22583891.027
  24258253.802    -9183321.71843  -6843491.78642  24258256.627    24258259.527
  23188836.324    -9425644.60443  -7288958.51142  23188837.637    23188837.262
  20970897.706   -25896088.74044 -20166595.46742  20970898.306    20970896.590
  22441821.894   -16541641.62643 -12838171.20642  22441823.524    22441820.830
 04  7 16  2 14 30.0000000  0  8G 3G13G27G28G31G10G 8G19
  23652024.940   -10392953.89343  -8083526.34242  23652026.827    23652026.950
  21240626.306   -23163406.35544 -17994470.47542  21240628.871    21240626.261
  20727468.320   -25364651.86844 -19719234.42242  20727470.178    20727468.518
  22568368.492   -15157352.03543 -11221646.76142  22568370.658    22568369.351
  24236459.511    -9297850.69143  -6932734.87542  24236462.165    24236465.140
  23187556.812    -9432367.82143  -7294197.34242  23187558.279    23187557.841
  20962230.347   -25941635.94244 -20202086.78442  20962230.934    20962229.233
  22438343.819   -16559919.33843 -12852413.55742  22438345.371    22438342.625
 04  7 16  2 15  0.0000000  0  8G 3G13G27G28G31G10G 8G19
  23663373.509   -10333316.92343  -8037056.00942  23663375.379    23663375.525
  21253943.245   -23093425.99244 -17939940.35342  21253945.748    21253943.107
  20726193.618   -25371350.85944 -19724454.41742  20726195.418    20726193.746
  22552899.975   -15238639.80243 -11284987.79742  22552902.063    22552900.767
  24214662.813    -9412392.79643  -7021988.22542  24214665.318    24214668.277
  23186387.327    -9438513.24043  -7298985.98642  23186388.803    23186388.346
  20953604.679   -25986963.99244 -20237407.32842  20953605.256    20953603.571
  22434969.957   -16577648.63343 -12866228.56342  22434971.602    22434968.803
 04  7 16  2 15 30.0000000  0  8G 3G13G27G28G31G10G 8G19
  23674813.504   -10273200.22143  -7990211.86142  23674815.253    23674815.477
  21267340.128   -23023024.81644 -17885082.32442  21267342.662    21267340.024
  20724956.976   -25377849.51544 -19729518.30142  20724958.813    20724957.102
  22537484.096   -15319650.45743 -11348112.89042  22537486.180    22537484.888
  24192863.551    -9526947.56943  -7111251.44442  24192865.937    24192868.739
  23185327.396    -9444083.72743  -7303326.61742  23185328.787    23185328.384
  20945020.431   -26032074.34744 -20272558.24142  20945021.016    20945019.371
  22431700.152   -16594831.39643 -12879617.69942  22431701.856    22431699.027
 04  7 16  2 16  0.0000000  0  8G 3G13G27G28G31G10G 8G19
  23686344.802   -10212602.15943  -7942992.59742  23686346.611    23686346.958
  21280817.512   -22952200.65444 -17829894.70242  21280820.055    21280817.429
  20723759.118   -25384144.16944 -19734423.22742  20723760.993    20723759.264
  22522121.691   -15400379.88643 -11411018.86342  22522123.873    22522122.390
  24171062.927    -9641509.10043  -7200519.92242  24171065.302    24171067.948
  23184377.178    -9449076.40743  -7307217.00042  23184378.715    23184378.365
  20936478.306   -26076963.61644 -20307536.88242  20936478.891    20936477.224
  22428535.173   -16611463.30443 -12892577.60442  22428536.886    22428534.047
 04  7 16  2 16 30.0000000  0  8G 3G13G27G28G31G10G 8G19
  23697966.752   -10151528.60243  -7895402.84942  23697968.461    23697968.877
  21294374.397   -22880958.95844 -17774381.73042  21294376.911    21294374.284
  20722599.440   -25390238.24844 -19739171.86442  20722601.304    20722599.575
  22506812.291   -15480830.98943 -11473707.95142  22506814.450    22506812.989
  24149260.945    -9756078.35143  -7289794.42742  24149263.225    24149265.954
  23183536.347    -9453495.15443  -7310660.16542  23183537.816    23183537.467
  20927977.627   -26121634.87944 -20342345.64842  20927978.226    20927976.574
  22425474.488   -16627547.30743 -12905110.58642  22425476.184    22425473.317
 04  7 16  2 17  0.0000000  0  8G 3G13G27G28G31G10G 8G19
  23709678.630   -10089982.71043  -7847445.04242  23709680.253    23709680.697
  21308010.381   -22809301.71544 -17718544.95542  21308012.865    21308010.283
  20721477.865   -25396132.25644 -19743764.60042  20721479.697    20721477.957
  22491555.845   -15561003.92143 -11536180.29142  22491557.991    22491556.500
  24127457.781    -9870653.62243  -7379073.60042  24127460.140    24127462.885
  23182804.469    -9457341.56243  -7313657.36542  23182805.862    23182805.500
  20919518.329   -26166088.71844 -20376984.99242  20919518.895    20919517.262
  22422518.028   -16643083.41543 -12917216.61842  22422519.758    22422516.945
 04  7 16  2 17 30.0000000  0  8G 3G13G27G28G31G10G 8G19
  23721481.031   -10027960.02843  -7799115.70142  23721482.801    23721483.220
  21321726.269   -22737224.39244 -17662380.84142  21321728.768    21321726.182
  20720395.656   -25401819.33544 -19748196.09542  20720397.500    20720395.729
  22476353.730   -15640891.13443 -11598429.98242  22476355.868    22476354.378
  24105655.135    -9985225.91443  -7468350.49342  24105657.616    24105660.168
  23182182.400    -9460609.58243  -7316203.87442  23182183.928    23182183.661
  20911101.823   -26210318.01644 -20411449.37042  20911102.375    20911100.646
  22419667.387   -16658063.98343 -12928889.76742  22419669.050    22419666.174
 04  7 16  2 18  0.0000000  0  8G 3G13G27G28G31G10G 8G19
  23733372.880    -9965467.78443  -7750420.47242  23733374.668    23733375.010
  21335520.907   -22664733.27544 -17605894.29542  21335523.416    21335520.834
  20719351.898   -25407304.31844 -19752470.10942  20719353.761    20719351.981
  22461205.080   -15720496.93643 -11660460.40342  22461207.298    22461205.828
  24083852.674   -10099797.48643  -7557626.80142  24083855.092    24083857.706
  23181669.602    -9463304.72543  -7318303.97742  23181671.081    23181670.796
  20902727.068   -26254327.67144 -20445742.59842  20902727.618    20902725.833
  22416921.451   -16672493.57043 -12940133.57342  22416923.166    22416920.306
 04  7 16  2 18 30.0000000  0  8G 3G13G27G28G31G10G 8G19
  23745354.483    -9902503.96743  -7701357.78942  23745356.309    23745356.643
  21349394.632   -22591826.11444 -17549083.55642  21349397.192    21349394.641
  20718347.454   -25412582.77944 -19756583.19942  20718349.303    20718347.546
  22446111.055   -15799816.82443 -11722268.03642  22446113.226    22446111.696
  24062051.643   -10214361.86643  -7646897.53942  24062053.993    24062056.634
  23181266.336    -9465423.66543  -7319955.10642  23181267.819    23181267.558
  20894394.844   -26298113.56244 -20479861.46442  20894395.382    20894393.674
  22414281.244   -16686367.51943 -12950944.41442  22414282.981    22414280.101
 04  7 16  2 19  0.0000000  0  8G 3G13G27G28G31G10G 8G19
  23757424.476    -9839076.15643  -7651933.53842  23757426.305    23757426.653
  21363346.294   -22518509.77743 -17491953.97742  21363348.852    21363346.268
  20717381.341   -25417659.79244 -19760539.32142  20717383.162    20717381.438
  22431070.556   -15878854.97343 -11783856.12642  22431072.719    22431071.219
  24040251.437   -10328921.63343  -7736164.64342  24040253.756    24040256.527
  23180971.697    -9466972.49643  -7321161.98442  23180973.089    23180972.805
  20886104.284   -26341680.73144 -20513809.89742  20886104.827    20886103.103
  22411746.045   -16699690.48843 -12961325.92442  22411747.733    22411744.806
 04  7 16  2 19 30.0000000  0  8G 3G13G27G28G31G10G 8G19
  23769583.392    -9775181.06343  -7602145.17542  23769585.305    23769585.685
  21377376.660   -22444780.00243 -17434502.24742  21377379.168    21377376.573
  20716454.815   -25422528.91944 -19764333.45242  20716456.641    20716454.882
  22416084.946   -15957604.82143 -11845219.57742  22416087.117    22416085.550
  24018453.813   -10443468.32743  -7825421.58742  24018456.186    24018458.957
  23180786.419    -9467946.02543  -7321920.58942  23180787.889    23180787.575
  20877856.686   -26385022.22044 -20547582.47142  20877857.231    20877855.461
  22409316.812   -16712455.70943 -12971272.83042  22409318.543    22409315.666
 04  7 16  2 20  0.0000000  0  8G 3G13G27G28G31G10G 8G19
  23781830.288    -9710823.25743  -7551996.24842  23781832.335    23781832.584
  21391484.850   -22370641.03843 -17376731.66142  21391487.363    21391484.756
  20715567.276   -25427192.57244 -19767967.47442  20715569.165    20715567.439
  22401153.756   -16036068.19843 -11906359.79842  22401155.930    22401154.331
  23996658.675   -10558001.86743  -7914668.28042  23996661.066    23996663.751
  23180709.942    -9468347.41343  -7322233.34942  23180711.434    23180711.152
  20869651.565   -26428140.31944 -20581180.97442  20869652.125    20869650.300
  22406993.460   -16724665.11343 -12980786.63242  22406995.169    22406992.357
 04  7 16  2 20 30.0000000  0  8G 3G13G27G28G31G10G 8G19
  23794164.822    -9646005.01843  -7501488.55342  23794166.728    23794167.003
  21405670.688   -22296094.38643 -17318643.40042  21405673.171    21405670.565
  20714719.029   -25431650.35544 -19771441.07242  20714720.853    20714719.190
  22386277.203   -16114244.55443 -11967276.35942  22386279.383    22386277.838
  23974866.447   -10672519.79043  -8003902.78742  23974868.760    23974871.444
  23180742.348    -9468177.47043  -7322100.92442  23180743.749    23180743.510
  20861488.966   -26471035.02644 -20614605.39942  20861489.550    20861487.696
  22404775.884   -16736318.16943 -12989866.90842  22404777.587    22404774.809
 04  7 16  2 21  0.0000000  0  8G 3G13G27G28G31G10G 8G19
  23806587.051    -9580725.78043  -7450621.66342  23806588.850    23806589.207
  21419934.297   -22221138.82643 -17260236.50142  21419936.806    21419934.261
  20713910.470   -25435899.18744 -19774751.85242  20713912.323    20713910.676
  22371456.062   -16192130.06343 -12027966.29942  22371458.219    22371456.670
  23953078.406   -10787016.34643  -8093120.68142  23953080.697    23953083.174
  23180883.897    -9467433.97243  -7321521.57942  23180885.258    23180885.070
  20853369.415   -26513703.30444 -20647853.40042  20853370.002    20853368.160
  22402664.821   -16747411.38143 -12998510.95042  22402666.510    22402663.798
 04  7 16  2 21 30.0000000  0  8G 3G13G27G28G31G10G 8G19
  23819096.066    -9514991.04243  -7399399.82042  23819097.769    23819098.123
  21434274.689   -22145779.56043 -17201515.02142  21434277.229    21434274.756
  20713141.165   -25439941.93444 -19777902.04842  20713143.021    20713141.357
  22356689.675   -16269727.52243 -12088431.77142  22356691.851    22356690.293
  23931294.075   -10901492.29743  -8182322.50342  23931296.504    23931298.944
  23181133.621    -9466121.10143  -7320498.56342  23181135.023    23181134.896
  20845292.467   -26556147.73244 -20680926.97642  20845293.048    20845291.230
  22400659.842   -16757947.63943 -13006720.99942  22400661.552    22400658.768
 04  7 16  2 22  0.0000000  0  8G 3G13G27G28G31G10G 8G19
  23831691.894    -9448799.56343  -7347822.06242  23831693.718    23831693.951
  21448692.332   -22070014.52443 -17142477.35442  21448694.849    21448692.396
  20712411.848   -25443774.58844 -19780888.53442  20712413.673    20712412.040
  22341979.004   -16347032.53443 -12148669.37642  22341981.107    22341979.539
  23909515.092   -11015941.24943  -8271503.30142  23909517.432    23909519.820
  23181492.312    -9464235.68443  -7319029.40842  23181493.767    23181493.663
  20837258.932   -26598364.15344 -20713822.88042  20837259.487    20837257.741
  22398761.661   -16767922.57443 -13014493.64942  22398763.387    22398760.615
 04  7 16  2 22 30.0000000  0  8G 3G13G27G28G31G10G 8G19
  23844373.816    -9382155.46643  -7295891.62642  23844375.717    23844375.919
  21463186.515   -21993847.02043 -17083126.08542  21463189.036    21463186.559
  20711722.182   -25447398.45944 -19783712.32842  20711724.042    20711722.454
  22327323.709   -16424045.83543 -12208679.67042  22327325.888    22327324.337
  23887741.434   -11130362.28743  -8360662.33142  23887743.718    23887745.945
  23181959.703    -9461780.46543  -7317116.26142  23181961.115    23181960.876
  20829268.639   -26640353.62044 -20746541.93842  20829269.185    20829267.434
  22396970.114   -16777337.36443 -13021829.83642  22396971.807    22396969.014
 04  7 16  2 23  0.0000000  0  8G 3G13G27G28G31G10G 8G19
  23857141.942    -9315058.59443  -7243608.36342  23857143.880    23857143.949
  21477757.462   -21917276.18143 -17023460.51942  21477760.000    21477757.453
  20711072.813   -25450810.93544 -19786371.40442  20711074.657    20711073.100
  22312724.544   -16500764.65443 -12268460.49742  22312726.739    22312725.174
  23865973.892   -11244750.40143  -8449795.73242  23865976.243    23865978.300
  23182535.516    -9458753.95143  -7314757.92442  23182536.993    23182536.777
  20821321.979   -26682113.65444 -20779082.22542  20821322.522    20821320.777
  22395285.632   -16786189.14143 -13028727.29642  22395287.325    22395284.608
 04  7 16  2 23 30.0000000  0  8G 3G13G27G28G31G10G 8G19
  23869995.051    -9247514.70643  -7190976.78642  23869997.003    23869997.110
  21492404.100   -21840307.68943 -16963485.09842  21492406.633    21492404.084
  20710463.075   -25454015.08544 -19788868.14542  20710464.910    20710463.381
  22298180.793   -16577191.90143 -12328014.13042  22298183.046    22298181.432
  23844212.237   -11359106.51443  -8538904.20142  23844214.683    23844216.709
  23183219.363    -9455160.69143  -7311957.99542  23183220.715    23183220.498
  20813418.241   -26723647.82544 -20811446.50442  20813418.809    20813417.085
  22393707.795   -16794481.04043 -13035188.49542  22393709.432    22393706.706
 04  7 16  2 24  0.0000000  0  8G 3G13G27G28G31G10G 8G19
  23882933.382    -9179523.62343  -7137996.76742  23882935.237    23882935.339
  21507126.581   -21762940.47843 -16903198.99142  21507129.117    21507126.624
  20709893.614   -25457008.00744 -19791200.29442  20709895.419    20709893.804
  22283693.307   -16653324.04143 -12387337.80142  22283695.465    22283693.936
  23822457.961   -11473425.24843  -8627983.50742  23822460.387    23822462.358
  23184011.323    -9450998.77643  -7308714.95942  23184012.659    23184012.482
  20805558.236   -26764952.75244 -20843632.15742  20805558.768    20805557.006
  22392237.056   -16802209.73943 -13041210.83642  22392238.686    22392235.938
 04  7 16  2 24 30.0000000  0  8G 3G13G27G28G31G10G 8G19
  23895956.651    -9111086.87543  -7084669.45142  23895958.366    23895958.413
  21521924.822   -21685175.54043 -16842602.96142  21521927.327    21521924.807
  20709364.448   -25459788.59944 -19793366.99142  20709366.294    20709364.633
  22269262.231   -16729159.75643 -12446430.49742  22269264.398    22269262.804
  23800711.470   -11587703.14543  -8717031.02042  23800713.848    23800715.803
  23184911.555    -9446268.40743  -7305028.97742  23184912.935    23184912.659
  20797742.031   -26806027.18444 -20875638.20142  20797742.586    20797740.803
  22390873.620   -16809374.25343 -13046793.56242  22390875.315    22390872.481
 04  7 16  2 25  0.0000000  0  8G 3G13G27G28G31G10G 8G19
  23909063.743    -9042208.34743  -7030997.91542  23909065.497    23909065.596
  21536798.060   -21607015.94043 -16781699.41842  21536800.595    21536798.145
  20708875.562   -25462357.70844 -19795368.90042  20708877.411    20708875.736
  22254887.333   -16804699.83343 -12505292.82142  22254889.503    22254887.948
  23778973.069   -11701938.91543  -8806045.72042  23778975.283    23778977.191
  23185919.345    -9440971.92443  -7300901.85942  23185920.828    23185920.520
  20789969.477   -26846872.08644 -20907465.39242  20789970.032    20789968.243
  22389617.527   -16815975.57043 -13051937.43642  22389619.150    22389616.212
 04  7 16  2 25 30.0000000  0  8G 3G13G27G28G31G10G 8G19
  23922254.695    -8972889.26743  -6976983.07442  23922256.418    23922256.644
  21551746.314   -21528462.47743 -16720488.95942  21551748.845    21551746.430
  20708427.110   -25464714.04244 -19797205.00642  20708428.993    20708427.351
  22240569.105   -16879942.54343 -12563923.43342  22240571.246    22240569.629
  23757243.473   -11816128.79343  -8895024.67242  23757245.613    23757247.398
  23187035.024    -9435109.20543  -7296333.51842  23187036.394    23187036.159
  20782240.886   -26887486.19744 -20939112.74942  20782241.399    20782239.643
  22388468.807   -16822012.18743 -13056641.28442  22388470.442    22388467.478
 04  7 16  2 26  0.0000000  0  8G 3G13G27G28G31G10G 8G19
  23935529.474    -8903129.90843  -6922625.17142  23935531.229    23935531.486
  21566769.592   -21449514.73943 -16658971.27742  21566772.103    21566769.761
  20708019.728   -25466855.08944 -19798873.35342  20708021.571    20708019.953
  22226308.033   -16954884.92843 -12622320.02142  22226310.155    22226308.465
  23735523.107   -11930267.99243  -8983964.09442  23735525.351    23735527.223
  23188258.646    -9428679.14143  -7291323.10142  23188260.023    23188259.691
  20774556.680   -26927867.07444 -20970578.36842  20774557.171    20774555.427
  22387428.009   -16827481.68543 -13060903.22942  22387429.627    22387426.712
 04  7 16  2 26 30.0000000  0  8G 3G13G27G28G31G10G 8G19
  23948886.658    -8832937.49143  -6867929.80642  23948888.513    23948888.664
  21581866.633   -21370179.22643 -16597151.42842  21581869.171    21581866.885
  20707652.430   -25468785.31244 -19800377.43142  20707654.284    20707652.670
  22212103.199   -17029531.44843 -12680486.07242  22212105.367    22212103.584
  23713812.232   -12044358.58243  -9072865.66742  23713814.381    23713816.263
  23189589.077    -9421687.81843  -7285875.33042  23189590.432    23189590.086
  20766916.090   -26968018.86144 -21001865.47042  20766916.587    20766914.773
  22386494.216   -16832388.50643 -13064726.71742  22386495.853    22386492.981
 04  7 16  2 27  0.0000000  0  8G 3G13G27G28G31G10G 8G19
  23962326.722    -8762309.77543  -6812895.25842  23962328.558    23962328.740
  21597038.038   -21290453.48043 -16535027.51042  21597040.505    21597038.269
  20707326.165   -25470499.95644 -19801713.52042  20707328.008    20707326.383
  22197955.707   -17103877.07743 -12738417.66642  22197957.829    22197956.022
  23692111.983   -12158393.40043  -9161723.79342  23692114.146    23692116.029
  23191026.981    -9414131.55643  -7279987.37342  23191028.377    23191028.055
  20759319.963   -27007936.64544 -21032970.23542  20759320.488    20759318.646
  22385668.408   -16836728.04543 -13068108.16742  22385670.082    22385667.202
 04  7 16  2 27 30.0000000  0  8G 3G13G27G28G31G10G 8G19
  23975848.956    -8691249.81543  -6757523.89942  23975850.719    23975851.021
  21612283.249   -21210339.69643 -16472601.22342  21612285.722    21612283.414
  20707040.911   -25471998.82344 -19802881.47342  20707042.788    20707041.147
  22183865.375   -17177921.51543 -12796114.56342  22183867.550    22183865.785
  23670422.758   -12272370.18343  -9250536.69442  23670424.904    23670426.826
  23192572.134    -9406011.63143  -7273660.18742  23192573.517    23192573.165
  20751768.336   -27047620.54744 -21063892.75142  20751768.880    20751767.078
  22384950.505   -16840500.22843 -13071047.51642  22384952.199    22384949.347
 04  7 16  2 28  0.0000000  0  8G 3G13G27G28G31G10G 8G19
  23989453.364    -8619758.34643  -6701816.29942  23989455.090    23989455.433
  21627602.245   -21129837.97743 -16409872.65042  21627604.757    21627602.421
  20706797.109   -25473280.11044 -19803879.88242  20706798.992    20706797.349
  22169832.844   -17251662.45743 -12853574.98242  22169834.979    22169833.252
  23648745.450   -12386284.53543  -9339300.95242  23648747.592    23648749.451
  23194224.697    -9397327.53743  -7266893.37542  23194226.087    23194225.754
  20744261.754   -27087068.03544 -21094631.05142  20744262.282    20744260.473
  22384340.949   -16843703.11843 -13073543.26542  22384342.631    22384339.867
 04  7 16  2 28 30.0000000  0  8G 3G13G27G28G31G10G 8G19
  24003138.732    -8547841.26543  -6645777.06342  24003140.475    24003140.909
  21642994.039   -21048953.64243 -16346845.93142  21642996.571    21642994.217
  20706594.181   -25474346.44044 -19804710.78742  20706596.043    20706594.398
  22155857.601   -17325102.66543 -12910801.05342  22155859.686    22155857.950
  23627080.089   -12500136.92143  -9428016.94642  23627082.247    23627083.787
  23195983.709    -9388083.99043  -7259690.62742  23195985.076    23195984.815
  20736799.501   -27126282.40044 -21125187.69342  20736800.020    20736798.233
  22383839.176   -16846339.85843 -13075597.84842  22383840.826    22383838.151
 04  7 16  2 29  0.0000000  0  8G 3G13G27G28G31G10G 8G19
  24016904.994    -8475499.96143  -6589407.24642  24016906.649    24016907.060
  21658458.522   -20967687.31343 -16283521.56342  21658461.056    21658458.761
  20706432.442   -25475196.51344 -19805373.18642  20706434.282    20706432.618
  22141939.970   -17398240.46243 -12967791.48642  22141942.032    22141940.252
  23605427.128   -12613923.66843  -9516681.79042  23605429.289    23605430.729
  23197849.230    -9378280.79543  -7252051.80742  23197850.521    23197850.324
  20729381.901   -27165262.00644 -21155561.40542  20729382.441    20729380.623
  22383445.452   -16848409.28543 -13077210.38842  22383447.046    22383444.375
 04  7 16  2 29 30.0000000  0  8G 3G13G27G28G31G10G 8G19
  24030751.938    -8402733.85843  -6532706.41842  24030753.680    24030753.967
  21673995.940   -20886037.78743 -16219898.59642  21673998.482    21673996.191
  20706312.537   -25475826.85144 -19805864.36442  20706314.344    20706312.663
  22128080.535   -17471072.14543 -13024543.37942  22128082.581    22128080.838
  23583787.648   -12727638.85043  -9605290.86642  23583789.923    23583791.278
  23199821.458    -9367916.00443  -7243975.37442  23199822.809    23199822.692
  20722009.694   -27204003.22344 -21185749.36742  20722010.227    20722008.377
  22383160.317   -16849907.92243 -13078378.14842  22383161.907    22383159.140
 04  7 16  2 30  0.0000000  0  8G 3G13G27G28G31G10G 8G19
  24044678.760    -8329548.00943  -6475678.49242  24044680.520    24044680.776
  21689605.386   -20804009.57343 -16155980.54742  21689607.889    21689605.653
  20706233.978   -25476239.62544 -19806186.01242  20706235.804    20706234.115
  22114278.896   -17543599.85743 -13081058.41942  22114280.995    22114279.178
  23562161.776   -12841282.26843  -9693844.03242  23562164.051    23562165.519
  23201900.135    -9356993.42743  -7235464.29842  23201901.397    23201901.157
  20714682.408   -27242508.33044 -21215753.33842  20714682.956    20714681.102
  22382983.315   -16850838.16243 -13079103.00342  22382984.952    22382982.072
 04  7 16  2 30 30.0000000  0  8G 3G13G27G28G31G10G 8G19
  24058685.113    -8255943.90743  -6418324.71642  24058686.834    24058687.173
  21705286.833   -20721603.45443 -16091768.02742  21705289.279    21705287.044
  20706197.090   -25476433.40044 -19806337.01042  20706198.913    20706197.244
  22100535.427   -17615821.87243 -13137335.26042  22100537.513    22100535.747
  23540550.439   -12954850.15743  -9782338.33642  23540552.696    23540554.114
  23204084.819    -9345513.42543  -7226518.85742  23204086.086    23204085.804
  20707400.339   -27280775.79444 -21245572.13142  20707400.884    20707399.051
  22382914.615   -16851199.00843 -13079384.18542  22382916.295    22382913.442
 04  7 16  2 31  0.0000000  0  8G 3G13G27G28G31G10G 8G19
  24072770.739    -8181924.38043  -6360647.20642  24072772.409    24072772.645
  21721039.696   -20638821.88043 -16027262.95042  21721042.098    21721039.925
  20706201.905   -25476408.22944 -19806317.39942  20706203.700    20706202.051
  22086850.167   -17687738.26643 -13193373.95842  22086852.246    22086850.428
  23518953.772   -13068340.36343  -9870772.11442  23518956.045    23518957.471
  23206375.141    -9333477.72343  -7217140.39442  23206376.413    23206376.130
  20700163.462   -27318805.80544 -21275205.89642  20700164.014    20700162.196
  22382954.254   -16850990.68943 -13079221.84242  22382955.887    22382953.064
 04  7 16  2 31 30.0000000  0  8G 3G13G27G28G31G10G 8G19
  24086935.235    -8107489.39443  -6302645.97642  24086936.969    24086937.292
  21736864.134   -20555664.06643 -15962464.69042  21736866.521    21736864.381
  20706248.920   -25476161.12144 -19806124.85342  20706250.722    20706249.079
  22073223.671   -17759345.81543 -13249171.99642  22073225.748    22073223.916
  23497373.095   -13181747.45043  -9959141.13242  23497375.351    23497376.538
  23208771.350    -9320884.85243  -7207327.79742  23208772.687    23208772.471
  20692972.357   -27356595.12244 -21304652.10642  20692972.906    20692971.093
  22383102.716   -16850210.57543 -13078613.95442  22383104.267    22383101.452
 04  7 16  2 32  0.0000000  0  9G 3G29G13G27G28G31G10G 8G19
  24101177.366    -8032646.32643  -6244326.74242  24101179.068    24101179.562
  24764696.943    -4726635.79353  -3383112.25352  24764699.361    24764698.948
  21752758.796   -20472136.80343 -15897378.55142  21752761.229    21752759.130
  20706337.369   -25475696.32744 -19805762.67942  20706339.166    20706337.511
  22059655.071   -17830648.87543 -13304732.76742  22059657.209    22059655.383
  23475807.862   -13295073.35643 -10047446.89442  23475810.037    23475811.244
  23211272.658    -9307740.95043  -7197085.81142  23211273.984    23211273.729
  20685826.327   -27394147.87944 -21333913.98442  20685826.864    20685825.009
  22383359.082   -16848863.23843 -13077564.07342  22383360.629    22383357.839
 04  7 16  2 32 30.0000000  0  9G 3G29G13G27G28G31G10G 8G19
  24115498.054    -7957390.81043  -6185686.12742  24115499.751    24115500.293
  24745441.163    -4827824.68143  -3461960.66042  24745443.563    24745443.477
  21768724.777   -20388235.35343 -15832000.84142  21768727.181    21768725.033
  20706468.594   -25475006.75444 -19805225.35442  20706470.395    20706468.724
  22046145.932   -17901640.14343 -13360050.59842  22046147.986    22046146.198
  23454259.805   -13408308.66043 -10135682.04942  23454262.048    23454263.391
  23213879.734    -9294040.45343  -7186410.10142  23213881.142    23213880.822
  20678726.545   -27431457.42344 -21362986.33842  20678727.084    20678725.262
  22383724.718   -16846942.23443 -13076067.17742  22383726.242    22383723.385
 04  7 16  2 33  0.0000000  0  9G 3G29G13G27G28G31G10G 8G19
  24129896.413    -7881727.72143  -6126727.93842  24129898.080    24129898.640
  24726200.913    -4928932.60343  -3540745.98942  24726203.143    24726203.305
  21784761.278   -20303963.25643 -15766334.31542  21784763.663    21784761.493
  20706642.222   -25474094.15444 -19804514.24042  20706644.058    20706642.387
  22032695.660   -17972321.17043 -13415126.67042  22032697.793    22032695.990
  23432729.067   -13521452.62343 -10223846.01842  23432731.344    23432732.732
  23216592.130    -9279787.02843  -7175303.54742  23216593.570    23216593.175
  20671672.876   -27468524.51244 -21391869.77142  20671673.426    20671671.659
  22384199.080   -16844449.47643 -13074124.76942  22384200.602    22384197.807
 04  7 16  2 33 30.0000000  0  9G 3G29G13G27G28G31G10G 8G19
  24144371.445    -7805660.93643  -6067455.16342  24144373.069    24144373.669
  24706976.170    -5029958.86143  -3619467.69142  24706978.380    24706978.563
  21800867.543   -20219324.47043 -15700382.06042  21800869.926    21800867.762
  20706858.187   -25472959.42044 -19803630.03542  20706859.994    20706858.341
  22019304.438   -18042692.73243 -13469961.60542  22019306.530    22019304.687
  23411216.167   -13634503.66443 -10311937.61742  23411218.360    23411219.550
  23219409.248    -9264983.29543  -7163768.17242  23219410.618    23219410.329
  20664665.142   -27505350.40144 -21420565.25842  20664665.700    20664663.924
  22384781.955   -16841386.08043 -13071737.69442  22384783.549    22384780.741
 04  7 16  2 34  0.0000000  0  9G 3G29G13G27G28G31G10G 8G19
  24158923.756    -7729187.57443  -6007865.55742  24158925.471    24158926.118
  24687768.383    -5130896.08643  -3698120.01342  24687770.566    24687770.716
  21817044.279   -20134315.49743 -15634141.34242  21817046.641    21817044.503
  20707117.529   -25471596.63644 -19802568.12842  20707119.361    20707117.686
  22005973.125   -18112749.11543 -13524550.94942  22005975.213    22005973.385
  23389722.311   -13747453.84643 -10399950.59742  23389724.479    23389725.688
  23222331.786    -9249625.04843  -7151800.73842  23222333.168    23222332.898
  20657704.407   -27541929.37844 -21449068.34442  20657704.948    20657703.183
  22385474.402   -16837747.00343 -13068902.04442  22385476.025    22385473.174
 04  7 16  2 34 30.0000000  0  9G 3G29G13G27G28G31G10G 8G19
  24173551.171    -7652320.17843  -5947968.92942  24173552.899    24173553.519
  24668576.073    -5231752.26243  -3776709.17842  24668578.371    24668578.399
  21833289.134   -20048948.17643 -15567621.39042  21833291.524    21833289.361
  20707418.413   -25470015.42744 -19801336.01642  20707420.267    20707418.611
  21992699.908   -18182499.74843 -13578902.04342  21992702.015    21992700.188
  23368246.427   -13860310.30843 -10487890.55142  23368248.531    23368249.676
  23225357.806    -9233723.67643  -7139410.07242  23225359.125    23225358.759
  20650788.755   -27578271.08444 -21477386.54942  20650789.296    20650787.580
  22386274.480   -16833542.21643 -13065625.57642  22386276.084    22386273.272
 04  7 16  2 35  0.0000000  0  9G 3G29G13G27G28G31G10G 8G19
  24188255.298    -7575049.96943  -5887758.41942  24188257.014    24188257.494
  24649401.832    -5332514.34043  -3855225.00742  24649404.116    24649404.112
  21849604.025   -19963212.94543 -15500814.76742  21849606.441    21849604.243
  20707763.058   -25468204.16844 -19799924.65042  20707764.956    20707763.317
  21979487.210   -18251932.88743 -13633005.74542  21979489.265    21979487.474
  23346790.913   -13973058.96943 -10575746.49942  23346793.035    23346794.080
  23228488.874    -9217269.58243  -7126588.71642  23228490.236    23228489.796
  20643920.568   -27614363.58044 -21505510.57242  20643921.077    20643919.387
  22387184.388   -16828760.59043 -13061899.62542  22387186.002    22387183.155
 04  7 16  2 35 30.0000000  0  9G 3G29G13G27G28G31G10G 8G19
  24203033.870    -7497387.75243  -5827242.47042  24203035.697    24203036.077
  24630244.108    -5433188.45243  -3933672.28542  24630246.409    24630246.426
  21865986.994   -19877120.18743 -15433729.53642  21865989.406    21865987.188
  20708150.089   -25466170.45044 -19798339.93642  20708151.946    20708150.309
  21966333.359   -18321056.14243 -13686867.97342  21966335.456    21966333.689
  23325354.965   -14085705.00243 -10663522.48942  23325357.160    23325358.133
  23231723.473    -9200272.13943  -7113343.94542  23231724.796    23231724.431
  20637098.408   -27650214.33244 -21533446.22142  20637098.917    20637097.226
  22388202.476   -16823410.14643 -13057730.44842  22388204.106    22388201.341
 04  7 16  2 36  0.0000000  0  9G 3G29G13G27G28G31G10G 8G19
  24217887.305    -7419332.78443  -5766420.44342  24217889.128    24217889.390
  24611104.056    -5533769.26443  -4012046.86642  24611106.504    24611106.533
  21882438.157   -19790668.59643 -15366364.70742  21882440.626    21882438.429
  20708580.088   -25463910.52444 -19796578.95842  20708581.968    20708580.302
  21953239.378   -18389865.67843 -13740485.75242  21953241.425    21953239.676
  23303939.882   -14198242.28343 -10751213.71742  23303942.070    23303942.902
  23235061.620    -9182729.53643  -7099674.38942  23235063.057    23235062.755
  20630322.975   -27685819.59344 -21561190.57742  20630323.487    20630321.789
  22389329.470   -16817487.80643 -13053115.62942  22389331.101    22389328.273
 04  7 16  2 36 30.0000000  0  9G 3G29G13G27G28G31G10G 8G19
  24232815.017    -7340886.08343  -5705293.21442  24232816.974    24232817.376
  24591982.470    -5634253.29943  -4090346.06042  24591984.842    24591984.968
  21898957.676   -19703858.27443 -15298720.34942  21898960.103    21898957.932
  20709053.662   -25461422.20144 -19794640.01142  20709055.476    20709053.830
  21940205.330   -18458359.76643 -13793857.72942  21940207.366    21940205.620
  23282546.105   -14310666.49043 -10838816.82842  23282548.422    23282549.033
  23238503.753    -9164641.41743  -7085579.75142  23238505.126    23238504.845
  20623594.619   -27721177.22544 -21588741.98042  20623595.136    20623593.458
  22390565.570   -16810992.01043 -13048053.96642  22390567.184    22390564.417
 04  7 16  2 37  0.0000000  0  9G 3G29G13G27G28G31G10G 8G19
  24247817.357    -7262049.14543  -5643861.86742  24247819.211    24247819.631
  24572879.744    -5734637.49843  -4168567.44742  24572882.071    24572882.189
  21915545.192   -19616690.45743 -15230797.41942  21915547.633    21915545.469
  20709570.860   -25458704.18844 -19792522.08042  20709572.701    20709571.061
  21927231.667   -18526536.92543 -13846982.75742  21927233.722    21927231.857
  23261174.638   -14422973.75543 -10926328.82542  23261176.955    23261177.444
  23242049.310    -9146008.50243  -7071060.61442  23242050.808    23242050.603
  20616913.655   -27756285.80844 -21616099.32242  20616914.172    20616912.483
  22391910.858   -16803922.04243 -13042544.90142  22391912.445    22391909.775
 04  7 16  2 37 30.0000000  0  9G 3G29G13G27G28G31G10G 8G19
  24262892.754    -7182827.15143  -5582130.49242  24262894.704    24262895.030
  24553796.284    -5834922.25643  -4246711.32142  24553798.495    24553798.622
  21932199.766   -19529169.76443 -15162599.53242  21932202.230    21932200.184
  20710131.446   -25455758.41144 -19790226.67442  20710133.270    20710131.596
  21914317.930   -18594398.93543 -13899862.21342  21914319.983    21914318.079
  23239825.481   -14535163.65243 -11013749.38542  23239827.846    23239828.337
  23245698.037    -9126834.80743  -7056120.07142  23245699.398    23245699.261
  20610279.853   -27791146.83344 -21643263.75742  20610280.372    20610278.660
  22393365.096   -16796280.38143 -13036590.35142  22393366.636    22393363.928
 04  7 16  2 38  0.0000000  0  9G 3G29G13G27G28G31G10G 8G19
  24278040.802    -7103223.76943  -5520101.90842  24278042.861    24278042.943
  24534731.861    -5935106.72143  -4324777.06342  24534734.148    24534734.065
  21948921.021   -19441299.15543 -15094128.97042  21948923.500    21948921.482
  20710735.252   -25452585.39444 -19787754.20042  20710737.081    20710735.405
  21901464.098   -18661946.39443 -13952496.56042  21901466.145    21901464.196
  23218498.923   -14647234.42643 -11101077.10442  23218501.288    23218501.846
  23249449.150    -9107122.63743  -7040759.95842  23249450.535    23249450.401
  20603693.003   -27825761.03144 -21670235.86542  20603693.529    20603691.790
  22394927.778   -16788068.46843 -13030191.45142  22394929.307    22394926.649
 04  7 16  2 38 30.0000000  0  9G 3G29G13G27G28G31G10G 8G19
  24293261.567    -7023238.56543  -5457775.82142  24293263.568    24293263.812
  24515687.441    -6035185.76343  -4402760.66542  24515689.901    24515689.731
  21965709.170   -19353077.37243 -15025384.78342  21965711.554    21965709.609
  20711382.987   -25449181.60544 -19785101.90242  20711384.799    20711383.097
  21888670.783   -18729175.66443 -14004882.97642  21888672.827    21888670.856
  23197196.206   -14759180.06443 -11188307.34542  23197198.517    23197199.224
  23253302.938    -9086870.61443  -7024979.17042  23253304.285    23253304.254
  20597153.695   -27860125.15744 -21697013.11242  20597154.211    20597152.499
  22396599.586   -16779283.34743 -13023345.90242  22396601.082    22396598.352
 04  7 16  2 39  0.0000000  0  9G 3G29G13G27G28G31G10G 8G19
  24308554.546    -6942873.74843  -5395153.94342  24308556.482    24308556.883
  24496663.547    -6135157.34443  -4480660.51442  24496665.909    24496665.695
  21982563.692   -19264506.49243 -14956368.55542  21982566.119    21982564.034
  20712074.767   -25445546.28344 -19782269.19242  20712076.572    20712074.886
  21875938.037   -18796086.36843 -14057021.15642  21875940.108    21875938.109
  23175917.922   -14870997.49343 -11275437.67942  23175920.123    23175920.881
  23257259.314    -9066080.18443  -7008778.83642  23257260.637    23257260.588
  20590662.302   -27894237.99744 -21723594.55242  20590662.779    20590661.055
  22398380.464   -16769925.01643 -13016053.68842  22398382.013    22398379.158
 04  7 16  2 39 30.0000000  0  9G 3G29G13G27G28G31G10G 8G19
  24323918.828    -6862133.61843  -5332239.60242  24323920.773    24323921.356
  24477660.249    -6235020.50643  -4558475.89342  24477662.414    24477662.343
  21999484.024   -19175589.73543 -14887082.81942  21999486.429    21999484.349
  20712810.435   -25441680.40044 -19779256.82542  20712812.221    20712810.570
  21863265.828   -18862679.34643 -14108911.75742  21863267.826    21863265.828
  23154664.335   -14982685.22343 -11362466.94042  23154666.445    23154667.280
  23261317.475    -9044754.45943  -6992161.42342  23261318.865    23261318.791
  20584218.505   -27928100.55644 -21749980.96142  20584218.990    20584217.222
  22400270.097   -16759995.12843 -13008316.11242  22400271.664    22400268.752
 04  7 16  2 40  0.0000000  0  9G 3G29G13G27G28G31G10G 8G19
  24339354.459    -6781019.38543  -5269033.75942  24339356.331    24339357.001
  24458677.910    -6334772.13643  -4636204.36942  24458680.177    24458679.851
  22016469.954   -19086328.15043 -14817528.39142  22016472.362    22016470.276
  20713590.310   -25437582.23144 -19776063.45442  20713592.117    20713590.421
  21850654.415   -18928953.17943 -14160553.67042  21850656.381    21850654.351
  23133436.342   -15094239.29543 -11449392.05742  23133438.312    23133439.097
  23265477.533    -9022893.50643  -6975126.94242  23265478.934    23265478.808
  20577822.588   -27961711.14844 -21776171.03542  20577823.089    20577821.336
  22402268.526   -16749492.78443 -13000132.46942  22402270.112    22402267.277
 04  7 16  2 40 30.0000000  0  9G 3G29G13G27G28G31G10G 8G19
  24354860.661    -6699534.01043  -5205538.70342  24354862.430    24354863.150
  24439717.260    -6434410.71243  -4713844.74842  24439719.514    24439719.330
  22033521.077   -18996724.15543 -14747707.15042  22033523.462    22033521.381
  20714414.349   -25433251.79544 -19772689.10342  20714416.184    20714414.484
  21838103.535   -18994907.83343 -14211946.87542  21838105.586    21838103.532
  23112234.047   -15205657.24843 -11536211.10342  23112236.094    23112236.807
  23269738.868    -9000499.61643  -6957677.19142  23269740.242    23269740.178
  20571474.718   -27995069.51244 -21802164.56942  20571475.224    20571473.474
  22404375.900   -16738418.64843 -12991503.26342  22404377.434    22404374.628
 04  7 16  2 41  0.0000000  0  9G 3G29G13G27G28G31G10G 8G19
  24370436.944    -6617680.39243  -5141756.74742  24370438.771    24370439.368
  24420778.488    -6533933.90843  -4791395.21142  24420780.963    24420780.498
  22050636.977   -18906779.75443 -14677620.65242  22050639.397    22050637.305
  20715282.688   -25428688.44844 -19769133.25442  20715284.528    20715282.865
  21825613.648   -19060542.64343 -14263090.85742  21825615.696    21825613.619
  23091058.444   -15316935.96143 -11622921.66842  23091060.490    23091061.170
  23274101.463    -8977574.36043  -6939813.35642  23274102.766    23274102.742
  20565174.907   -28028175.25244 -21827961.25142  20565175.406    20565173.663
  22406591.928   -16726773.26143 -12982428.92242  22406593.494    22406590.689
 04  7 16  2 41 30.0000000  0  9G 3G29G13G27G28G31G10G 8G19
  24386082.874    -6535460.96043  -5077689.73542  24386084.647    24386085.375
  24401862.221    -6633339.89443  -4868854.36942  24401864.585    24401863.983
  22067817.249   -18816497.05143 -14607270.55342  22067819.668    22067817.595
  20716195.493   -25423891.57044 -19765395.43542  20716197.324    20716195.700
  21813184.663   -19125857.26543 -14313985.33742  21813186.686    21813184.665
  23069909.665   -15428072.59843 -11709521.51942  23069911.902    23069912.431
  23278564.827    -8954119.39143  -6921536.79342  23278566.119    23278566.074
  20558923.313   -28061027.37144 -21853560.30242  20558923.841    20558922.048
  22408916.720   -16714556.56843 -12972909.42142  22408918.313    22408915.416
 04  7 16  2 42  0.0000000  0  9G 3G29G13G27G28G31G10G 8G19
  24401798.968    -6452872.38643  -5013335.04442  24401800.799    24401801.601
  24382969.748    -6732620.39943  -4946215.73842  24382972.091    24382971.353
  22085062.573   -18725872.03843 -14536653.70542  22085065.037    22085063.018
  20717154.012   -25418854.61344 -19761470.54942  20717155.825    20717154.212
  21800817.796   -19190845.34843 -14364625.37242  21800819.829    21800817.850
  23048789.568   -15539058.23643 -11796003.71242  23048791.905    23048792.376
  23283129.693    -8930130.37543  -6902844.07842  23283131.055    23283131.069
  20552721.312   -28093619.23844 -21878956.56042  20552721.820    20552719.991
  22411351.185   -16701763.27643 -12962940.61142  22411352.830    22411349.836
 04  7 16  2 42 30.0000000  0  9G 3G29G13G27G28G31G10G 8G19
  24417582.958    -6369927.13943  -4948702.41742  24417584.730    24417585.625
  24364099.508    -6831783.06943  -5023485.29342  24364102.052    24364101.119
  22102370.841   -18634916.66443 -14465779.43242  22102373.276    22102371.271
  20718156.421   -25413587.06344 -19757365.97642  20718158.230    20718156.607
  21788511.247   -19255516.42843 -14415018.38442  21788513.281    21788511.340
  23027697.064   -15649899.74643 -11882373.60842  23027699.303    23027699.733
  23287794.105    -8905618.81343  -6883744.18042  23287795.411    23287795.454
  20546567.017   -28125960.27744 -21904157.36442  20546567.504    20546565.683
  22413893.517   -16688403.35243 -12952530.27542  22413895.124    22413892.214
 04  7 16  2 43  0.0000000  0  9G 3G29G13G27G28G31G10G 8G19
  24433435.738    -6286620.26043  -4883788.01342  24433437.486    24433438.409
  24345253.820    -6930818.41443  -5100655.65342  24345256.230    24345255.224
  22119743.124   -18543625.34443 -14394643.38542  22119745.557    22119743.472
  20719204.242   -25408080.66844 -19753075.29042  20719206.063    20719204.462
  21776266.539   -19319862.46143 -14465158.13142  21776268.602    21776266.615
  23006633.964   -15760586.57743 -11968622.96842  23006636.114    23006636.631
  23292559.096    -8880578.76443  -6864232.47842  23292560.464    23292560.457
  20540462.063   -28158042.21544 -21929156.27642  20540462.536    20540460.703
  22416544.916   -16674469.72243 -12941672.91642  22416546.547    22416543.728
 04  7 16  2 43 30.0000000  0  9G 3G29G13G27G28G31G10G 8G19
  24449355.592    -6202961.87643  -4818599.68642  24449357.264    24449357.952
  24326431.226    -7029731.78543  -5177730.94842  24326433.573    24326432.753
  22137177.486   -18452007.64043 -14323253.02142  22137179.902    22137177.799
  20720296.226   -25402342.47344 -19748603.98442  20720298.026    20720296.439
  21764082.457   -19383890.39743 -14515050.00142  21764084.427    21764082.499
  22985599.436   -15871123.56943 -12054755.56242  22985601.572    22985602.078
  23297422.934    -8855019.56143  -6844316.23542  23297424.321    23297424.296
  20534405.074   -28189871.63044 -21953958.40842  20534405.576    20534403.734
  22419303.988   -16659970.40643 -12930374.73942  22419305.636    22419302.849
 04  7 16  2 44  0.0000000  0  9G 3G29G13G27G28G31G10G 8G19
  24465343.444    -6118945.13643  -4753132.13942  24465345.161    24465345.704
  24307633.967    -7128511.27543  -5254701.89842  24307636.273    24307635.756
  22154675.276   -18360056.05743 -14251602.48342  22154677.728    22154675.707
  20721434.214   -25396362.24844 -19743944.08142  20721436.030    20721434.475
  21751960.734   -19447590.46643 -14564686.39642  21751962.717    21751960.816
  22964595.750   -15981497.82343 -12140761.37342  22964597.936    22964598.457
  23302386.999    -8828933.28643  -6823989.29442  23302388.412    23302388.409
  20528398.029   -28221438.83044 -21978556.22242  20528398.540    20528396.695
  22422172.556   -16644895.87443 -12918628.35542  22422174.190    22422171.390
 04  7 16  2 44 30.0000000  0  9G 3G29G13G27G28G31G10G 8G19
  24481398.186    -6034576.66443  -4687390.49042  24481399.911    24481400.460
  24288861.716    -7227159.14043  -5331570.30442  24288863.946    24288863.684
  22172235.482   -18267776.94443 -14179696.73242  22172237.906    22172235.897
  20722617.643   -25390143.43744 -19739098.26942  20722619.424    20722617.878
  21739900.630   -19510966.59143 -14614070.36542  21739902.596    21739900.737
  22943623.088   -16091710.61843 -12226641.35042  22943625.162    22943625.586
  23307450.259    -8802325.67143  -6803256.10742  23307451.682    23307451.594
  20522440.286   -28252747.21444 -22002952.35642  20522440.783    20522438.967
  22425149.736   -16629251.05943 -12906437.58242  22425151.312    22425148.451
 04  7 16  2 45  0.0000000  0  9G 3G29G13G27G28G31G10G 8G19
  24497519.514    -5949858.58843  -4621376.44942  24497521.262    24497521.840
  24270115.293    -7325672.38443  -5408333.83842  24270117.438    24270117.026
  22189857.680   -18175171.77043 -14107536.91642  22189860.117    22189858.155
  20723846.629   -25383685.18444 -19734065.87742  20723848.419    20723846.862
  21727902.459   -19574017.61043 -14663201.00442  21727904.404    21727902.470
  22922681.438   -16201758.48143 -12312392.80442  22922683.617    22922684.052
  23312612.399    -8775198.01343  -6782117.67042  23312613.888    23312613.812
  20516531.976   -28283795.39444 -22027145.73042  20516532.516    20516530.699
  22428235.375   -16613035.73243 -12893802.26942  22428236.943    22428234.106
 04  7 16  2 45 30.0000000  0  9G 3G29G13G27G28G31G10G 8G19
  24513706.176    -5864796.98143  -4555094.73342  24513708.052    24513708.522
  24251394.317    -7424052.40743  -5484993.57042  24251396.440    24251395.907
  22207540.890   -18082246.20043 -14035127.43042  22207543.267    22207541.328
  20725120.618   -25376990.27744 -19728849.07742  20725122.420    20725120.877
  21715965.511   -19636746.60043 -14712080.70142  21715967.479    21715965.525
  22901771.272   -16311641.95543 -12398016.18042  22901773.432    22901773.808
  23317872.658    -8747555.71643  -6760578.24742  23317874.108    23317873.963
  20510672.604   -28314586.31644 -22051138.65142  20510673.161    20510671.317
  22431428.871   -16596254.11143 -12880725.68942  22431430.358    22431427.563
 04  7 16  2 46  0.0000000  0  9G 3G29G13G27G28G31G10G 8G19
  24529958.679    -5779390.09843  -4488543.96642  24529960.603    24529961.025
  24232699.740    -7522292.79943  -5561544.47842  24232701.948    24232701.423
  22225285.528   -17988997.75143 -13962466.35342  22225287.923    22225285.925
  20726440.635   -25370053.67844 -19723443.94642  20726442.432    20726440.837
  21704090.690   -19699149.01743 -14760705.93942  21704092.707    21704090.652
  22880893.724   -16421353.73443 -12483505.76742  22880895.872    22880896.225
  23323231.263    -8719396.37143  -6738635.92842  23323232.703    23323232.481
  20504863.268   -28345114.71644 -22074927.01042  20504863.786    20504861.958
  22434730.929   -16578902.11143 -12867204.65242  22434732.502    22434729.604
 04  7 16  2 46 30.0000000  0  9G 3G29G13G27G28G31G10G 8G19
  24546276.188    -5693641.13643  -4421726.66842  24546278.045    24546278.597
  24214032.109    -7620391.68943  -5637985.13042  24214034.356    24214033.943
  22243091.056   -17895429.35343 -13889555.96242  22243093.509    22243091.490
  20727806.596   -25362875.47644 -19717850.55442  20727808.393    20727806.796
  21692278.059   -19761224.76743 -14809076.62742  21692280.054    21692277.982
  22860049.366   -16530891.17643 -12568859.48842  22860051.503    22860051.837
  23328687.637    -8690722.03743  -6716292.30342  23328689.064    23328689.099
  20499103.876   -28375380.50644 -22098510.74042  20499104.385    20499102.585
  22438141.288   -16560980.67343 -12853239.89442  22438142.929    22438139.979
 04  7 16  2 47  0.0000000  0  9G 3G29G13G27G28G31G10G 8G19
  24562658.437    -5607551.38943  -4354643.79742  24562660.342    24562660.980
  24195392.007    -7718345.49843  -5714312.72142  24195394.327    24195393.852
  22260957.390   -17801541.22843 -13816396.44242  22260959.851    22260957.864
  20729218.960   -25355453.34144 -19712067.08442  20729220.769    20729219.151
  21680527.877   -19822972.15143 -14857191.43842  21680529.895    21680527.829
  22839238.957   -16640249.90743 -12654073.97742  22839241.046    22839241.363
  23334242.273    -8661533.35843  -6693547.89742  23334243.649    23334243.581
  20493394.813   -28405381.70244 -22121888.28742  20493395.357    20493393.559
  22441660.059   -16542489.14143 -12838830.91342  22441661.645    22441658.818
 04  7 16  2 47 30.0000000  0  9G 3G29G13G27G28G31G10G 8G19
  24579104.447    -5521127.79843  -4287300.75942  24579106.306    24579106.988
  24176779.322    -7816156.20643  -5790528.85742  24176781.553    24176780.906
  22278883.386   -17707340.01943 -13742992.95442  22278885.818    22278883.818
  20730677.049   -25347791.26344 -19706096.64742  20730678.855    20730677.181
  21668839.469   -19884395.12343 -14905053.46842  21668841.492    21668839.363
  22818462.420   -16749431.23343 -12739150.21942  22818464.460    22818464.718
  23339893.454    -8631836.39643  -6670407.44542  23339894.805    23339894.660
  20487735.466   -28435121.70344 -22145062.30742  20487736.012    20487734.230
  22445286.365   -16523432.20443 -12823981.36142  22445287.917    22445285.140
 04  7 16  2 48  0.0000000  0  9G 3G29G13G27G28G31G10G 8G19
  24595614.486    -5434367.70843  -4219695.55542  24595616.297    24595616.959
  24158195.168    -7913816.57843  -5866627.82042  24158197.370    24158196.767
  22296869.471   -17612822.60943 -13669343.08842  22296871.950    22296869.904
  20732181.903   -25339883.22244 -19699934.54742  20732183.722    20732182.067
  21657213.841   -19945488.17943 -14952658.41742  21657215.838    21657213.684
  22797721.150   -16858426.93743 -12824081.84342  22797723.206    22797723.431
  23345641.953    -8601627.78543  -6646868.29442  23345643.323    23345643.206
  20482126.920   -28464594.86044 -22168028.39742  20482127.447    20482125.684
  22449021.356   -16503805.16843 -12808687.56342  22449022.797    22449019.975
 04  7 16  2 48 30.0000000  0  9G 3G29G13G27G28G31G10G 8G19
  24612186.858    -5347278.93743  -4151834.22242  24612188.859    24612189.283
  24139638.934    -8011329.19243  -5942611.63642  24139641.269    24139640.624
  22314914.385   -17517996.08543 -13595452.36642  22314916.842    22314914.981
  20733732.684   -25331733.67944 -19693584.25842  20733734.519    20733732.845
  21645650.115   -20006255.93043 -15000009.87042  21645652.105    21645649.975
  22777014.758   -16967238.90043 -12908870.25442  22777016.813    22777017.114
  23351486.633    -8570914.07243  -6622935.56342  23351487.983    23351487.974
  20476568.387   -28493805.25744 -22190789.73842  20476568.898    20476567.123
  22452863.606   -16483613.71943 -12792953.95342  22452865.155    22452862.312
 04  7 16  2 49  0.0000000  0  8G29G13G27G28G31G10G 8G19
  24121114.908    -8108673.49043  -6018464.30242  24121117.159    24121116.551
  22333021.253   -17422844.41743 -13521308.26542  22333023.618    22333021.739
  20735333.083   -25323323.61544 -19687030.96742  20735334.902    20735333.231
  21634151.793   -20066679.69543 -15047093.27842  21634153.802    21634151.701
  22756347.428   -17075845.80543 -12993498.90942  22756349.475    22756349.790
  23357430.413    -8539678.98143  -6598596.57642  23357431.757    23357431.748
  20471063.460   -28522733.81244 -22213331.46342  20471063.970    20471062.204
  22456816.787   -16462839.96043 -12776766.60942  22456818.327    22456815.520
 04  7 16  2 49 30.0000000  0  8G29G13G27G28G31G10G 8G19
  24102617.490    -8205878.61143  -6094208.51842  24102619.679    24102618.939
  22351183.547   -17327400.65543 -13446936.56042  22351185.994    22351184.101
  20736977.217   -25314683.86744 -19680298.70242  20736979.054    20736977.328
  21622713.072   -20126790.48943 -15093932.81542  21622715.093    21622712.959
  22735713.709   -17184276.06243 -13077989.90342  22735715.709    22735716.111
  23363467.212    -8507955.76743  -6573877.21442  23363468.481    23363468.469
  20465606.344   -28551410.90544 -22235677.24442  20465606.879    20465605.119
  22460874.517   -16441516.37343 -12760150.82842  22460876.067    22460873.322
 04  7 16  2 50  0.0000000  0  8G29G13G27G28G31G10G 8G19
  24084150.109    -8302925.29943  -6169829.30042  24084152.393    24084151.608
  22369404.234   -17231650.51643 -13372326.13942  22369406.610    22369404.844
  20738668.376   -25305796.74744 -19673373.67542  20738670.236    20738668.556
  21611337.163   -20186571.07943 -15140515.05042  21611339.173    21611337.100
  22715117.602   -17292509.63143 -13162327.65042  22715119.518    22715119.876
  23369599.699    -8475729.49043  -6548765.85542  23369601.051    23369601.012
  20460200.379   -28579819.43844 -22257813.75942  20460200.914    20460199.093
  22465040.038   -16419626.36443 -12743093.67642  22465041.571    22465038.853
 04  7 16  2 50 30.0000000  0  8G29G13G27G28G31G10G 8G19
  24065713.356    -8399811.40643  -6245324.94342  24065715.646    24065714.804
  22387682.823   -17135596.04043 -13297478.55042  22387685.201    22387683.408
  20740406.704   -25296661.83444 -19666255.56442  20740408.552    20740406.949
  21600024.128   -20246021.24443 -15186839.80842  21600026.128    21600024.107
  22694559.248   -17400543.62943 -13246509.89342  22694561.248    22694561.520
  23375827.374    -8443002.27243  -6523264.17442  23375828.721    23375828.815
  20454845.761   -28607958.06044 -22279739.95242  20454846.310    20454844.466
  22469313.144   -16397170.78143 -12725595.82242  22469314.683    22469311.982
 04  7 16  2 51  0.0000000  0  8G29G13G27G28G31G10G 8G19
  24047307.278    -8496535.14743  -6320694.03742  24047309.569    24047308.919
  22406018.935   -17039239.64543 -13222395.71942  22406021.285    22406019.448
  20742192.240   -25287278.93344 -19658944.21442  20742194.097    20742192.482
  21588773.898   -20305141.34543 -15232907.38242  21588775.881    21588773.860
  22674039.482   -17508375.50143 -13330534.62542  22674041.436    22674041.688
  23382149.961    -8409776.58543  -6497374.04942  23382151.296    23382151.374
  20449542.494   -28635827.13344 -22301456.10642  20449542.997    20449541.169
  22473693.701   -16374150.84243 -12707658.19742  22473695.236    22473692.437
 04  7 16  2 51 30.0000000  0  8G29G13G27G28G31G10G 8G19
  24028932.422    -8593096.12943  -6395936.33742  24028934.613    24028934.034
  22424411.721   -16942585.60843 -13147080.94442  22424414.076    22424412.233
  20744024.720   -25277649.18244 -19651440.51342  20744026.596    20744024.988
  21577586.208   -20363932.92743 -15278718.96242  21577588.212    21577586.119
  22653558.341   -17616004.10343 -13414400.97542  22653560.292    22653560.564
  23388566.899    -8376056.41843  -6471098.62242  23388568.110    23388568.168
  20444290.208   -28663427.79444 -22322963.10842  20444290.757    20444288.954
  22478181.248   -16350569.06043 -12689282.77342  22478182.789    22478179.869
 04  7 16  2 52  0.0000000  0  8G29G13G27G28G31G10G 8G19
  24010589.428    -8689487.96643  -6471046.81742  24010591.764    24010591.288
  22442861.406   -16845631.88843 -13071532.64842  22442863.833    22442862.016
  20745904.973   -25267768.19444 -19643741.04042  20745906.851    20745905.251
  21566461.890   -20422391.38343 -15324270.96342  21566463.893    21566461.803
  22633117.346   -17723422.35243 -13498103.42142  22633119.231    22633119.456
  23395078.081    -8341839.81243  -6444436.36742  23395079.411    23395079.435
  20439090.050   -28690754.95744 -22344256.99942  20439090.589    20439088.742
  22482776.144   -16326422.26843 -12670467.10042  22482777.711    22482774.850
 04  7 16  2 52 30.0000000  0  8G29G13G27G28G31G10G 8G19
  23992279.089    -8785708.65143  -6546023.90242  23992281.432    23992281.089
  22461367.659   -16748380.82643 -12995752.66442  22461370.149    22461368.320
  20747833.263   -25257635.10244 -19635845.12542  20747835.115    20747833.482
  21555400.949   -20480516.49743 -15369563.21542  21555402.962    21555400.941
  22612716.955   -17830627.09543 -13581639.49142  22612718.817    22612719.036
  23401683.393    -8307128.52943  -6417388.62542  23401684.737    23401684.814
  20433942.003   -28717808.09444 -22365337.35642  20433942.541    20433940.677
  22487478.546   -16301711.08443 -12651211.63642  22487480.017    22487477.298
 04  7 16  2 53  0.0000000  0  8G29G13G27G28G31G10G 8G19
  23974000.641    -8881762.45343  -6620870.96242  23974002.997    23974002.611
  22479928.757   -16650841.37843 -12919747.97042  22479931.235    22479929.439
  20749808.271   -25247256.18744 -19627757.65842  20749810.139    20749808.506
  21544402.235   -20538315.14843 -15414601.08642  21544404.244    21544402.183
  22592356.297   -17937622.30743 -13665012.29942  22592358.248    22592358.444
  23408381.289    -8271931.52943  -6389962.45642  23408382.574    23408382.609
  20428844.959   -28744593.22744 -22386208.88542  20428845.494    20428843.615
  22492286.841   -16276443.30843 -12631522.46142  22492288.371    22492285.628
 04  7 16  2 53 30.0000000  0  8G29G13G27G28G31G10G 8G19
  23955755.741    -8977641.23843  -6695581.66342  23955757.992    23955757.324
  22498545.647   -16553009.87943 -12843515.69542  22498548.006    22498546.199
  20751831.335   -25236625.03344 -19619473.64242  20751833.166    20751831.536
  21533466.840   -20595781.15243 -15459379.74542  21533468.818    21533466.686
  22572037.330   -18044399.05743 -13748214.88942  22572039.236    22572039.345
  23415172.297    -8236244.76243  -6362154.63542  23415173.647    23415173.554
  20423800.222   -28771103.52044 -22406866.25442  20423800.755    20423798.878
  22497201.988   -16250614.04343 -12611395.75142  22497203.552    22497200.782
 04  7 16  2 54  0.0000000  0  8G29G13G27G28G31G10G 8G19
  23937544.457    -9073342.37643  -6770153.91642  23937546.887    23937545.922
  22517217.602   -16454887.89243 -12767057.06042  22517220.015    22517218.222
  20753902.628   -25225740.49844 -19610992.18542  20753904.431    20753902.774
  21522594.780   -20652913.77743 -15503898.62642  21522596.794    21522594.634
  22551760.546   -18150953.90543 -13831244.56442  22551762.471    22551762.519
  23422056.038    -8200070.18743  -6333966.65042  23422057.456    23422057.318
  20418807.950   -28797338.07444 -22427308.76042  20418808.489    20418806.624
  22502223.890   -16224223.41943 -12590831.62942  22502225.473    22502222.694
 04  7 16  2 54 30.0000000  0  8G29G13G27G28G31G10G 8G19
  23919366.802    -9168865.93443  -6844587.79142  23919369.314    23919368.339
  22535944.110   -16356480.42843 -12690375.97842  22535946.406    22535944.591
  20756021.697   -25214604.48844 -19602314.77042  20756023.550    20756021.864
  21511785.762   -20709715.41443 -15548159.60042  21511787.734    21511785.597
  22531526.174   -18257286.35343 -13914100.94842  22531528.107    22531528.007
  23429031.870    -8163412.44843  -6305402.22042  23429033.265    23429033.139
  20413867.877   -28823298.70544 -22447537.82042  20413868.386    20413866.474
  22507351.975   -16197275.20543 -12569833.01942  22507353.509    22507350.785
 04  7 16  2 55  0.0000000  0  8G29G13G27G28G31G10G 8G19
  23901223.987    -9264206.79943  -6918879.29242  23901226.444    23901225.594
  22554724.927   -16257786.69043 -12613471.83042  22554727.273    22554725.516
  20758189.303   -25203213.50644 -19593438.68042  20758191.172    20758189.500
  21501040.417   -20766182.66544 -15592160.01242  21501042.349    21501040.195
  22511335.148   -18363390.27443 -13996779.24742  22511337.129    22511337.037
  23436099.744    -8126270.68543  -6276460.60742  23436101.111    23436101.058
  20408980.596   -28848981.46144 -22467550.35642  20408981.153    20408979.243
  22512586.661   -16169767.16243 -12548398.17942  22512588.174    22512585.402
 04  7 16  2 55 30.0000000  0  8G29G13G27G28G31G10G 8G19
  23883116.347    -9359362.71643  -6993026.71042  23883118.624    23883117.813
  22573559.750   -16158808.87643 -12536346.32842  22573562.133    22573560.431
  20760405.603   -25191566.90744 -19584363.40942  20760407.419    20760405.757
  21490358.627   -20822315.42843 -15635899.78442  21490360.605    21490358.457
  22491188.174   -18469262.86943 -14079277.30742  22491190.216    22491190.054
  23443259.242    -8088647.27843  -6247143.69242  23443260.547    23443260.578
  20404146.257   -28874385.75744 -22487345.90742  20404146.821    20404144.990
  22517927.595   -16141700.07443 -12526527.72342  22517929.179    22517926.411
 04  7 16  2 56  0.0000000  0  8G29G13G27G28G31G10G 8G19
  23865043.893    -9454333.83143  -7067030.11742  23865046.097    23865045.296
  22592447.839   -16059551.83743 -12459003.22942  22592450.253    22592448.498
  20762670.209   -25179666.43644 -19575090.31842  20762672.044    20762670.322
  21479740.124   -20878116.06843 -15679380.75442  21479742.087    21479739.893
  22471085.329   -18574903.43143 -14161594.55542  22471087.389    22471087.210
  23450509.597    -8050546.58443  -6217454.87242  23450510.891    23450510.871
  20399364.651   -28899513.34744 -22506925.84742  20399365.209    20399363.363
  22523374.241   -16113077.41543 -12504224.35442  22523375.841    22523373.089
 04  7 16  2 56 30.0000000  0  8G29G13G27G28G31G10G 8G19
  23847007.294    -9549115.75443  -7140886.09442  23847009.611    23847008.814
  22611388.873   -15960015.65343 -12381442.63242  22611391.352    22611389.573
  20764983.536   -25167509.57644 -19565617.44542  20764985.394    20764983.722
  21469185.224   -20933582.41944 -15722601.24842  21469187.221    21469184.976
  22451027.615   -18680307.01643 -14243727.15642  22451029.625    22451029.466
  23457850.864    -8011968.81143  -6187394.30242  23457852.094    23457852.006
  20394636.261   -28924361.26444 -22526287.86342  20394636.797    20394634.940
  22528926.876   -16083898.22643 -12481487.32442  22528928.425    22528925.691
 04  7 16  2 57  0.0000000  0  8G29G13G27G28G31G10G 8G19
  23829006.981    -9643708.22643  -7214594.46842  23829009.292    23829008.273
  22630382.360   -15860204.61643 -12303667.86442  22630384.809    22630383.047
  20767345.421   -25155097.62844 -19555945.80042  20767347.277    20767345.671
  21458693.572   -20988716.27143 -15765562.66742  21458695.589    21458693.286
  22431015.226   -18785472.57643 -14325674.27342  22431017.190    22431017.152
  23465281.941    -7972918.26443  -6156965.32542  23465283.202    23465283.101
  20389960.777   -28948931.01344 -22545433.12342  20389961.304    20389959.465
  22534584.874   -16054165.47943 -12458318.95042  22534586.430    22534583.573
 04  7 16  2 57 30.0000000  0  8G29G13G27G28G31G10G 8G19
  23811043.437    -9738107.12243  -7288151.99442  23811045.716    23811044.684
  22649428.105   -15760119.16943 -12225679.27842  22649430.480    22649428.841
  20769756.322   -25142428.39044 -19546073.66742  20769758.154    20769756.565
  21448265.502   -21043515.72143 -15808263.51042  21448267.523    21448265.206
  22411049.030   -18890395.26343 -14407432.14142  22411050.989    22411051.023
  23472802.842    -7933395.42043  -6126168.32542  23472804.233    23472804.065
  20385338.726   -28973220.06444 -22564359.65742  20385339.250    20385337.438
  22540348.471   -16023878.38543 -12434718.61642  22540350.003    22540347.054
 04  7 16  2 58  0.0000000  0  8G29G13G27G28G31G10G 8G19
  23793117.502    -9832308.29543  -7361555.45642  23793119.775    23793118.777
  22668525.909   -15659759.74043 -12147477.18642  22668528.300    22668526.632
  20772216.684   -25129499.20944 -19535998.98742  20772218.514    20772216.893
  21437901.556   -21097978.81243 -15850702.25342  21437903.511    21437901.236
  22391130.031   -18995070.27943 -14488997.02442  22391131.932    22391132.002
  23480413.525    -7893400.82943  -6095003.74942  23480414.972    23480414.774
  20380770.640   -28997225.63444 -22583065.29342  20380771.142    20380769.290
  22546217.434   -15993036.38243 -12410685.89042  22546219.010    22546216.112
 04  7 16  2 58 30.0000000  0  8G29G13G27G28G31G10G 8G19
  23775228.675    -9926314.59543  -7434807.07342  23775230.905    23775229.949
  22687674.346   -15559133.96443 -12069067.57242  22687676.769    22687675.152
  20774725.612   -25116314.68444 -19525725.33642  20774727.436    20774725.824
  21427600.556   -21152110.41043 -15892882.67942  21427602.573    21427600.277
  22371257.731   -19099499.71643 -14570370.53442  22371259.596    22371259.603
  23488112.717    -7852941.79643  -6063477.25742  23488114.192    23488113.883
  20376255.585   -29020952.24944 -22601553.56442  20376256.101    20376254.218
  22552190.842   -15961645.58243 -12386225.54042  22552192.367    22552189.539
 04  7 16  2 59  0.0000000  0  8G29G13G27G28G31G10G 8G19
  23757378.863   -10020115.27043  -7507898.45842  23757381.119    23757380.355
  22706874.783   -15458235.32443 -11990445.31442  22706877.180    22706875.623
  20777284.787   -25102865.98944 -19515245.83942  20777286.629    20777285.013
  21417364.337   -21205902.08343 -15934798.23042  21417366.357    21417364.008
  22351434.311   -19203672.28643 -14651543.90242  22351436.185    22351436.114
  23495901.260    -7812012.10443  -6031584.01942  23495902.764    23495902.597
  20371795.421   -29044390.55544 -22619817.17942  20371795.930    20371794.056
  22558270.118   -15929698.81143 -12361331.94442  22558271.648    22558268.775
 04  7 16  2 59 30.0000000  0  8G29G13G27G28G31G10G 8G19
  23739566.950   -10113717.14143  -7580834.93642  23739569.253    23739568.494
  22726124.910   -15357075.54643 -11911619.59742  22726127.220    22726125.734
  20779892.685   -25089161.39044 -19504566.93742  20779894.527    20779892.931
  21407191.063   -21259362.88443 -15976455.96542  21407193.068    21407190.763
  22331658.780   -19307593.98943 -14732521.77442  22331660.620    22331660.391
  23503777.159    -7770623.43443  -5999333.11942  23503778.644    23503778.662
  20367388.472   -29067549.36744 -22637863.00542  20367388.970    20367387.082
  22564453.356   -15897206.23143 -12336013.05642  22564454.887    22564451.940
 04  7 16  3  0  0.0000000  0  8G29G13G27G28G31G10G 8G19
  23721794.555   -10207111.15643  -7653609.45442  23721796.816    23721796.011
  22745425.525   -15255650.30643 -11832587.01642  22745427.813    22745426.347
  20782550.684   -25075193.56344 -19493682.92142  20782552.540    20782550.937
  21397082.052   -21312485.80743 -16017850.40442  21397084.075    21397081.771
  22311932.586   -19411255.06343 -14813296.57142  22311934.563    22311934.241
  23511741.505    -7728771.24043  -5966721.04142  23511742.909    23511742.846
  20363036.218   -29090420.65144 -22655684.78742  20363036.742    20363034.834
  22570741.442   -15864161.94343 -12310264.26542  22570743.024    22570740.108
 04  7 16  3  0 30.0000000  0  8G29G13G27G28G31G10G 8G19
  23704061.701   -10300298.05043  -7726222.59542  23704063.936    23704063.085
  22764775.713   -15153964.56243 -11753351.44842  22764778.027    22764776.607
  20785258.265   -25060965.06344 -19482595.78142  20785260.146    20785258.548
  21387036.808   -21365273.94743 -16058983.98042  21387038.825    21387036.490
  22292255.958   -19514655.66143 -14893868.39242  22292258.008    22292257.742
  23519792.853    -7686461.02843  -5933752.07642  23519794.269    23519794.232
  20358738.057   -29113007.49344 -22673284.92642  20358738.591    20358736.721
  22577133.642   -15830570.16943 -12284088.86942  22577135.235    22577132.466
 04  7 16  3  1  0.0000000  0  8G29G13G27G28G31G10G 8G19
  23686368.950   -10393274.56643  -7798671.78442  23686371.089    23686370.171
  22784175.163   -15052020.25543 -11673914.39942  22784177.431    22784176.015
  20788015.796   -25046474.37844 -19471304.35142  20788017.653    20788016.064
  21377055.321   -21417726.44843 -16099856.03342  21377057.386    21377055.102
  22272629.718   -19617791.98543 -14974234.27142  22272631.762    22272631.530
  23527931.158    -7643694.20143  -5900427.30742  23527932.496    23527932.673
  20354494.451   -29135307.91644 -22690661.88442  20354494.955    20354493.104
  22583630.059   -15796431.52843 -12257487.33942  22583631.560    22583628.874
 04  7 16  3  1 30.0000000  0  9G29G13G27G28G31G10G26G 8G19
  23668714.797   -10486046.92843  -7870961.90742  23668717.038    23668716.124
  22803621.742   -14949828.04643 -11594284.18542  22803624.043    22803622.602
  20790821.643   -25031729.51544 -19459814.85242  20790823.497    20790821.944
  21367136.185   -21469851.79343 -16140473.16642  21367138.244    21367135.979
  22253052.762   -19720669.46943 -15054398.48142  22253054.814    22253054.510
  23536154.295    -7600481.70943  -5866755.26042  23536155.608    23536155.885
  24300928.414    -4886649.08953  -3756319.09552  24300931.017    24300931.162
  20350303.917   -29157329.33444 -22707821.43142  20350304.388    20350302.572
  22590228.626   -15761755.91643 -12230467.38342  22590230.150    22590227.330
 04  7 16  3  2  0.0000000  0  9G29G13G27G28G31G10G26G 8G19
  23651103.602   -10578593.98143  -7943076.44342  23651105.777    23651104.996
  22823118.702   -14847371.25443 -11514447.81742  22823120.956    22823119.639
  20793679.571   -25016711.03344 -19448112.15042  20793681.410    20793679.889
  21357282.960   -21521630.94843 -16180820.52342  21357284.935    21357282.726
  22233529.122   -19823266.28743 -15134343.95542  22233531.147    22233530.873
  23544465.292    -7556806.97443  -5832723.04142  23544466.632    23544466.934
  24281349.053    -4989538.89143  -3836492.92342  24281351.675    24281351.693
  20346170.193   -29179052.42344 -22724748.51642  20346170.673    20346168.816
  22596932.726   -15726525.63043 -12203015.21242  22596934.266    22596931.312
 04  7 16  3  2 30.0000000  0  9G29G13G27G28G31G10G26G 8G19
  23633533.688   -10670924.60443  -8015022.33042  23633535.792    23633535.085
  22842663.431   -14744663.37343 -11434415.77042  22842665.773    22842664.297
  20796587.610   -25001429.39144 -19436204.38742  20796589.436    20796587.915
  21347493.384   -21573075.23943 -16220906.95242  21347495.384    21347493.162
  22214057.495   -19925590.53643 -15214077.06642  22214059.516    22214059.072
  23552861.695    -7512683.74343  -5798341.32542  23552863.068    23552863.225
  24261804.285    -5092247.32543  -3916525.42942  24261806.903    24261806.813
  20342091.185   -29200487.62544 -22741451.27542  20342091.700    20342089.801
  22603740.105   -15690752.68543 -12175140.20142  22603741.632    22603738.694
 04  7 16  3  3  0.0000000  0  9G29G13G27G28G31G10G26G 8G19
  23616005.704   -10763034.51943  -8086796.22842  23616007.837    23616007.062
  22862255.816   -14641705.09043 -11354188.62242  22862258.220    22862256.598
  20799546.169   -24985882.30744 -19424089.78842  20799547.986    20799546.449
  21337767.941   -21624182.65344 -16260730.89542  21337769.973    21337767.693
  22194638.512   -20027637.66143 -15293594.22842  22194640.564    22194640.029
  23561343.277    -7468112.63043  -5763610.61042  23561344.711    23561344.777
  24242294.665    -5194770.35843  -3996413.46042  24242297.241    24242297.146
  20338067.483   -29221632.23844 -22757927.58842  20338068.034    20338066.105
  22610650.766   -15654437.08043 -12146842.33242  22610652.306    22610649.325
 04  7 16  3  3 30.0000000  0  9G29G13G27G28G31G10G26G 8G19
  23598520.218   -10854921.61643  -8158396.51542  23598522.256    23598521.406
  22881895.305   -14538498.94743 -11273768.33842  22881897.686    22881896.182
  20802555.260   -24970069.26644 -19411767.95042  20802557.097    20802555.557
  21328106.641   -21674953.11843 -16300292.26742  21328108.656    21328106.318
  22175272.744   -20129404.60043 -15372893.05942  22175274.838    22175274.346
  23569909.742    -7423095.92343  -5728532.69342  23569911.143    23569911.198
  24222821.062    -5297105.34543  -4076154.98242  24222823.701    24222823.424
  20334099.169   -29242485.88044 -22774177.18142  20334099.696    20334097.788
  22617664.432   -15617579.89043 -12118122.45842  22617665.952    22617663.059
 04  7 16  3  4  0.0000000  0  9G29G13G27G28G31G10G26G 8G19
  23581077.667   -10946582.39243  -8229820.43842  23581079.778    23581078.961
  22901581.808   -14435046.12043 -11193155.82942  22901584.236    22901582.662
  20805615.362   -24953988.39344 -19399237.41042  20805617.193    20805615.610
  21318509.628   -21725385.67444 -16339590.33842  21318511.622    21318509.279
  22155961.292   -20230887.17643 -15451970.31942  22155963.357    22155962.748
  23578560.636    -7377635.15843  -5693108.74542  23578561.959    23578562.169
  24203383.899    -5399248.67143  -4155747.11542  24203386.395    24203386.086
  20330186.629   -29263046.41144 -22790198.37642  20330187.133    20330185.272
  22624781.183   -15580181.25343 -12088980.67242  22624782.718    22624779.768
 04  7 16  3  4 30.0000000  0  9G29G13G27G28G31G10G26G 8G19
  23563678.362   -11038015.75843  -8301067.15642  23563680.553    23563679.762
  22921314.521   -14331350.10943 -11112353.82042  22921317.028    22921315.526
  20808726.228   -24937640.61744 -19386498.89842  20808728.086    20808726.497
  21308976.676   -21775481.65843 -16378626.14042  21308978.658    21308976.322
  22136704.157   -20332083.87743 -15530824.80642  22136706.203    22136705.602
  23587295.327    -7331734.30943  -5657341.88742  23587296.630    23587296.745
  24183983.147    -5501199.41943  -4235189.20542  24183985.689    24183985.376
  20326329.715   -29283314.61944 -22805991.78642  20326330.231    20326328.377
  22632000.397   -15542244.21343 -12059419.34542  22632001.937    22631998.991
 04  7 16  3  5  0.0000000  0  9G29G13G27G28G31G10G26G 8G19
  23546323.211   -11129217.19143  -8372133.12342  23546325.478    23546324.759
  22941093.549   -14227411.19043 -11031362.54142  22941096.003    22941094.513
  20811888.480   -24921023.00244 -19373550.11642  20811890.313    20811888.722
  21299508.169   -21825238.89143 -16417397.99142  21299510.124    21299507.764
  22117502.354   -20432989.41843 -15609452.42242  22117504.430    22117503.867
  23596113.736    -7285393.31443  -5621232.03942  23596115.081    23596115.015
  24164619.917    -5602952.71443  -4314477.39442  24164622.675    24164622.474
  20322529.055   -29303287.33944 -22821554.94042  20322529.559    20322527.725
  22639322.270   -15503767.68643 -12029437.64242  22639323.820    22639320.829
 04  7 16  3  5 30.0000000  0  9G29G13G27G28G31G10G26G 8G19
  23529011.582   -11220190.34743  -8443021.24442  23529013.882    23529013.103
  22960917.232   -14123237.67443 -10950188.46142  22960919.602    22960918.212
  20815100.999   -24904141.02544 -19360395.33942  20815102.816    20815101.296
  21290103.023   -21874663.24043 -16455910.44242  21290104.977    21290102.551
  22098355.292   -20533606.88243 -15687855.56642  22098357.408    22098356.877
  23605014.410    -7238620.94043  -5584786.07042  23605015.725    23605015.531
  24145293.928    -5704512.15243  -4393614.56442  24145296.497    24145296.220
  20318783.586   -29322969.85644 -22836891.96242  20318784.103    20318782.261
  22646745.389   -15464758.96643 -11999041.24542  22646746.913    22646743.886
 04  7 16  3  6  0.0000000  0  9G29G13G27G28G31G10G26G 8G19
  23511745.179   -11310925.85743  -8513724.17542  23511747.403    23511746.674
  22980786.297   -14018825.11343 -10868828.11342  22980788.655    22980787.419
  20818365.260   -24886987.12044 -19347028.66942  20818367.069    20818365.608
  21280762.555   -21923747.59443 -16494157.95442  21280764.504    21280762.074
  22079265.154   -20633926.32743 -15766026.48542  22079267.174    22079266.649
  23613997.832    -7191412.75643  -5548000.50042  23613999.213    23613999.055
  24126006.453    -5805868.06743  -4472593.17842  24126008.934    24126008.528
  20315094.784   -29342354.51144 -22851996.88542  20315095.301    20315093.505
  22654270.838   -15425212.52543 -11968225.85342  22654272.372    22654269.343
 04  7 16  3  6 30.0000000  0  9G29G13G27G28G31G10G26G 8G19
  23494524.625   -11401420.61943  -8584239.51842  23494526.772    23494526.021
  23000700.550   -13914174.80743 -10787282.49742  23000702.929    23000701.788
  20821681.602   -24869559.98944 -19333449.09842  20821683.363    20821681.882
  21271486.874   -21972491.52443 -16532140.21342  21271488.862    21271486.392
  22060232.446   -20733943.93843 -15843962.20742  22060234.406    22060233.881
  23623063.903    -7143770.47143  -5510876.65842  23623065.284    23623065.169
  24106758.128    -5907017.39043  -4551410.77742  24106760.720    24106760.319
  20311463.037   -29361439.42444 -22866868.24742  20311463.528    20311461.743
  22661898.463   -15385129.00743 -11936991.93842  22661900.013    22661897.019
 04  7 16  3  7  0.0000000  0  9G29G13G27G28G31G10G26G 8G19
  23477348.451   -11491681.36643  -8654572.49942  23477350.628    23477349.927
  23020657.935   -13809298.35743 -10705560.66442  23020660.232    23020659.129
  20825048.308   -24851867.92144 -19319663.08042  20825050.109    20825048.596
  21262274.210   -22020904.06644 -16569864.24642  21262276.240    21262273.756
  22041255.962   -20833665.90143 -15921667.56642  22041257.928    22041257.328
  23632210.134    -7095705.82943  -5473423.72542  23632211.632    23632211.626
  24087547.972    -6007966.62743  -4630072.45542  24087550.537    24087550.425
  20307886.712   -29380233.11444 -22881512.67842  20307887.186    20307885.430
  22669626.274   -15344518.85743 -11905347.67742  22669627.832    22669624.880
 04  7 16  3  7 30.0000000  0  9G29G13G27G28G31G10G26G 8G19
  23460219.416   -11581694.34643  -8724712.42642  23460221.600    23460220.830
  23040660.065   -13704187.01143 -10623655.80942  23040662.291    23040661.162
  20828467.732   -24833899.13644 -19305661.44442  20828469.512    20828467.938
  21253126.792   -22068973.89943 -16607321.24242  21253128.807    21253126.317
  22022338.437   -20933077.95943 -15999131.43842  22022340.460    22022339.763
  23641438.668    -7047209.95443  -5435634.77942  23641440.019    23641440.180
  24068378.809    -6108702.09143  -4708567.57242  24068381.364    24068381.024
  20304368.019   -29398723.97244 -22895921.13642  20304368.492    20304366.727
  22677456.213   -15303372.44943 -11873285.54342  22677457.748    22677454.765
 04  7 16  3  8  0.0000000  0  9G29G13G27G28G31G10G26G 8G19
  23443136.516   -11671465.90943  -8794664.25242  23443138.691    23443137.742
  23060704.855   -13598851.48243 -10541576.25442  23060707.077    23060705.980
  20831938.185   -24815661.59644 -19291450.37742  20831939.978    20831938.429
  21244043.002   -22116709.62043 -16644517.88842  21244044.978    21244042.452
  22003478.815   -21032185.57443 -16076358.08042  22003480.817    22003480.097
  23650747.162    -6998293.86143  -5397518.39842  23650748.467    23650748.669
  24049249.191    -6209229.54443  -4786900.63242  24049251.597    24049251.164
  20300905.654   -29416918.75944 -22910098.88442  20300906.154    20300904.369
  22685386.296   -15261699.61843 -11840813.21742  22685387.850    22685384.899
 04  7 16  3  8 30.0000000  0  9G29G13G27G28G31G10G26G 8G19
  23426101.667   -11760985.00343  -8864419.34342  23426103.828    23426102.815
  23080793.389   -13493285.78743 -10459317.35842  23080795.608    23080794.557
  20835461.530   -24797146.21644 -19277022.81342  20835463.324    20835461.791
  21235024.410   -22164102.59144 -16681447.46942  21235026.395    21235023.863
  21984679.280   -21130977.30143 -16153338.57242  21984681.334    21984680.562
  23660136.611    -6948951.79243  -5359070.06542  23660137.943    23660138.135
  24030160.920    -6309538.00943  -4865062.99842  24030163.339    24030163.156
  20297501.194   -29434809.03844 -22924039.35542  20297501.731    20297499.945
  22693418.015   -15219493.05243 -11807924.99242  22693419.534    22693416.599
 04  7 16  3  9  0.0000000  0  9G29G13G27G28G31G10G26G 8G19
  23409113.375   -11850258.63643  -8933983.17742  23409115.635    23409114.665
  23100923.527   -13387501.74643 -10376888.30242  23100925.729    23100924.649
  20839036.097   -24778361.71644 -19262385.55142  20839037.896    20839036.357
  21226069.198   -22211162.37244 -16718117.39842  21226071.185    21226068.691
  21965938.675   -21229459.61343 -16230077.97042  21965940.723    21965939.956
  23669604.979    -6899195.47843  -5320298.96142  23669606.264    23669606.440
  24011113.290    -6409634.34443  -4943060.12342  24011115.581    24011115.250
  20294153.177   -29452403.10844 -22937749.01942  20294153.693    20294151.890
  22701548.954   -15176764.03843 -11774629.67742  22701550.519    22701547.695
 04  7 16  3  9 30.0000000  0  9G29G13G27G28G31G10G26G 8G19
  23392173.523   -11939277.48943  -9003348.48342  23392175.844    23392174.914
  23121096.116   -13281494.68143 -10294285.47142  23121098.379    23121097.194
  20842663.291   -24759300.64744 -19247532.77842  20842665.118    20842663.538
  21217178.682   -22257882.19344 -16754522.42542  21217180.671    21217178.205
  21947258.840   -21327622.57343 -16306568.52742  21947260.837    21947260.081
  23679152.962    -6849020.67243  -5281201.75442  23679154.288    23679154.558
  23992107.771    -6509509.18743  -5020884.61942  23992110.072    23992109.776
  20290863.022   -29469693.03644 -22951221.68942  20290863.529    20290861.750
  22709780.432   -15133507.29243 -11740923.14542  22709781.984    22709779.171
 04  7 16  3 10  0.0000000  0  9G29G13G27G28G31G10G26G 8G19
  23375282.247   -12028042.10243  -9072515.70642  23375284.511    23375283.445
  23141309.997   -13175269.99443 -10211513.07142  23141312.386    23141311.201
  20846342.701   -24739965.39744 -19232466.35742  20846344.517    20846342.930
  21208352.353   -22304264.95944 -16790664.81542  21208354.315    21208351.824
  21928639.821   -21425466.09143 -16382810.16342  21928641.820    21928640.986
  23688779.557    -6798432.97443  -5241782.81542  23688780.900    23688781.045
  23973144.331    -6609162.71843  -5098536.68242  23973146.807    23973146.300
  20287630.275   -29486681.22344 -22964459.23542  20287630.773    20287629.007
  22718111.645   -15089726.86443 -11706808.53742  22718113.121    22718110.344
 04  7 16  3 10 30.0000000  0  9G29G13G27G28G31G10G26G 8G19
  23358440.237   -12116547.79643  -9141481.18242  23358442.374    23358441.365
  23161565.350   -13068827.51643 -10128570.95442  23161567.736    23161566.671
  20850074.819   -24720352.89944 -19217183.90142  20850076.651    20850075.118
  21199590.494   -22350308.70044 -16826543.02742  21199592.480    21199589.993
  21910082.511   -21522985.02643 -16458798.88542  21910084.579    21910083.705
  23698484.531    -6747432.95643  -5202042.58342  23698485.831    23698486.006
  23954223.750    -6708590.37943  -5176012.73442  23954226.135    23954225.768
  20284455.612   -29503364.28544 -22977459.02542  20284456.103    20284454.339
  22726542.524   -15045422.12043 -11672285.37042  22726544.023    22726541.197
 04  7 16  3 11  0.0000000  0 10G29G13G27G28G31G10G26G 8G 7G19
  23341645.283   -12204805.69043  -9210253.53842  23341647.381    23341646.395
  23181859.106   -12962183.43743 -10045471.75442  23181861.489    23181860.490
  20853857.251   -24700476.20244 -19201695.57742  20853859.087    20853857.524
  21190890.619   -22396026.68244 -16862167.40542  21190892.624    21190890.165
  21891584.919   -21620189.89743 -16534542.87342  21891586.989    21891586.253
  23708264.905    -6696036.67843  -5161993.57542  23708266.234    23708266.486
  23935344.183    -6807802.84643  -5253321.07242  23935346.561    23935346.412
  20281336.519   -29519755.21544 -22990231.18042  20281337.038    20281335.257
  24446237.203    -4640501.52553  -3117121.96152  24446239.704    24446244.014
  22735070.264   -15000608.29543 -11637365.51842  22735071.813    22735068.920
 04  7 16  3 11 30.0000000  0 10G29G13G27G28G31G10G26G 8G 7G19
  23324903.224   -12292785.45843  -9278809.18742  23324905.383    23324904.494
  23202195.953   -12855312.19943  -9962195.53242  23202198.498    23202197.475
  20857695.369   -24680306.69344 -19185979.08542  20857697.196    20857695.637
  21182258.090   -22441391.06344 -16897516.25542  21182260.085    21182257.585
  21873153.079   -21717049.71843 -16610018.00042  21873155.133    21873154.387
  23718125.574    -6644219.02243  -5121616.24142  23718126.904    23718127.210
  23916511.337    -6906769.71743  -5330438.05242  23916513.621    23916513.773
  20278278.506   -29535825.33244 -23002753.35242  20278279.010    20278277.241
  24426096.811    -4746338.73043  -3199592.18242  24426099.231    24426103.426
  22743700.019   -14955258.88343 -11602028.32242  22743701.564    22743698.628
 04  7 16  3 12  0.0000000  0 10G29G13G27G28G31G10G26G 8G 7G19
  23308210.969   -12380503.78943  -9347161.12742  23308213.161    23308212.235
  23222572.113   -12748235.31943  -9878759.07342  23222574.605    23222573.541
  20861585.691   -24659862.85544 -19170048.82742  20861587.535    20861585.977
  21173689.154   -22486421.13444 -16932604.60442  21173691.171    21173688.610
  21854783.838   -21813580.65143 -16685236.84642  21854785.854    21854785.069
  23728062.169    -6592001.63643  -5080927.42142  23728063.593    23728063.944
  23897722.046    -7005507.42543  -5407376.44642  23897724.398    23897724.534
  20275278.066   -29551592.77744 -23015039.67042  20275278.577    20275276.762
  24405959.571    -4852159.52443  -3282049.60342  24405962.010    24405965.990
  22752427.738   -14909394.56243 -11566289.89642  22752429.371    22752426.364
 04  7 16  3 12 30.0000000  0 10G29G13G27G28G31G10G26G 8G 7G19
  23291569.478   -12467955.61143  -9415305.39142  23291571.687    23291570.678
  23242987.482   -12640952.30843  -9795162.00342  23242989.874    23242988.835
  20865528.848   -24639141.56144 -19153902.37242  20865530.667    20865529.146
  21165184.282   -22531114.47444 -16967430.56242  21165186.280    21165183.738
  21836478.177   -21909777.30043 -16760195.21042  21836480.179    21836479.389
  23738074.955    -6539384.35743  -5039927.01742  23738076.321    23738076.636
  23878977.511    -7104010.96043  -5484132.40342  23878979.851    23878979.808
  20272335.857   -29567054.13544 -23027087.47942  20272336.374    20272334.519
  24385826.269    -4957959.15343  -3364490.53242  24385828.815    24385832.537
  22761253.596   -14863014.46943 -11530149.58842  22761255.170    22761252.255
 04  7 16  3 13  0.0000000  0 10G29G13G27G28G31G10G26G 8G 7G19
  23274979.753   -12555135.22043  -9483237.54642  23274981.973    23274980.943
  23263442.257   -12533462.26643  -9711403.59142  23263444.659    23263443.522
  20869525.596   -24618138.69544 -19137536.50642  20869527.393    20869525.859
  21156744.217   -22575467.49344 -17001991.33642  21156746.221    21156743.615
  21818237.290   -22005633.14543 -16834888.01142  21818239.321    21818238.533
  23748163.967    -6486366.52343  -4998614.46442  23748165.373    23748165.548
  23860278.352    -7202274.29143  -5560701.16442  23860280.829    23860280.940
  20269452.715   -29582205.16044 -23038893.47442  20269453.235    20269451.344
  24365698.216    -5063731.81243  -3446910.44842  24365700.934    24365704.413
  22770177.868   -14816116.91443 -11493606.06242  22770179.444    22770176.611
 04  7 16  3 13 30.0000000  0 10G29G13G27G28G31G10G26G 8G 7G19
  23258441.693   -12642043.13143  -9550957.98942  23258443.894    23258442.836
  23283935.292   -12425770.77943  -9627488.22942  23283937.602    23283936.676
  20873575.411   -24596856.85144 -19120953.25642  20873577.197    20873575.658
  21148368.209   -22619483.46644 -17036289.47842  21148370.213    21148367.639
  21800061.439   -22101148.30243 -16909315.34542  21800063.407    21800062.536
  23758328.134    -6432953.73643  -4956994.16142  23758329.484    23758329.633
  23841625.012    -7300297.79543  -5637083.05142  23841627.633    23841627.596
  20266628.162   -29597048.22244 -23050459.48842  20266628.691    20266626.786
  24345575.118    -5169478.24643  -3529309.97242  24345577.805    24345581.245
  22779199.897   -14768706.33043 -11456662.75942  22779201.432    22779198.678
 04  7 16  3 14  0.0000000  0 10G29G13G27G28G31G10G26G 8G 7G19
  23241956.029   -12728675.71943  -9618463.90342  23241958.188    23241957.143
  23304466.521   -12317879.28243  -9543417.00842  23304468.729    23304467.811
  20877678.632   -24575294.15544 -19104151.16542  20877680.427    20877678.891
  21140056.586   -22663161.47344 -17070324.26742  21140058.562    21140056.016
  21781950.971   -22196318.73143 -16983474.05842  21781953.017    21781952.139
  23768567.126    -6379147.60243  -4915067.37742  23768568.509    23768568.728
  23823017.989    -7398077.74143  -5713275.13342  23823020.653    23823020.677
  20263862.594   -29611581.47344 -23061784.10042  20263863.118    20263861.184
  24325457.559    -5275195.11743  -3611686.44742  24325460.066    24325463.688
  22788319.361   -14720783.15843 -11419320.04542  22788320.957    22788318.155
 04  7 16  3 14 30.0000000  0 10G29G13G27G28G31G10G26G 8G 7G19
  23225523.307   -12815030.11243  -9685753.03442  23225525.532    23225524.481
  23325035.383   -12209789.40843  -9459191.19642  23325037.733    23325036.688
  20881835.548   -24553449.47244 -19087129.33642  20881837.327    20881835.805
  21131809.306   -22706500.89344 -17104095.22242  21131811.324    21131808.788
  21763906.959   -22291140.84443 -17057361.36242  21763908.966    21763908.037
  23778880.609    -6324950.44843  -4872835.88742  23778881.995    23778882.174
  23804458.103    -7495611.06543  -5789275.04542  23804460.623    23804460.526
  20261156.294   -29625803.00244 -23072865.80442  20261156.839    20261154.942
  24305346.187    -5380879.51743  -3694037.64142  24305348.683    24305352.241
  22797536.091   -14672348.83643 -11381579.02142  22797537.636    22797534.841
 04  7 16  3 15  0.0000000  0 10G29G13G27G28G31G10G26G 8G 7G19
  23209143.795   -12901105.73843  -9752824.93742  23209145.962    23209144.828
  23345641.155   -12101505.23643  -9374814.03742  23345643.516    23345642.748
  20886045.839   -24531324.18244 -19069888.85442  20886047.671    20886046.105
  21123626.061   -22749504.10244 -17137604.19942  21123628.078    21123625.473
  21745929.295   -22385613.82543 -17130976.61442  21745931.349    21745930.369
  23789267.554    -6270366.96043  -4830303.34642  23789268.941    23789269.001
  23785945.338    -7592896.94043  -5865082.16542  23785947.839    23785947.426
  20258509.020   -29639714.53944 -23083705.96242  20258509.572    20258507.698
  24285241.182    -5486531.10843  -3776363.28942  24285243.753    24285247.032
  22806849.513   -14623406.92243 -11343442.47842  22806850.954    22806848.184
 04  7 16  3 15 30.0000000  0 10G29G13G27G28G31G10G26G 8G 7G19
  23192818.560   -12986895.62443  -9819674.19242  23192820.710    23192819.586
  23366284.508   -11993024.91143  -9290283.98342  23366286.752    23366285.878
  20890310.513   -24508913.12844 -19052425.70042  20890312.337    20890310.789
  21115507.689   -22792166.52144 -17170847.61942  21115509.640    21115507.058
  21728019.438   -22479730.05243 -17204313.87742  21728021.561    21728020.631
  23799728.389    -6215395.31343  -4787468.37342  23799729.736    23799729.849
  23767480.907    -7689928.29443  -5940690.94942  23767483.391    23767483.005
  20255921.794   -29653310.40844 -23094300.14242  20255922.312    20255920.484
  24265143.601    -5592143.12643  -3858658.10042  24265146.134    24265149.518
  22816260.047   -14573954.33443 -11304908.01042  22816261.429    22816258.697
 04  7 16  3 16  0.0000000  0 10G29G13G27G28G31G10G26G 8G 7G19
  23176546.645   -13072404.93243  -9886304.81042  23176548.875    23176547.723
  23386963.034   -11884358.39443  -9205608.87642  23386965.364    23386964.477
  20894628.246   -24486223.22943 -19034745.26242  20894630.070    20894628.489
  21107452.708   -22834495.70144 -17203831.37742  21107454.687    21107452.063
  21710176.721   -22573494.07543 -17277376.69842  21710178.799    21710177.883
  23810261.213    -6160045.61043  -4744338.79142  23810262.613    23810262.652
  23749063.817    -7786710.12943  -6016105.28042  23749066.409    23749065.963
  20253393.314   -29666597.41044 -23104653.65342  20253393.842    20253392.057
  24245052.829    -5697720.50743  -3940925.95042  24245055.212    24245058.468
  22825765.908   -14524000.66943 -11265983.08942  22825767.347    22825764.557
 04  7 16  3 16 30.0000000  0 10G29G13G27G28G31G10G26G 8G 7G19
  23160330.258   -13157622.09043  -9952707.77542  23160332.555    23160331.482
  23407678.448   -11775498.77643  -9120783.31542  23407680.737    23407679.902
  20899000.929   -24463244.73944 -19016839.94842  20899002.748    20899001.148
  21099462.803   -22876482.77744 -17236548.56042  21099464.805    21099462.164
  21692403.307   -22666893.84443 -17350155.68142  21692405.357    21692404.424
  23820867.013    -6104311.49543  -4700909.66642  23820868.418    23820868.502
  23730696.399    -7883230.45743  -6091315.85642  23730698.955    23730698.537
  20250925.628   -29679565.28744 -23114758.49242  20250926.125    20250924.374
  24224970.798    -5803251.97443  -4023158.02142  24224973.142    24224976.316
  22835368.593   -14473538.27443 -11226661.75042  22835370.072    22835367.246
 04  7 16  3 17  0.0000000  0 10G29G13G27G28G31G10G26G 8G 7G19
  23144169.037   -13242549.53443 -10018884.98742  23144171.227    23144170.375
  23428429.209   -11666453.42143  -9035813.00642  23428431.443    23428430.688
  20903427.634   -24439982.09944 -18998713.21642  20903429.462    20903427.892
  21091537.057   -22918132.82944 -17269003.13142  21091539.045    21091536.380
  21674698.826   -22759931.47443 -17422652.47342  21674700.835    21674699.903
  23831544.457    -6048200.84543  -4657187.14042  23831545.798    23831546.112
  23712378.342    -7979491.85243  -6166324.66342  23712381.021    23712380.546
  20248517.796   -29692218.33344 -23124618.00342  20248518.296    20248516.607
  24204896.860    -5908740.18943  -4105356.37742  24204899.300    24204902.328
  22845066.812   -14422573.96043 -11186949.31642  22845068.296    22845065.458
 04  7 16  3 17 30.0000000  0 10G29G13G27G28G31G10G26G 8G 7G19
  23128063.366   -13327185.06443 -10084834.72442  23128065.564    23128064.808
  23449214.772   -11557224.94843  -8950700.02042  23449217.023    23449216.256
  20907908.481   -24416434.73344 -18980364.61942  20907910.320    20907908.807
  21083675.382   -22959446.02044 -17301195.20142  21083677.377    21083674.722
  21657063.775   -22852604.08343 -17494864.83842  21657065.769    21657064.857
  23842293.266    -5991716.46043  -4613173.40142  23842294.578    23842294.792
  23694110.170    -8075491.64143  -6241129.62242  23694112.776    23694112.438
  20246170.054   -29704556.02144 -23134231.78542  20246170.539    20246168.811
  24184831.646    -6014182.91043  -4187519.29542  24184834.045    24184837.068
  22854860.214   -14371109.36643 -11146847.04842  22854861.727    22854858.858
 04  7 16  3 18  0.0000000  0 10G29G13G27G28G31G10G26G 8G 7G19
  23112013.847   -13411525.98643 -10150554.88242  23112016.092    23112015.213
  23470034.536   -11447815.63543  -8865446.11742  23470036.905    23470036.145
  20912443.730   -24392602.04744 -18961793.69742  20912445.546    20912443.981
  21075877.762   -23000422.53144 -17333124.92842  21075879.750    21075877.172
  21639498.615   -22944908.79743 -17566790.53142  21639500.633    21639499.830
  23853112.527    -5934861.17343  -4568870.63842  23853113.805    23853114.046
  23675892.243    -8171227.14743  -6315728.63242  23675894.692    23675894.396
  20243882.504   -29716577.19344 -23143598.92842  20243882.992    20243881.213
  24164775.542    -6119577.70443  -4269644.88242  24164777.939    24164780.935
  22864748.548   -14319146.27843 -11106356.34242  22864750.043    22864747.124
 04  7 16  3 18 30.0000000  0 10G29G13G27G28G31G10G26G 8G 7G19
  23096021.094   -13495568.95043 -10216042.89442  23096023.428    23096022.309
  23490888.723   -11338226.79243  -8780052.32142  23490891.128    23490890.316
  20917033.654   -24368482.19544 -18942999.01442  20917035.428    20917033.866
  21068144.443   -23041061.46944 -17364791.61742  21068146.412    21068143.773
  21622004.423   -23036841.52343 -17638426.36442  21622006.386    21622005.567
  23864002.019    -5877636.28043  -4524279.86542  23864003.372    23864003.713
  23657725.425    -8266694.69543  -6390118.88342  23657727.876    23657727.385
  20241655.569   -29728279.83744 -23152717.87042  20241656.055    20241654.281
  24144729.053    -6224921.22243  -4351730.50542  24144731.435    24144734.570
  22874731.435   -14266685.64743 -11065477.94542  22874732.967    22874730.069
 04  7 16  3 19  0.0000000  0 10G29G13G27G28G31G10G26G 8G 7G19
  23080085.158   -13579312.77843 -10281297.78642  23080087.573    23080086.363
  23511776.313   -11228462.41343  -8694521.75542  23511778.643    23511777.972
  20921678.006   -24344075.97243 -18923981.18542  20921679.800    20921678.208
  21060475.024   -23081364.40444 -17396196.47542  21060476.992    21060474.351
  21604581.278   -23128400.68843 -17709771.10642  21604583.181    21604582.341
  23874961.233    -5820046.03143  -4479404.39842  23874962.504    23874962.826
  23639609.684    -8361893.00843  -6464299.32242  23639612.149    23639611.754
  20239489.170   -29739664.33544 -23161588.90742  20239489.656    20239487.896
  24124692.518    -6330212.33843  -4433775.28642  24124694.879    24124698.188
  22884808.437   -14213730.47843 -11024214.20342  22884809.957    22884807.053
 04  7 16  3 19 30.0000000  0 10G29G13G27G28G31G10G26G 8G 7G19
  23064206.894   -13662753.07543 -10346316.16942  23064209.321    23064208.193
  23532697.196   -11118522.81743  -8608854.63842  23532699.474    23532698.749
  20926377.340   -24319380.92344 -18904738.30142  20926379.125    20926377.544
  21052869.925   -23121329.29444 -17427337.91942  21052871.901    21052869.248
  21587230.134   -23219581.38243 -17780820.93842  21587232.049    21587231.137
  23885989.593    -5762091.58443  -4434245.15642  23885990.960    23885991.266
  23621546.327    -8456817.38643  -6538266.32342  23621548.624    23621548.318
  20237383.813   -29750728.25744 -23170210.14642  20237384.308    20237382.517
  24104666.880    -6435446.77343  -4515775.91642  24104669.283    24104672.382
  22894979.613   -14160280.57443 -10982564.93242  22894981.129    22894978.239
 04  7 16  3 20  0.0000000  0 10G29G13G27G28G31G10G26G 8G 7G19
  23048387.170   -13745885.76243 -10411094.85342  23048389.574    23048388.436
  23553651.370   -11008408.60843  -8523051.46542  23553653.698    23553652.891
  20931132.089   -24294394.75144 -18885268.56542  20931133.895    20931132.274
  21045329.404   -23160954.82944 -17458214.94142  21045331.367    21045328.759
  21569951.810   -23310379.15043 -17851572.39142  21569953.756    21569952.822
  23897087.039    -5703773.86043  -4388802.82442  23897088.399    23897088.840
  23603535.637    -8551463.61343  -6612016.55642  23603537.929    23603537.782
  20235339.872   -29761469.07644 -23178579.61742  20235340.387    20235338.575
  24084652.823    -6540620.67043  -4597729.39042  24084655.111    24084658.057
  22905245.019   -14106336.09543 -10940530.27642  22905246.478    22905243.539
 04  7 16  3 20 30.0000000  0 10G29G13G27G28G31G10G26G 8G 7G19
  23032625.688   -13828712.75843 -10475635.32342  23032627.983    23032626.891
  23574637.391   -10898126.71143  -8437117.62542  23574639.793    23574638.843
  20935941.440   -24269121.34644 -18865575.01442  20935943.283    20935941.650
  21037852.613   -23200245.71544 -17488831.19842  21037854.557    21037851.927
  21552746.110   -23400795.66143 -17922026.76142  21552748.023    21552747.063
  23908252.438    -5645100.06743  -4343083.03342  23908253.714    23908254.069
  23585577.568    -8645833.46143  -6685551.44442  23585579.903    23585579.630
  20233356.738   -29771890.51044 -23186700.21342  20233357.247    20233355.448
  24064649.812    -6645736.17043  -4679637.32842  24064652.085    24064655.101
  22915603.232   -14051903.39343 -10898115.19842  22915604.696    22915601.777
 04  7 16  3 21  0.0000000  0 10G29G13G27G28G31G10G26G 8G 7G19
  23016923.052   -13911231.13643 -10539935.31942  23016925.323    23016924.104
  23595654.962   -10787679.14043  -8351054.65542  23595657.421    23595656.307
  20940805.693   -24243559.54444 -18845656.73842  20940807.525    20940805.902
  21030439.552   -23239201.39944 -17519186.25942  21030441.529    21030438.863
  21535613.662   -23490827.27843 -17992181.21442  21535615.549    21535614.622
  23919484.961    -5586072.55843  -4297087.62542  23919486.274    23919486.705
  23567672.775    -8739923.74243  -6758868.50942  23567675.241    23567674.746
  20231434.733   -29781990.80844 -23194570.57542  20231435.246    20231433.423
  24044658.455    -6750790.30843  -4761497.45242  24044660.608    24044663.791
  22926054.037   -13996983.96343 -10855320.85742  22926055.470    22926052.708
 04  7 16  3 21 30.0000000  0 10G29G13G27G28G31G10G26G 8G 7G19
  23001279.962   -13993436.24243 -10603991.20642  23001282.284    23001280.884
  23616704.082   -10677065.89543  -8264862.65242  23616706.531    23616705.463
  20945725.347   -24217706.60843 -18825511.60442  20945727.187    20945725.549
  21023090.625   -23277820.28644 -17549278.89242  21023092.594    21023089.917
  21518555.321   -23580469.13643 -18062031.96342  21518557.243    21518556.288
  23930784.676    -5526692.22143  -4250817.28142  23930785.984    23930786.526
  23549822.087    -8833729.70243  -6831964.02742  23549824.575    23549824.004
  20229574.317   -29791767.28044 -23202188.60542  20229574.822    20229573.015
  24024679.802    -6855778.51143  -4843306.22842  24024681.894    24024685.018
  22936597.553   -13941577.31443 -10812146.87442  22936598.954    22936596.236
